<?xml version="1.0" encoding="UTF-8" standalone="no" ?>
<gpx xmlns="http://www.topografix.com/GPX/1/1" xmlns:xsi="http://www.w3.org/2001/XMLSchema-instance" xsi:schemaLocation="http://www.topografix.com/GPX/1/1 http://www.topografix.com/GPX/1/1/gpx.xsd" version="1.1" creator="VisuGPX - https://www.visugpx.com">
  <metadata>
    <name>Via-rhôna de Lyon à Sète</name>
    <desc><![CDATA[Via Rhona de Lyon à Sète en 7 jours soit un total de 594 km]]></desc>
  </metadata>
  <trk>
    <name><![CDATA[2019-06-01 10:22:53]]></name>
    <trkseg>
      <trkpt lat="43.45483" lon="3.68946">
        <ele>9.71</ele>
        <time>2019-06-01T08:22:53.000Z</time>
      </trkpt>
      <trkpt lat="43.45475" lon="3.68954">
        <ele>9.65</ele>
        <time>2019-06-01T08:23:08.000Z</time>
      </trkpt>
      <trkpt lat="43.4547" lon="3.6897">
        <ele>9.71</ele>
        <time>2019-06-01T08:23:13.000Z</time>
      </trkpt>
      <trkpt lat="43.45462" lon="3.68985">
        <ele>9.71</ele>
        <time>2019-06-01T08:23:18.000Z</time>
      </trkpt>
      <trkpt lat="43.45453" lon="3.68993">
        <ele>10.94</ele>
        <time>2019-06-01T08:23:23.000Z</time>
      </trkpt>
      <trkpt lat="43.45445" lon="3.68976">
        <ele>10.71</ele>
        <time>2019-06-01T08:23:28.000Z</time>
      </trkpt>
      <trkpt lat="43.45441" lon="3.68956">
        <ele>9.96</ele>
        <time>2019-06-01T08:23:33.000Z</time>
      </trkpt>
      <trkpt lat="43.45425" lon="3.68946">
        <ele>10.69</ele>
        <time>2019-06-01T08:23:38.000Z</time>
      </trkpt>
      <trkpt lat="43.45407" lon="3.68936">
        <ele>10.71</ele>
        <time>2019-06-01T08:23:43.000Z</time>
      </trkpt>
      <trkpt lat="43.45392" lon="3.68925">
        <ele>12.41</ele>
        <time>2019-06-01T08:23:48.000Z</time>
      </trkpt>
      <trkpt lat="43.4538" lon="3.68918">
        <ele>11.71</ele>
        <time>2019-06-01T08:23:53.000Z</time>
      </trkpt>
      <trkpt lat="43.45369" lon="3.68909">
        <ele>12.7</ele>
        <time>2019-06-01T08:23:58.000Z</time>
      </trkpt>
      <trkpt lat="43.45369" lon="3.68892">
        <ele>11.77</ele>
        <time>2019-06-01T08:24:03.000Z</time>
      </trkpt>
      <trkpt lat="43.4538" lon="3.68873">
        <ele>9.98</ele>
        <time>2019-06-01T08:24:08.000Z</time>
      </trkpt>
      <trkpt lat="43.45391" lon="3.68856">
        <ele>9.77</ele>
        <time>2019-06-01T08:24:13.000Z</time>
      </trkpt>
      <trkpt lat="43.45396" lon="3.68844">
        <ele>8.77</ele>
        <time>2019-06-01T08:24:18.000Z</time>
      </trkpt>
      <trkpt lat="43.454" lon="3.68831">
        <ele>8.65</ele>
        <time>2019-06-01T08:25:13.000Z</time>
      </trkpt>
      <trkpt lat="43.45393" lon="3.68822">
        <ele>7.96</ele>
        <time>2019-06-01T08:25:18.000Z</time>
      </trkpt>
      <trkpt lat="43.45399" lon="3.68832">
        <ele>11.52</ele>
        <time>2019-06-01T08:26:55.000Z</time>
      </trkpt>
      <trkpt lat="43.45395" lon="3.68846">
        <ele>11.66</ele>
        <time>2019-06-01T08:27:00.000Z</time>
      </trkpt>
      <trkpt lat="43.45384" lon="3.68838">
        <ele>11.7</ele>
        <time>2019-06-01T08:27:05.000Z</time>
      </trkpt>
      <trkpt lat="43.45377" lon="3.68829">
        <ele>9.77</ele>
        <time>2019-06-01T08:27:12.000Z</time>
      </trkpt>
      <trkpt lat="43.4537" lon="3.68814">
        <ele>7.96</ele>
        <time>2019-06-01T08:27:17.000Z</time>
      </trkpt>
      <trkpt lat="43.45357" lon="3.68804">
        <ele>7.71</ele>
        <time>2019-06-01T08:27:22.000Z</time>
      </trkpt>
      <trkpt lat="43.45357" lon="3.68791">
        <ele>10.69</ele>
        <time>2019-06-01T08:28:06.000Z</time>
      </trkpt>
      <trkpt lat="43.45348" lon="3.68789">
        <ele>10.46</ele>
        <time>2019-06-01T08:28:49.000Z</time>
      </trkpt>
      <trkpt lat="43.45335" lon="3.68808">
        <ele>10.7</ele>
        <time>2019-06-01T08:28:54.000Z</time>
      </trkpt>
      <trkpt lat="43.45324" lon="3.68825">
        <ele>11.51</ele>
        <time>2019-06-01T08:28:59.000Z</time>
      </trkpt>
      <trkpt lat="43.45313" lon="3.68839">
        <ele>12.52</ele>
        <time>2019-06-01T08:29:04.000Z</time>
      </trkpt>
      <trkpt lat="43.45304" lon="3.68853">
        <ele>13.65</ele>
        <time>2019-06-01T08:29:09.000Z</time>
      </trkpt>
      <trkpt lat="43.45296" lon="3.68864">
        <ele>14.71</ele>
        <time>2019-06-01T08:29:14.000Z</time>
      </trkpt>
      <trkpt lat="43.45288" lon="3.68873">
        <ele>15.71</ele>
        <time>2019-06-01T08:29:19.000Z</time>
      </trkpt>
      <trkpt lat="43.4528" lon="3.68883">
        <ele>15.71</ele>
        <time>2019-06-01T08:29:24.000Z</time>
      </trkpt>
      <trkpt lat="43.45274" lon="3.68892">
        <ele>16.65</ele>
        <time>2019-06-01T08:29:29.000Z</time>
      </trkpt>
      <trkpt lat="43.45267" lon="3.68904">
        <ele>18.65</ele>
        <time>2019-06-01T08:29:34.000Z</time>
      </trkpt>
      <trkpt lat="43.45259" lon="3.68913">
        <ele>20.71</ele>
        <time>2019-06-01T08:29:39.000Z</time>
      </trkpt>
      <trkpt lat="43.45248" lon="3.68915">
        <ele>21.65</ele>
        <time>2019-06-01T08:29:44.000Z</time>
      </trkpt>
      <trkpt lat="43.45236" lon="3.6891">
        <ele>21.71</ele>
        <time>2019-06-01T08:29:49.000Z</time>
      </trkpt>
      <trkpt lat="43.45228" lon="3.68899">
        <ele>21.71</ele>
        <time>2019-06-01T08:29:54.000Z</time>
      </trkpt>
      <trkpt lat="43.4522" lon="3.68887">
        <ele>21.71</ele>
        <time>2019-06-01T08:29:59.000Z</time>
      </trkpt>
      <trkpt lat="43.45212" lon="3.68875">
        <ele>19.96</ele>
        <time>2019-06-01T08:30:04.000Z</time>
      </trkpt>
      <trkpt lat="43.45204" lon="3.68861">
        <ele>19.71</ele>
        <time>2019-06-01T08:30:09.000Z</time>
      </trkpt>
      <trkpt lat="43.45195" lon="3.68848">
        <ele>19.71</ele>
        <time>2019-06-01T08:30:14.000Z</time>
      </trkpt>
      <trkpt lat="43.45183" lon="3.68837">
        <ele>20.7</ele>
        <time>2019-06-01T08:30:19.000Z</time>
      </trkpt>
      <trkpt lat="43.45172" lon="3.68837">
        <ele>20.77</ele>
        <time>2019-06-01T08:30:24.000Z</time>
      </trkpt>
      <trkpt lat="43.45163" lon="3.68852">
        <ele>22.7</ele>
        <time>2019-06-01T08:30:29.000Z</time>
      </trkpt>
      <trkpt lat="43.45166" lon="3.68878">
        <ele>22.71</ele>
        <time>2019-06-01T08:30:34.000Z</time>
      </trkpt>
      <trkpt lat="43.45174" lon="3.68901">
        <ele>22.71</ele>
        <time>2019-06-01T08:30:39.000Z</time>
      </trkpt>
      <trkpt lat="43.45182" lon="3.68925">
        <ele>22.76</ele>
        <time>2019-06-01T08:30:44.000Z</time>
      </trkpt>
      <trkpt lat="43.4519" lon="3.68949">
        <ele>21.96</ele>
        <time>2019-06-01T08:30:49.000Z</time>
      </trkpt>
      <trkpt lat="43.45194" lon="3.68979">
        <ele>20.73</ele>
        <time>2019-06-01T08:30:54.000Z</time>
      </trkpt>
      <trkpt lat="43.45198" lon="3.69012">
        <ele>21.71</ele>
        <time>2019-06-01T08:30:59.000Z</time>
      </trkpt>
      <trkpt lat="43.45205" lon="3.69049">
        <ele>19.78</ele>
        <time>2019-06-01T08:31:04.000Z</time>
      </trkpt>
      <trkpt lat="43.45198" lon="3.69083">
        <ele>19.71</ele>
        <time>2019-06-01T08:31:09.000Z</time>
      </trkpt>
      <trkpt lat="43.45183" lon="3.69095">
        <ele>21.46</ele>
        <time>2019-06-01T08:31:14.000Z</time>
      </trkpt>
      <trkpt lat="43.45168" lon="3.69104">
        <ele>24.4</ele>
        <time>2019-06-01T08:31:19.000Z</time>
      </trkpt>
      <trkpt lat="43.45153" lon="3.69114">
        <ele>26.65</ele>
        <time>2019-06-01T08:31:24.000Z</time>
      </trkpt>
      <trkpt lat="43.45132" lon="3.69127">
        <ele>27.96</ele>
        <time>2019-06-01T08:31:30.000Z</time>
      </trkpt>
      <trkpt lat="43.45114" lon="3.69136">
        <ele>27.76</ele>
        <time>2019-06-01T08:31:35.000Z</time>
      </trkpt>
      <trkpt lat="43.45109" lon="3.69149">
        <ele>27.03</ele>
        <time>2019-06-01T08:31:40.000Z</time>
      </trkpt>
      <trkpt lat="43.45119" lon="3.69175">
        <ele>25.97</ele>
        <time>2019-06-01T08:31:45.000Z</time>
      </trkpt>
      <trkpt lat="43.45126" lon="3.69197">
        <ele>25.72</ele>
        <time>2019-06-01T08:31:50.000Z</time>
      </trkpt>
      <trkpt lat="43.45132" lon="3.69219">
        <ele>24.72</ele>
        <time>2019-06-01T08:31:55.000Z</time>
      </trkpt>
      <trkpt lat="43.45136" lon="3.69241">
        <ele>23.72</ele>
        <time>2019-06-01T08:32:00.000Z</time>
      </trkpt>
      <trkpt lat="43.45134" lon="3.69257">
        <ele>23.47</ele>
        <time>2019-06-01T08:32:05.000Z</time>
      </trkpt>
      <trkpt lat="43.45126" lon="3.69269">
        <ele>22.72</ele>
        <time>2019-06-01T08:32:17.000Z</time>
      </trkpt>
      <trkpt lat="43.45107" lon="3.69286">
        <ele>22.72</ele>
        <time>2019-06-01T08:32:22.000Z</time>
      </trkpt>
      <trkpt lat="43.45077" lon="3.69288">
        <ele>21.78</ele>
        <time>2019-06-01T08:32:27.000Z</time>
      </trkpt>
      <trkpt lat="43.45043" lon="3.69291">
        <ele>18.8</ele>
        <time>2019-06-01T08:32:32.000Z</time>
      </trkpt>
      <trkpt lat="43.45009" lon="3.69309">
        <ele>15.79</ele>
        <time>2019-06-01T08:32:37.000Z</time>
      </trkpt>
      <trkpt lat="43.44981" lon="3.69334">
        <ele>11.86</ele>
        <time>2019-06-01T08:32:42.000Z</time>
      </trkpt>
      <trkpt lat="43.44949" lon="3.69362">
        <ele>8.99</ele>
        <time>2019-06-01T08:32:47.000Z</time>
      </trkpt>
      <trkpt lat="43.44921" lon="3.69385">
        <ele>9.48</ele>
        <time>2019-06-01T08:32:52.000Z</time>
      </trkpt>
      <trkpt lat="43.44896" lon="3.69408">
        <ele>10.7</ele>
        <time>2019-06-01T08:32:57.000Z</time>
      </trkpt>
      <trkpt lat="43.44872" lon="3.69429">
        <ele>11.47</ele>
        <time>2019-06-01T08:33:02.000Z</time>
      </trkpt>
      <trkpt lat="43.44849" lon="3.6945">
        <ele>11.72</ele>
        <time>2019-06-01T08:33:07.000Z</time>
      </trkpt>
      <trkpt lat="43.44827" lon="3.69464">
        <ele>10.73</ele>
        <time>2019-06-01T08:33:12.000Z</time>
      </trkpt>
      <trkpt lat="43.44804" lon="3.69483">
        <ele>10.72</ele>
        <time>2019-06-01T08:33:17.000Z</time>
      </trkpt>
      <trkpt lat="43.44782" lon="3.69499">
        <ele>11.72</ele>
        <time>2019-06-01T08:33:22.000Z</time>
      </trkpt>
      <trkpt lat="43.44761" lon="3.69519">
        <ele>13.46</ele>
        <time>2019-06-01T08:33:27.000Z</time>
      </trkpt>
      <trkpt lat="43.44742" lon="3.6954">
        <ele>13.72</ele>
        <time>2019-06-01T08:33:32.000Z</time>
      </trkpt>
      <trkpt lat="43.44723" lon="3.69561">
        <ele>12.74</ele>
        <time>2019-06-01T08:33:37.000Z</time>
      </trkpt>
      <trkpt lat="43.44705" lon="3.69581">
        <ele>10.98</ele>
        <time>2019-06-01T08:33:42.000Z</time>
      </trkpt>
      <trkpt lat="43.44686" lon="3.69589">
        <ele>10.72</ele>
        <time>2019-06-01T08:33:47.000Z</time>
      </trkpt>
      <trkpt lat="43.44674" lon="3.6959">
        <ele>10.72</ele>
        <time>2019-06-01T08:33:52.000Z</time>
      </trkpt>
      <trkpt lat="43.44664" lon="3.69589">
        <ele>10.72</ele>
        <time>2019-06-01T08:33:57.000Z</time>
      </trkpt>
      <trkpt lat="43.44652" lon="3.6958">
        <ele>11.66</ele>
        <time>2019-06-01T08:34:02.000Z</time>
      </trkpt>
      <trkpt lat="43.44638" lon="3.69565">
        <ele>11.67</ele>
        <time>2019-06-01T08:34:07.000Z</time>
      </trkpt>
      <trkpt lat="43.44634" lon="3.69535">
        <ele>8.06</ele>
        <time>2019-06-01T08:34:12.000Z</time>
      </trkpt>
      <trkpt lat="43.44631" lon="3.69489">
        <ele>5.98</ele>
        <time>2019-06-01T08:34:17.000Z</time>
      </trkpt>
      <trkpt lat="43.44627" lon="3.69443">
        <ele>5.72</ele>
        <time>2019-06-01T08:34:22.000Z</time>
      </trkpt>
      <trkpt lat="43.44625" lon="3.69419">
        <ele>5.72</ele>
        <time>2019-06-01T08:34:27.000Z</time>
      </trkpt>
      <trkpt lat="43.44633" lon="3.6939">
        <ele>4.97</ele>
        <time>2019-06-01T08:34:32.000Z</time>
      </trkpt>
      <trkpt lat="43.4461" lon="3.69372">
        <ele>4.72</ele>
        <time>2019-06-01T08:34:37.000Z</time>
      </trkpt>
      <trkpt lat="43.44595" lon="3.69405">
        <ele>3.97</ele>
        <time>2019-06-01T08:34:42.000Z</time>
      </trkpt>
      <trkpt lat="43.44575" lon="3.69434">
        <ele>5.47</ele>
        <time>2019-06-01T08:34:47.000Z</time>
      </trkpt>
      <trkpt lat="43.44551" lon="3.6946">
        <ele>5.73</ele>
        <time>2019-06-01T08:34:52.000Z</time>
      </trkpt>
      <trkpt lat="43.44527" lon="3.69485">
        <ele>5.73</ele>
        <time>2019-06-01T08:34:57.000Z</time>
      </trkpt>
      <trkpt lat="43.44504" lon="3.69509">
        <ele>5.73</ele>
        <time>2019-06-01T08:35:02.000Z</time>
      </trkpt>
      <trkpt lat="43.44479" lon="3.69534">
        <ele>5.73</ele>
        <time>2019-06-01T08:35:07.000Z</time>
      </trkpt>
      <trkpt lat="43.44455" lon="3.69555">
        <ele>6.72</ele>
        <time>2019-06-01T08:35:12.000Z</time>
      </trkpt>
      <trkpt lat="43.44433" lon="3.69576">
        <ele>6.73</ele>
        <time>2019-06-01T08:35:17.000Z</time>
      </trkpt>
      <trkpt lat="43.4441" lon="3.69599">
        <ele>6.73</ele>
        <time>2019-06-01T08:35:22.000Z</time>
      </trkpt>
      <trkpt lat="43.44388" lon="3.69622">
        <ele>8.23</ele>
        <time>2019-06-01T08:35:27.000Z</time>
      </trkpt>
      <trkpt lat="43.44366" lon="3.69641">
        <ele>7.73</ele>
        <time>2019-06-01T08:35:32.000Z</time>
      </trkpt>
      <trkpt lat="43.44349" lon="3.69655">
        <ele>7.74</ele>
        <time>2019-06-01T08:35:37.000Z</time>
      </trkpt>
      <trkpt lat="43.4434" lon="3.6966">
        <ele>6.71</ele>
        <time>2019-06-01T08:36:23.000Z</time>
      </trkpt>
      <trkpt lat="43.44323" lon="3.69677">
        <ele>6.73</ele>
        <time>2019-06-01T08:36:28.000Z</time>
      </trkpt>
      <trkpt lat="43.44301" lon="3.69698">
        <ele>5.73</ele>
        <time>2019-06-01T08:36:33.000Z</time>
      </trkpt>
      <trkpt lat="43.44278" lon="3.69719">
        <ele>5.73</ele>
        <time>2019-06-01T08:36:38.000Z</time>
      </trkpt>
      <trkpt lat="43.44255" lon="3.69741">
        <ele>6.73</ele>
        <time>2019-06-01T08:36:43.000Z</time>
      </trkpt>
      <trkpt lat="43.44231" lon="3.69762">
        <ele>7.68</ele>
        <time>2019-06-01T08:36:48.000Z</time>
      </trkpt>
      <trkpt lat="43.44207" lon="3.69782">
        <ele>6.5</ele>
        <time>2019-06-01T08:36:53.000Z</time>
      </trkpt>
      <trkpt lat="43.44183" lon="3.69799">
        <ele>7.49</ele>
        <time>2019-06-01T08:36:58.000Z</time>
      </trkpt>
      <trkpt lat="43.44157" lon="3.69813">
        <ele>7.92</ele>
        <time>2019-06-01T08:37:03.000Z</time>
      </trkpt>
      <trkpt lat="43.44131" lon="3.69828">
        <ele>6.8</ele>
        <time>2019-06-01T08:37:08.000Z</time>
      </trkpt>
      <trkpt lat="43.44106" lon="3.69843">
        <ele>5.74</ele>
        <time>2019-06-01T08:37:13.000Z</time>
      </trkpt>
      <trkpt lat="43.44082" lon="3.69857">
        <ele>4.98</ele>
        <time>2019-06-01T08:37:18.000Z</time>
      </trkpt>
      <trkpt lat="43.44059" lon="3.69872">
        <ele>4.74</ele>
        <time>2019-06-01T08:37:23.000Z</time>
      </trkpt>
      <trkpt lat="43.44038" lon="3.69881">
        <ele>4.69</ele>
        <time>2019-06-01T08:37:28.000Z</time>
      </trkpt>
      <trkpt lat="43.44028" lon="3.69885">
        <ele>2.74</ele>
        <time>2019-06-01T08:40:38.000Z</time>
      </trkpt>
      <trkpt lat="43.44015" lon="3.69892">
        <ele>3.49</ele>
        <time>2019-06-01T08:40:43.000Z</time>
      </trkpt>
      <trkpt lat="43.43999" lon="3.69902">
        <ele>2.97</ele>
        <time>2019-06-01T08:40:48.000Z</time>
      </trkpt>
      <trkpt lat="43.43983" lon="3.69912">
        <ele>3.73</ele>
        <time>2019-06-01T08:40:53.000Z</time>
      </trkpt>
      <trkpt lat="43.43963" lon="3.69922">
        <ele>3.74</ele>
        <time>2019-06-01T08:40:58.000Z</time>
      </trkpt>
      <trkpt lat="43.4394" lon="3.69932">
        <ele>4.63</ele>
        <time>2019-06-01T08:41:03.000Z</time>
      </trkpt>
      <trkpt lat="43.43917" lon="3.69944">
        <ele>3.74</ele>
        <time>2019-06-01T08:41:08.000Z</time>
      </trkpt>
      <trkpt lat="43.43894" lon="3.69956">
        <ele>3.97</ele>
        <time>2019-06-01T08:41:13.000Z</time>
      </trkpt>
      <trkpt lat="43.4387" lon="3.69968">
        <ele>2.8</ele>
        <time>2019-06-01T08:41:18.000Z</time>
      </trkpt>
      <trkpt lat="43.43847" lon="3.69979">
        <ele>1.99</ele>
        <time>2019-06-01T08:41:23.000Z</time>
      </trkpt>
      <trkpt lat="43.43822" lon="3.69992">
        <ele>1.74</ele>
        <time>2019-06-01T08:41:28.000Z</time>
      </trkpt>
      <trkpt lat="43.43797" lon="3.70004">
        <ele>1.5</ele>
        <time>2019-06-01T08:41:33.000Z</time>
      </trkpt>
      <trkpt lat="43.43773" lon="3.70016">
        <ele>2.74</ele>
        <time>2019-06-01T08:41:38.000Z</time>
      </trkpt>
      <trkpt lat="43.4375" lon="3.70028">
        <ele>3.68</ele>
        <time>2019-06-01T08:41:43.000Z</time>
      </trkpt>
      <trkpt lat="43.43728" lon="3.70038">
        <ele>3.74</ele>
        <time>2019-06-01T08:41:48.000Z</time>
      </trkpt>
      <trkpt lat="43.43704" lon="3.7005">
        <ele>3.55</ele>
        <time>2019-06-01T08:41:53.000Z</time>
      </trkpt>
      <trkpt lat="43.4368" lon="3.70061">
        <ele>2.99</ele>
        <time>2019-06-01T08:41:58.000Z</time>
      </trkpt>
      <trkpt lat="43.43656" lon="3.70073">
        <ele>2.74</ele>
        <time>2019-06-01T08:42:03.000Z</time>
      </trkpt>
      <trkpt lat="43.43632" lon="3.70086">
        <ele>1.8</ele>
        <time>2019-06-01T08:42:08.000Z</time>
      </trkpt>
      <trkpt lat="43.43607" lon="3.70098">
        <ele>2.73</ele>
        <time>2019-06-01T08:42:13.000Z</time>
      </trkpt>
      <trkpt lat="43.43581" lon="3.70111">
        <ele>2.74</ele>
        <time>2019-06-01T08:42:18.000Z</time>
      </trkpt>
      <trkpt lat="43.43556" lon="3.70123">
        <ele>2.74</ele>
        <time>2019-06-01T08:42:23.000Z</time>
      </trkpt>
      <trkpt lat="43.43529" lon="3.70136">
        <ele>2.74</ele>
        <time>2019-06-01T08:42:28.000Z</time>
      </trkpt>
      <trkpt lat="43.43502" lon="3.7015">
        <ele>1.76</ele>
        <time>2019-06-01T08:42:33.000Z</time>
      </trkpt>
      <trkpt lat="43.43475" lon="3.70164">
        <ele>2.69</ele>
        <time>2019-06-01T08:42:38.000Z</time>
      </trkpt>
      <trkpt lat="43.43449" lon="3.70179">
        <ele>2.75</ele>
        <time>2019-06-01T08:42:43.000Z</time>
      </trkpt>
      <trkpt lat="43.43424" lon="3.7019">
        <ele>1.75</ele>
        <time>2019-06-01T08:42:48.000Z</time>
      </trkpt>
      <trkpt lat="43.43399" lon="3.70201">
        <ele>0.75</ele>
        <time>2019-06-01T08:42:53.000Z</time>
      </trkpt>
      <trkpt lat="43.43374" lon="3.70213">
        <ele>1.88</ele>
        <time>2019-06-01T08:42:58.000Z</time>
      </trkpt>
      <trkpt lat="43.4335" lon="3.70227">
        <ele>1.75</ele>
        <time>2019-06-01T08:43:03.000Z</time>
      </trkpt>
      <trkpt lat="43.43326" lon="3.7024">
        <ele>1.75</ele>
        <time>2019-06-01T08:43:08.000Z</time>
      </trkpt>
      <trkpt lat="43.43302" lon="3.70252">
        <ele>2.7</ele>
        <time>2019-06-01T08:43:13.000Z</time>
      </trkpt>
      <trkpt lat="43.43276" lon="3.70265">
        <ele>2.75</ele>
        <time>2019-06-01T08:43:18.000Z</time>
      </trkpt>
      <trkpt lat="43.43251" lon="3.70278">
        <ele>2.75</ele>
        <time>2019-06-01T08:43:23.000Z</time>
      </trkpt>
      <trkpt lat="43.43228" lon="3.70295">
        <ele>2.75</ele>
        <time>2019-06-01T08:43:28.000Z</time>
      </trkpt>
      <trkpt lat="43.43206" lon="3.70313">
        <ele>2.75</ele>
        <time>2019-06-01T08:43:33.000Z</time>
      </trkpt>
      <trkpt lat="43.43184" lon="3.70334">
        <ele>3.69</ele>
        <time>2019-06-01T08:43:38.000Z</time>
      </trkpt>
      <trkpt lat="43.43163" lon="3.70355">
        <ele>3.75</ele>
        <time>2019-06-01T08:43:43.000Z</time>
      </trkpt>
      <trkpt lat="43.43141" lon="3.70377">
        <ele>3.75</ele>
        <time>2019-06-01T08:43:48.000Z</time>
      </trkpt>
      <trkpt lat="43.4312" lon="3.704">
        <ele>2.75</ele>
        <time>2019-06-01T08:43:53.000Z</time>
      </trkpt>
      <trkpt lat="43.43098" lon="3.70423">
        <ele>2.75</ele>
        <time>2019-06-01T08:43:58.000Z</time>
      </trkpt>
      <trkpt lat="43.43075" lon="3.70446">
        <ele>3.5</ele>
        <time>2019-06-01T08:44:03.000Z</time>
      </trkpt>
      <trkpt lat="43.43052" lon="3.70466">
        <ele>1.82</ele>
        <time>2019-06-01T08:44:08.000Z</time>
      </trkpt>
      <trkpt lat="43.43027" lon="3.70482">
        <ele>2.75</ele>
        <time>2019-06-01T08:44:13.000Z</time>
      </trkpt>
      <trkpt lat="43.43002" lon="3.70496">
        <ele>1.75</ele>
        <time>2019-06-01T08:44:18.000Z</time>
      </trkpt>
      <trkpt lat="43.42977" lon="3.70512">
        <ele>2.75</ele>
        <time>2019-06-01T08:44:23.000Z</time>
      </trkpt>
      <trkpt lat="43.42952" lon="3.70527">
        <ele>3.5</ele>
        <time>2019-06-01T08:44:28.000Z</time>
      </trkpt>
      <trkpt lat="43.42926" lon="3.70542">
        <ele>3.77</ele>
        <time>2019-06-01T08:44:33.000Z</time>
      </trkpt>
      <trkpt lat="43.42901" lon="3.70557">
        <ele>2.76</ele>
        <time>2019-06-01T08:44:38.000Z</time>
      </trkpt>
      <trkpt lat="43.42876" lon="3.7057">
        <ele>1.02</ele>
        <time>2019-06-01T08:44:43.000Z</time>
      </trkpt>
      <trkpt lat="43.4285" lon="3.70586">
        <ele>1.51</ele>
        <time>2019-06-01T08:44:48.000Z</time>
      </trkpt>
      <trkpt lat="43.42824" lon="3.70601">
        <ele>1.76</ele>
        <time>2019-06-01T08:44:53.000Z</time>
      </trkpt>
      <trkpt lat="43.42799" lon="3.70615">
        <ele>1.76</ele>
        <time>2019-06-01T08:44:58.000Z</time>
      </trkpt>
      <trkpt lat="43.42774" lon="3.70631">
        <ele>0.01</ele>
        <time>2019-06-01T08:45:03.000Z</time>
      </trkpt>
      <trkpt lat="43.42749" lon="3.70647">
        <ele>2</ele>
        <time>2019-06-01T08:45:08.000Z</time>
      </trkpt>
      <trkpt lat="43.42723" lon="3.70661">
        <ele>1.74</ele>
        <time>2019-06-01T08:45:13.000Z</time>
      </trkpt>
      <trkpt lat="43.42699" lon="3.70677">
        <ele>1.76</ele>
        <time>2019-06-01T08:45:18.000Z</time>
      </trkpt>
      <trkpt lat="43.42673" lon="3.70691">
        <ele>0.76</ele>
        <time>2019-06-01T08:45:23.000Z</time>
      </trkpt>
      <trkpt lat="43.4265" lon="3.70706">
        <ele>1.76</ele>
        <time>2019-06-01T08:45:28.000Z</time>
      </trkpt>
      <trkpt lat="43.42628" lon="3.70717">
        <ele>1.01</ele>
        <time>2019-06-01T08:45:33.000Z</time>
      </trkpt>
      <trkpt lat="43.42606" lon="3.7073">
        <ele>0.76</ele>
        <time>2019-06-01T08:45:38.000Z</time>
      </trkpt>
      <trkpt lat="43.42584" lon="3.70743">
        <ele>1</ele>
        <time>2019-06-01T08:45:43.000Z</time>
      </trkpt>
      <trkpt lat="43.42561" lon="3.70753">
        <ele>1.51</ele>
        <time>2019-06-01T08:45:48.000Z</time>
      </trkpt>
      <trkpt lat="43.42538" lon="3.70759">
        <ele>1.71</ele>
        <time>2019-06-01T08:45:53.000Z</time>
      </trkpt>
      <trkpt lat="43.42515" lon="3.70767">
        <ele>2.71</ele>
        <time>2019-06-01T08:45:58.000Z</time>
      </trkpt>
      <trkpt lat="43.42492" lon="3.70776">
        <ele>2.76</ele>
        <time>2019-06-01T08:46:03.000Z</time>
      </trkpt>
      <trkpt lat="43.42468" lon="3.70786">
        <ele>2.76</ele>
        <time>2019-06-01T08:46:08.000Z</time>
      </trkpt>
      <trkpt lat="43.42443" lon="3.70795">
        <ele>2.76</ele>
        <time>2019-06-01T08:46:13.000Z</time>
      </trkpt>
      <trkpt lat="43.4242" lon="3.70805">
        <ele>2.76</ele>
        <time>2019-06-01T08:46:18.000Z</time>
      </trkpt>
      <trkpt lat="43.42396" lon="3.70814">
        <ele>3.75</ele>
        <time>2019-06-01T08:46:23.000Z</time>
      </trkpt>
      <trkpt lat="43.42372" lon="3.70825">
        <ele>4.76</ele>
        <time>2019-06-01T08:46:28.000Z</time>
      </trkpt>
      <trkpt lat="43.42346" lon="3.70835">
        <ele>5.01</ele>
        <time>2019-06-01T08:46:33.000Z</time>
      </trkpt>
      <trkpt lat="43.42322" lon="3.70844">
        <ele>5</ele>
        <time>2019-06-01T08:46:38.000Z</time>
      </trkpt>
      <trkpt lat="43.42297" lon="3.70854">
        <ele>4.77</ele>
        <time>2019-06-01T08:46:43.000Z</time>
      </trkpt>
      <trkpt lat="43.4227" lon="3.70863">
        <ele>5.76</ele>
        <time>2019-06-01T08:46:48.000Z</time>
      </trkpt>
      <trkpt lat="43.42241" lon="3.70872">
        <ele>5.02</ele>
        <time>2019-06-01T08:46:53.000Z</time>
      </trkpt>
      <trkpt lat="43.4221" lon="3.70882">
        <ele>4.81</ele>
        <time>2019-06-01T08:46:58.000Z</time>
      </trkpt>
      <trkpt lat="43.42176" lon="3.70894">
        <ele>3.82</ele>
        <time>2019-06-01T08:47:03.000Z</time>
      </trkpt>
      <trkpt lat="43.42143" lon="3.70904">
        <ele>4.52</ele>
        <time>2019-06-01T08:47:08.000Z</time>
      </trkpt>
      <trkpt lat="43.42112" lon="3.70909">
        <ele>3.78</ele>
        <time>2019-06-01T08:47:13.000Z</time>
      </trkpt>
      <trkpt lat="43.42081" lon="3.70912">
        <ele>2.83</ele>
        <time>2019-06-01T08:47:18.000Z</time>
      </trkpt>
      <trkpt lat="43.42051" lon="3.70912">
        <ele>3.52</ele>
        <time>2019-06-01T08:47:23.000Z</time>
      </trkpt>
      <trkpt lat="43.42024" lon="3.70909">
        <ele>3.58</ele>
        <time>2019-06-01T08:47:28.000Z</time>
      </trkpt>
      <trkpt lat="43.41996" lon="3.70905">
        <ele>2.77</ele>
        <time>2019-06-01T08:47:33.000Z</time>
      </trkpt>
      <trkpt lat="43.41969" lon="3.70901">
        <ele>3.52</ele>
        <time>2019-06-01T08:47:38.000Z</time>
      </trkpt>
      <trkpt lat="43.41942" lon="3.70892">
        <ele>3.77</ele>
        <time>2019-06-01T08:47:43.000Z</time>
      </trkpt>
      <trkpt lat="43.41914" lon="3.70883">
        <ele>3.77</ele>
        <time>2019-06-01T08:47:48.000Z</time>
      </trkpt>
      <trkpt lat="43.41886" lon="3.70872">
        <ele>2.77</ele>
        <time>2019-06-01T08:47:53.000Z</time>
      </trkpt>
      <trkpt lat="43.41857" lon="3.7086">
        <ele>3.52</ele>
        <time>2019-06-01T08:47:58.000Z</time>
      </trkpt>
      <trkpt lat="43.4183" lon="3.70846">
        <ele>2.77</ele>
        <time>2019-06-01T08:48:03.000Z</time>
      </trkpt>
      <trkpt lat="43.41803" lon="3.70829">
        <ele>2.58</ele>
        <time>2019-06-01T08:48:08.000Z</time>
      </trkpt>
      <trkpt lat="43.41776" lon="3.70808">
        <ele>2.77</ele>
        <time>2019-06-01T08:48:13.000Z</time>
      </trkpt>
      <trkpt lat="43.41752" lon="3.70786">
        <ele>1.78</ele>
        <time>2019-06-01T08:48:18.000Z</time>
      </trkpt>
      <trkpt lat="43.41728" lon="3.70762">
        <ele>2.77</ele>
        <time>2019-06-01T08:48:23.000Z</time>
      </trkpt>
      <trkpt lat="43.41705" lon="3.70735">
        <ele>1.79</ele>
        <time>2019-06-01T08:48:28.000Z</time>
      </trkpt>
      <trkpt lat="43.41686" lon="3.70706">
        <ele>1.77</ele>
        <time>2019-06-01T08:48:33.000Z</time>
      </trkpt>
      <trkpt lat="43.41667" lon="3.70675">
        <ele>1.82</ele>
        <time>2019-06-01T08:48:38.000Z</time>
      </trkpt>
      <trkpt lat="43.4165" lon="3.70643">
        <ele>1.77</ele>
        <time>2019-06-01T08:48:43.000Z</time>
      </trkpt>
      <trkpt lat="43.41633" lon="3.70609">
        <ele>0.77</ele>
        <time>2019-06-01T08:48:48.000Z</time>
      </trkpt>
      <trkpt lat="43.41617" lon="3.70575">
        <ele>1</ele>
        <time>2019-06-01T08:48:53.000Z</time>
      </trkpt>
      <trkpt lat="43.416" lon="3.70537">
        <ele>1</ele>
        <time>2019-06-01T08:48:58.000Z</time>
      </trkpt>
      <trkpt lat="43.41585" lon="3.70499">
        <ele>1</ele>
        <time>2019-06-01T08:49:03.000Z</time>
      </trkpt>
      <trkpt lat="43.41572" lon="3.7046">
        <ele>1</ele>
        <time>2019-06-01T08:49:08.000Z</time>
      </trkpt>
      <trkpt lat="43.41562" lon="3.70418">
        <ele>1</ele>
        <time>2019-06-01T08:49:13.000Z</time>
      </trkpt>
      <trkpt lat="43.41552" lon="3.70376">
        <ele>1.1</ele>
        <time>2019-06-01T08:49:18.000Z</time>
      </trkpt>
      <trkpt lat="43.41543" lon="3.70335">
        <ele>1.5</ele>
        <time>2019-06-01T08:49:23.000Z</time>
      </trkpt>
      <trkpt lat="43.41534" lon="3.7029">
        <ele>1</ele>
        <time>2019-06-01T08:49:28.000Z</time>
      </trkpt>
      <trkpt lat="43.41525" lon="3.70245">
        <ele>1</ele>
        <time>2019-06-01T08:49:33.000Z</time>
      </trkpt>
      <trkpt lat="43.41514" lon="3.70201">
        <ele>2</ele>
        <time>2019-06-01T08:49:38.000Z</time>
      </trkpt>
      <trkpt lat="43.41505" lon="3.70156">
        <ele>2</ele>
        <time>2019-06-01T08:49:43.000Z</time>
      </trkpt>
      <trkpt lat="43.41496" lon="3.7011">
        <ele>3</ele>
        <time>2019-06-01T08:49:48.000Z</time>
      </trkpt>
      <trkpt lat="43.41486" lon="3.70064">
        <ele>3</ele>
        <time>2019-06-01T08:49:53.000Z</time>
      </trkpt>
      <trkpt lat="43.41477" lon="3.7002">
        <ele>3</ele>
        <time>2019-06-01T08:49:58.000Z</time>
      </trkpt>
      <trkpt lat="43.41468" lon="3.69974">
        <ele>4</ele>
        <time>2019-06-01T08:50:03.000Z</time>
      </trkpt>
      <trkpt lat="43.41459" lon="3.69928">
        <ele>4</ele>
        <time>2019-06-01T08:50:08.000Z</time>
      </trkpt>
      <trkpt lat="43.4145" lon="3.69881">
        <ele>3</ele>
        <time>2019-06-01T08:50:13.000Z</time>
      </trkpt>
      <trkpt lat="43.4144" lon="3.69834">
        <ele>3</ele>
        <time>2019-06-01T08:50:18.000Z</time>
      </trkpt>
      <trkpt lat="43.4143" lon="3.69787">
        <ele>1</ele>
        <time>2019-06-01T08:50:23.000Z</time>
      </trkpt>
      <trkpt lat="43.4142" lon="3.69741">
        <ele>0.04</ele>
        <time>2019-06-01T08:50:28.000Z</time>
      </trkpt>
      <trkpt lat="43.41411" lon="3.69695">
        <ele>0.02</ele>
        <time>2019-06-01T08:50:33.000Z</time>
      </trkpt>
      <trkpt lat="43.41403" lon="3.69652">
        <ele>1</ele>
        <time>2019-06-01T08:50:38.000Z</time>
      </trkpt>
      <trkpt lat="43.41393" lon="3.69608">
        <ele>1</ele>
        <time>2019-06-01T08:50:43.000Z</time>
      </trkpt>
      <trkpt lat="43.41384" lon="3.69565">
        <ele>2</ele>
        <time>2019-06-01T08:50:48.000Z</time>
      </trkpt>
      <trkpt lat="43.41373" lon="3.6952">
        <ele>2</ele>
        <time>2019-06-01T08:50:53.000Z</time>
      </trkpt>
      <trkpt lat="43.41363" lon="3.69475">
        <ele>3</ele>
        <time>2019-06-01T08:50:58.000Z</time>
      </trkpt>
      <trkpt lat="43.41358" lon="3.69437">
        <ele>2</ele>
        <time>2019-06-01T08:51:03.000Z</time>
      </trkpt>
      <trkpt lat="43.4136" lon="3.69415">
        <ele>0.96</ele>
        <time>2019-06-01T08:51:08.000Z</time>
      </trkpt>
      <trkpt lat="43.41353" lon="3.69404">
        <ele>1.52</ele>
        <time>2019-06-01T08:51:13.000Z</time>
      </trkpt>
      <trkpt lat="43.41343" lon="3.69391">
        <ele>2.77</ele>
        <time>2019-06-01T08:51:18.000Z</time>
      </trkpt>
      <trkpt lat="43.4134" lon="3.69367">
        <ele>3.52</ele>
        <time>2019-06-01T08:51:23.000Z</time>
      </trkpt>
      <trkpt lat="43.41335" lon="3.69341">
        <ele>4.75</ele>
        <time>2019-06-01T08:51:28.000Z</time>
      </trkpt>
      <trkpt lat="43.41327" lon="3.69317">
        <ele>6.52</ele>
        <time>2019-06-01T08:51:33.000Z</time>
      </trkpt>
      <trkpt lat="43.41314" lon="3.69296">
        <ele>6.82</ele>
        <time>2019-06-01T08:51:38.000Z</time>
      </trkpt>
      <trkpt lat="43.41296" lon="3.69283">
        <ele>8.52</ele>
        <time>2019-06-01T08:51:43.000Z</time>
      </trkpt>
      <trkpt lat="43.41274" lon="3.69279">
        <ele>9.75</ele>
        <time>2019-06-01T08:51:48.000Z</time>
      </trkpt>
      <trkpt lat="43.41252" lon="3.69283">
        <ele>10.75</ele>
        <time>2019-06-01T08:51:53.000Z</time>
      </trkpt>
      <trkpt lat="43.41229" lon="3.69294">
        <ele>11.77</ele>
        <time>2019-06-01T08:51:58.000Z</time>
      </trkpt>
      <trkpt lat="43.41205" lon="3.69306">
        <ele>10.78</ele>
        <time>2019-06-01T08:52:03.000Z</time>
      </trkpt>
      <trkpt lat="43.41184" lon="3.69329">
        <ele>9.79</ele>
        <time>2019-06-01T08:52:08.000Z</time>
      </trkpt>
      <trkpt lat="43.41169" lon="3.69364">
        <ele>8.77</ele>
        <time>2019-06-01T08:52:13.000Z</time>
      </trkpt>
      <trkpt lat="43.41162" lon="3.69408">
        <ele>6.84</ele>
        <time>2019-06-01T08:52:18.000Z</time>
      </trkpt>
      <trkpt lat="43.41167" lon="3.69454">
        <ele>4.84</ele>
        <time>2019-06-01T08:52:23.000Z</time>
      </trkpt>
      <trkpt lat="43.41176" lon="3.69502">
        <ele>2.79</ele>
        <time>2019-06-01T08:52:28.000Z</time>
      </trkpt>
      <trkpt lat="43.41186" lon="3.69553">
        <ele>1.04</ele>
        <time>2019-06-01T08:52:33.000Z</time>
      </trkpt>
      <trkpt lat="43.41195" lon="3.69599">
        <ele>1.71</ele>
        <time>2019-06-01T08:52:38.000Z</time>
      </trkpt>
      <trkpt lat="43.41204" lon="3.69643">
        <ele>3</ele>
        <time>2019-06-01T08:52:43.000Z</time>
      </trkpt>
      <trkpt lat="43.41201" lon="3.69679">
        <ele>2.76</ele>
        <time>2019-06-01T08:52:48.000Z</time>
      </trkpt>
      <trkpt lat="43.41176" lon="3.69688">
        <ele>2.76</ele>
        <time>2019-06-01T08:52:53.000Z</time>
      </trkpt>
      <trkpt lat="43.4115" lon="3.69696">
        <ele>3.52</ele>
        <time>2019-06-01T08:52:58.000Z</time>
      </trkpt>
      <trkpt lat="43.41122" lon="3.69707">
        <ele>3.77</ele>
        <time>2019-06-01T08:53:03.000Z</time>
      </trkpt>
      <trkpt lat="43.41093" lon="3.69717">
        <ele>3.77</ele>
        <time>2019-06-01T08:53:08.000Z</time>
      </trkpt>
      <trkpt lat="43.41065" lon="3.69725">
        <ele>4.76</ele>
        <time>2019-06-01T08:53:13.000Z</time>
      </trkpt>
      <trkpt lat="43.4104" lon="3.69733">
        <ele>3.77</ele>
        <time>2019-06-01T08:53:18.000Z</time>
      </trkpt>
      <trkpt lat="43.41031" lon="3.69742">
        <ele>6</ele>
        <time>2019-06-01T08:53:39.000Z</time>
      </trkpt>
      <trkpt lat="43.41019" lon="3.69749">
        <ele>7</ele>
        <time>2019-06-01T08:53:44.000Z</time>
      </trkpt>
      <trkpt lat="43.40998" lon="3.69757">
        <ele>1.82</ele>
        <time>2019-06-01T08:53:49.000Z</time>
      </trkpt>
      <trkpt lat="43.40973" lon="3.69763">
        <ele>5.57</ele>
        <time>2019-06-01T08:53:54.000Z</time>
      </trkpt>
      <trkpt lat="43.40947" lon="3.69771">
        <ele>3.48</ele>
        <time>2019-06-01T08:53:59.000Z</time>
      </trkpt>
      <trkpt lat="43.4092" lon="3.69779">
        <ele>2.08</ele>
        <time>2019-06-01T08:54:04.000Z</time>
      </trkpt>
      <trkpt lat="43.40892" lon="3.69791">
        <ele>2.59</ele>
        <time>2019-06-01T08:54:09.000Z</time>
      </trkpt>
      <trkpt lat="43.40864" lon="3.69802">
        <ele>2.78</ele>
        <time>2019-06-01T08:54:14.000Z</time>
      </trkpt>
      <trkpt lat="43.40836" lon="3.69811">
        <ele>2.77</ele>
        <time>2019-06-01T08:54:19.000Z</time>
      </trkpt>
      <trkpt lat="43.4081" lon="3.69828">
        <ele>3.72</ele>
        <time>2019-06-01T08:54:24.000Z</time>
      </trkpt>
      <trkpt lat="43.40782" lon="3.69833">
        <ele>3.09</ele>
        <time>2019-06-01T08:54:29.000Z</time>
      </trkpt>
      <trkpt lat="43.40754" lon="3.69843">
        <ele>2.78</ele>
        <time>2019-06-01T08:54:34.000Z</time>
      </trkpt>
      <trkpt lat="43.40731" lon="3.69846">
        <ele>2.02</ele>
        <time>2019-06-01T08:54:39.000Z</time>
      </trkpt>
      <trkpt lat="43.40722" lon="3.69855">
        <ele>3.53</ele>
        <time>2019-06-01T08:54:44.000Z</time>
      </trkpt>
      <trkpt lat="43.40713" lon="3.69861">
        <ele>11.75</ele>
        <time>2019-06-01T08:55:37.000Z</time>
      </trkpt>
      <trkpt lat="43.40696" lon="3.69869">
        <ele>7.21</ele>
        <time>2019-06-01T08:55:42.000Z</time>
      </trkpt>
      <trkpt lat="43.4068" lon="3.69876">
        <ele>4.8</ele>
        <time>2019-06-01T08:55:47.000Z</time>
      </trkpt>
      <trkpt lat="43.40664" lon="3.69886">
        <ele>5.79</ele>
        <time>2019-06-01T08:55:52.000Z</time>
      </trkpt>
      <trkpt lat="43.40648" lon="3.69899">
        <ele>6.78</ele>
        <time>2019-06-01T08:55:57.000Z</time>
      </trkpt>
      <trkpt lat="43.40638" lon="3.69919">
        <ele>4.85</ele>
        <time>2019-06-01T08:56:02.000Z</time>
      </trkpt>
      <trkpt lat="43.4064" lon="3.69939">
        <ele>3.03</ele>
        <time>2019-06-01T08:56:07.000Z</time>
      </trkpt>
      <trkpt lat="43.40656" lon="3.69966">
        <ele>2.54</ele>
        <time>2019-06-01T08:56:12.000Z</time>
      </trkpt>
      <trkpt lat="43.40667" lon="3.69993">
        <ele>3.78</ele>
        <time>2019-06-01T08:56:17.000Z</time>
      </trkpt>
      <trkpt lat="43.40677" lon="3.7002">
        <ele>4.91</ele>
        <time>2019-06-01T08:56:22.000Z</time>
      </trkpt>
      <trkpt lat="43.40683" lon="3.70042">
        <ele>4.78</ele>
        <time>2019-06-01T08:56:27.000Z</time>
      </trkpt>
      <trkpt lat="43.40673" lon="3.70056">
        <ele>3.04</ele>
        <time>2019-06-01T08:56:32.000Z</time>
      </trkpt>
      <trkpt lat="43.40659" lon="3.70063">
        <ele>0.87</ele>
        <time>2019-06-01T08:56:37.000Z</time>
      </trkpt>
      <trkpt lat="43.40648" lon="3.70054">
        <ele>0.78</ele>
        <time>2019-06-01T08:56:42.000Z</time>
      </trkpt>
      <trkpt lat="43.40636" lon="3.70046">
        <ele>7</ele>
        <time>2019-06-01T08:56:47.000Z</time>
      </trkpt>
      <trkpt lat="43.40623" lon="3.70041">
        <ele>7</ele>
        <time>2019-06-01T08:56:52.000Z</time>
      </trkpt>
      <trkpt lat="43.4061" lon="3.70038">
        <ele>7</ele>
        <time>2019-06-01T08:56:57.000Z</time>
      </trkpt>
      <trkpt lat="43.40595" lon="3.70032">
        <ele>7</ele>
        <time>2019-06-01T08:57:02.000Z</time>
      </trkpt>
      <trkpt lat="43.40581" lon="3.70025">
        <ele>9</ele>
        <time>2019-06-01T08:57:07.000Z</time>
      </trkpt>
      <trkpt lat="43.40573" lon="3.70019">
        <ele>4.02</ele>
        <time>2019-06-01T08:57:22.000Z</time>
      </trkpt>
      <trkpt lat="43.40558" lon="3.70016">
        <ele>3.83</ele>
        <time>2019-06-01T08:57:27.000Z</time>
      </trkpt>
      <trkpt lat="43.4054" lon="3.70012">
        <ele>4.53</ele>
        <time>2019-06-01T08:57:32.000Z</time>
      </trkpt>
      <trkpt lat="43.40523" lon="3.70006">
        <ele>3.85</ele>
        <time>2019-06-01T08:57:37.000Z</time>
      </trkpt>
      <trkpt lat="43.40505" lon="3.69997">
        <ele>2.8</ele>
        <time>2019-06-01T08:57:42.000Z</time>
      </trkpt>
      <trkpt lat="43.40487" lon="3.69988">
        <ele>4.47</ele>
        <time>2019-06-01T08:57:47.000Z</time>
      </trkpt>
      <trkpt lat="43.40473" lon="3.69977">
        <ele>3.89</ele>
        <time>2019-06-01T08:57:52.000Z</time>
      </trkpt>
      <trkpt lat="43.40464" lon="3.69974">
        <ele>3.74</ele>
        <time>2019-06-01T08:58:07.000Z</time>
      </trkpt>
      <trkpt lat="43.40457" lon="3.69957">
        <ele>4.31</ele>
        <time>2019-06-01T08:58:12.000Z</time>
      </trkpt>
      <trkpt lat="43.40456" lon="3.69928">
        <ele>4.78</ele>
        <time>2019-06-01T08:58:17.000Z</time>
      </trkpt>
      <trkpt lat="43.40454" lon="3.699">
        <ele>1.74</ele>
        <time>2019-06-01T08:58:22.000Z</time>
      </trkpt>
      <trkpt lat="43.40451" lon="3.69878">
        <ele>3.52</ele>
        <time>2019-06-01T08:58:27.000Z</time>
      </trkpt>
      <trkpt lat="43.40453" lon="3.69864">
        <ele>0.3</ele>
        <time>2019-06-01T08:58:56.000Z</time>
      </trkpt>
      <trkpt lat="43.40445" lon="3.69855">
        <ele>3.8</ele>
        <time>2019-06-01T08:59:05.000Z</time>
      </trkpt>
      <trkpt lat="43.40441" lon="3.6984">
        <ele>1.79</ele>
        <time>2019-06-01T08:59:10.000Z</time>
      </trkpt>
      <trkpt lat="43.40441" lon="3.6982">
        <ele>1.84</ele>
        <time>2019-06-01T08:59:15.000Z</time>
      </trkpt>
      <trkpt lat="43.40441" lon="3.69795">
        <ele>4.47</ele>
        <time>2019-06-01T08:59:20.000Z</time>
      </trkpt>
      <trkpt lat="43.40441" lon="3.69773">
        <ele>6.61</ele>
        <time>2019-06-01T08:59:25.000Z</time>
      </trkpt>
      <trkpt lat="43.40442" lon="3.6976">
        <ele>8.8</ele>
        <time>2019-06-01T08:59:35.000Z</time>
      </trkpt>
      <trkpt lat="43.40442" lon="3.69747">
        <ele>5</ele>
        <time>2019-06-01T09:00:09.000Z</time>
      </trkpt>
      <trkpt lat="43.40435" lon="3.69724">
        <ele>1.01</ele>
        <time>2019-06-01T09:00:14.000Z</time>
      </trkpt>
      <trkpt lat="43.4043" lon="3.69701">
        <ele>1.78</ele>
        <time>2019-06-01T09:00:19.000Z</time>
      </trkpt>
      <trkpt lat="43.40429" lon="3.69689">
        <ele>2.53</ele>
        <time>2019-06-01T09:00:24.000Z</time>
      </trkpt>
      <trkpt lat="43.40421" lon="3.69679">
        <ele>1.74</ele>
        <time>2019-06-01T09:00:30.000Z</time>
      </trkpt>
      <trkpt lat="43.404" lon="3.69678">
        <ele>6</ele>
        <time>2019-06-01T09:00:35.000Z</time>
      </trkpt>
      <trkpt lat="43.40375" lon="3.69684">
        <ele>1.78</ele>
        <time>2019-06-01T09:00:40.000Z</time>
      </trkpt>
      <trkpt lat="43.40354" lon="3.69689">
        <ele>2.78</ele>
        <time>2019-06-01T09:00:45.000Z</time>
      </trkpt>
      <trkpt lat="43.40332" lon="3.69693">
        <ele>3.59</ele>
        <time>2019-06-01T09:00:50.000Z</time>
      </trkpt>
      <trkpt lat="43.40308" lon="3.69697">
        <ele>4.02</ele>
        <time>2019-06-01T09:00:55.000Z</time>
      </trkpt>
      <trkpt lat="43.40282" lon="3.69702">
        <ele>5.52</ele>
        <time>2019-06-01T09:01:00.000Z</time>
      </trkpt>
      <trkpt lat="43.40256" lon="3.69709">
        <ele>6.54</ele>
        <time>2019-06-01T09:01:05.000Z</time>
      </trkpt>
      <trkpt lat="43.40228" lon="3.69714">
        <ele>5.8</ele>
        <time>2019-06-01T09:01:10.000Z</time>
      </trkpt>
      <trkpt lat="43.40207" lon="3.69712">
        <ele>3.81</ele>
        <time>2019-06-01T09:01:15.000Z</time>
      </trkpt>
      <trkpt lat="43.40183" lon="3.6971">
        <ele>5.72</ele>
        <time>2019-06-01T09:01:20.000Z</time>
      </trkpt>
      <trkpt lat="43.40174" lon="3.69706">
        <ele>1.89</ele>
        <time>2019-06-01T09:01:25.000Z</time>
      </trkpt>
      <trkpt lat="43.40163" lon="3.69706">
        <ele>2.97</ele>
        <time>2019-06-01T09:01:31.000Z</time>
      </trkpt>
      <trkpt lat="43.40147" lon="3.69702">
        <ele>2.79</ele>
        <time>2019-06-01T09:01:36.000Z</time>
      </trkpt>
      <trkpt lat="43.40128" lon="3.69696">
        <ele>2.04</ele>
        <time>2019-06-01T09:01:41.000Z</time>
      </trkpt>
      <trkpt lat="43.40108" lon="3.69691">
        <ele>3.58</ele>
        <time>2019-06-01T09:01:46.000Z</time>
      </trkpt>
      <trkpt lat="43.40086" lon="3.69685">
        <ele>4.73</ele>
        <time>2019-06-01T09:01:51.000Z</time>
      </trkpt>
      <trkpt lat="43.40067" lon="3.6968">
        <ele>6.54</ele>
        <time>2019-06-01T09:01:56.000Z</time>
      </trkpt>
      <trkpt lat="43.40048" lon="3.69675">
        <ele>6.03</ele>
        <time>2019-06-01T09:02:01.000Z</time>
      </trkpt>
      <trkpt lat="43.40028" lon="3.69668">
        <ele>4.85</ele>
        <time>2019-06-01T09:02:06.000Z</time>
      </trkpt>
      <trkpt lat="43.40006" lon="3.69662">
        <ele>6.73</ele>
        <time>2019-06-01T09:02:11.000Z</time>
      </trkpt>
      <trkpt lat="43.39985" lon="3.69657">
        <ele>6.79</ele>
        <time>2019-06-01T09:02:16.000Z</time>
      </trkpt>
      <trkpt lat="43.39965" lon="3.69654">
        <ele>7.6</ele>
        <time>2019-06-01T09:02:21.000Z</time>
      </trkpt>
      <trkpt lat="43.39955" lon="3.69651">
        <ele>7.56</ele>
        <time>2019-06-01T09:02:26.000Z</time>
      </trkpt>
      <trkpt lat="43.39943" lon="3.69643">
        <ele>8.77</ele>
        <time>2019-06-01T09:02:31.000Z</time>
      </trkpt>
      <trkpt lat="43.3993" lon="3.69634">
        <ele>9.83</ele>
        <time>2019-06-01T09:02:36.000Z</time>
      </trkpt>
      <trkpt lat="43.39922" lon="3.69625">
        <ele>10.54</ele>
        <time>2019-06-01T09:02:41.000Z</time>
      </trkpt>
      <trkpt lat="43.39927" lon="3.69612">
        <ele>11.79</ele>
        <time>2019-06-01T09:02:46.000Z</time>
      </trkpt>
      <trkpt lat="43.39937" lon="3.6961">
        <ele>9.56</ele>
        <time>2019-06-01T09:02:53.000Z</time>
      </trkpt>
      <trkpt lat="43.39945" lon="3.69603">
        <ele>11.72</ele>
        <time>2019-06-01T09:02:59.000Z</time>
      </trkpt>
      <trkpt lat="43.39954" lon="3.69605">
        <ele>9.74</ele>
        <time>2019-06-01T09:03:08.000Z</time>
      </trkpt>
      <trkpt lat="43.39963" lon="3.69608">
        <ele>7.65</ele>
        <time>2019-06-01T09:03:14.000Z</time>
      </trkpt>
      <trkpt lat="43.39973" lon="3.69613">
        <ele>7.04</ele>
        <time>2019-06-01T09:03:21.000Z</time>
      </trkpt>
      <trkpt lat="43.39982" lon="3.69617">
        <ele>7.98</ele>
        <time>2019-06-01T09:03:49.000Z</time>
      </trkpt>
      <trkpt lat="43.39981" lon="3.69604">
        <ele>7.83</ele>
        <time>2019-06-01T09:04:17.000Z</time>
      </trkpt>
      <trkpt lat="43.39987" lon="3.69614">
        <ele>6.48</ele>
        <time>2019-06-01T09:10:05.000Z</time>
      </trkpt>
      <trkpt lat="43.39979" lon="3.6962">
        <ele>8.7</ele>
        <time>2019-06-01T09:10:17.000Z</time>
      </trkpt>
      <trkpt lat="43.39973" lon="3.69607">
        <ele>3.77</ele>
        <time>2019-06-01T09:14:00.000Z</time>
      </trkpt>
      <trkpt lat="43.39952" lon="3.69605">
        <ele>5.48</ele>
        <time>2019-06-01T09:14:05.000Z</time>
      </trkpt>
      <trkpt lat="43.39943" lon="3.69608">
        <ele>5.85</ele>
        <time>2019-06-01T09:14:13.000Z</time>
      </trkpt>
      <trkpt lat="43.39932" lon="3.69606">
        <ele>5.81</ele>
        <time>2019-06-01T09:14:18.000Z</time>
      </trkpt>
      <trkpt lat="43.39912" lon="3.69607">
        <ele>5.48</ele>
        <time>2019-06-01T09:14:23.000Z</time>
      </trkpt>
      <trkpt lat="43.39895" lon="3.6961">
        <ele>5.79</ele>
        <time>2019-06-01T09:14:28.000Z</time>
      </trkpt>
      <trkpt lat="43.39873" lon="3.69614">
        <ele>6.79</ele>
        <time>2019-06-01T09:14:33.000Z</time>
      </trkpt>
      <trkpt lat="43.39852" lon="3.69621">
        <ele>7.73</ele>
        <time>2019-06-01T09:14:38.000Z</time>
      </trkpt>
      <trkpt lat="43.39826" lon="3.69622">
        <ele>9.53</ele>
        <time>2019-06-01T09:14:43.000Z</time>
      </trkpt>
      <trkpt lat="43.39805" lon="3.69621">
        <ele>9.79</ele>
        <time>2019-06-01T09:14:48.000Z</time>
      </trkpt>
      <trkpt lat="43.39784" lon="3.69614">
        <ele>10.73</ele>
        <time>2019-06-01T09:14:53.000Z</time>
      </trkpt>
      <trkpt lat="43.39765" lon="3.69606">
        <ele>8.17</ele>
        <time>2019-06-01T09:14:58.000Z</time>
      </trkpt>
      <trkpt lat="43.39741" lon="3.69597">
        <ele>4.05</ele>
        <time>2019-06-01T09:15:03.000Z</time>
      </trkpt>
      <trkpt lat="43.39714" lon="3.69586">
        <ele>4.79</ele>
        <time>2019-06-01T09:15:08.000Z</time>
      </trkpt>
      <trkpt lat="43.39697" lon="3.69577">
        <ele>2.87</ele>
        <time>2019-06-01T09:15:13.000Z</time>
      </trkpt>
      <trkpt lat="43.39683" lon="3.6957">
        <ele>2.79</ele>
        <time>2019-06-01T09:15:18.000Z</time>
      </trkpt>
      <trkpt lat="43.39664" lon="3.69561">
        <ele>2</ele>
        <time>2019-06-01T09:15:23.000Z</time>
      </trkpt>
      <trkpt lat="43.39644" lon="3.69552">
        <ele>1.04</ele>
        <time>2019-06-01T09:15:28.000Z</time>
      </trkpt>
      <trkpt lat="43.39625" lon="3.69543">
        <ele>0.79</ele>
        <time>2019-06-01T09:15:33.000Z</time>
      </trkpt>
      <trkpt lat="43.39609" lon="3.69531">
        <ele>3.48</ele>
        <time>2019-06-01T09:15:38.000Z</time>
      </trkpt>
      <trkpt lat="43.39594" lon="3.69515">
        <ele>5.47</ele>
        <time>2019-06-01T09:15:43.000Z</time>
      </trkpt>
      <trkpt lat="43.39574" lon="3.69496">
        <ele>4.05</ele>
        <time>2019-06-01T09:15:48.000Z</time>
      </trkpt>
      <trkpt lat="43.3955" lon="3.69487">
        <ele>4.73</ele>
        <time>2019-06-01T09:15:53.000Z</time>
      </trkpt>
      <trkpt lat="43.39541" lon="3.69488">
        <ele>3.75</ele>
        <time>2019-06-01T09:16:04.000Z</time>
      </trkpt>
      <trkpt lat="43.39529" lon="3.69483">
        <ele>4.73</ele>
        <time>2019-06-01T09:16:12.000Z</time>
      </trkpt>
      <trkpt lat="43.39513" lon="3.69472">
        <ele>4.8</ele>
        <time>2019-06-01T09:16:17.000Z</time>
      </trkpt>
      <trkpt lat="43.39501" lon="3.69492">
        <ele>4.85</ele>
        <time>2019-06-01T09:16:22.000Z</time>
      </trkpt>
      <trkpt lat="43.39503" lon="3.6952">
        <ele>4.61</ele>
        <time>2019-06-01T09:16:27.000Z</time>
      </trkpt>
      <trkpt lat="43.39508" lon="3.69544">
        <ele>4.8</ele>
        <time>2019-06-01T09:16:32.000Z</time>
      </trkpt>
      <trkpt lat="43.39509" lon="3.69564">
        <ele>4.8</ele>
        <time>2019-06-01T09:16:37.000Z</time>
      </trkpt>
      <trkpt lat="43.39512" lon="3.69585">
        <ele>4.8</ele>
        <time>2019-06-01T09:16:42.000Z</time>
      </trkpt>
      <trkpt lat="43.39515" lon="3.69606">
        <ele>4.75</ele>
        <time>2019-06-01T09:16:47.000Z</time>
      </trkpt>
      <trkpt lat="43.39519" lon="3.69627">
        <ele>4.03</ele>
        <time>2019-06-01T09:16:52.000Z</time>
      </trkpt>
      <trkpt lat="43.39522" lon="3.69645">
        <ele>2.81</ele>
        <time>2019-06-01T09:16:57.000Z</time>
      </trkpt>
      <trkpt lat="43.39524" lon="3.69665">
        <ele>3.73</ele>
        <time>2019-06-01T09:17:02.000Z</time>
      </trkpt>
      <trkpt lat="43.39526" lon="3.69684">
        <ele>3.81</ele>
        <time>2019-06-01T09:17:07.000Z</time>
      </trkpt>
      <trkpt lat="43.39529" lon="3.69704">
        <ele>3.8</ele>
        <time>2019-06-01T09:17:12.000Z</time>
      </trkpt>
      <trkpt lat="43.39532" lon="3.69724">
        <ele>2.86</ele>
        <time>2019-06-01T09:17:17.000Z</time>
      </trkpt>
      <trkpt lat="43.39537" lon="3.69743">
        <ele>3.8</ele>
        <time>2019-06-01T09:17:22.000Z</time>
      </trkpt>
      <trkpt lat="43.3954" lon="3.6976">
        <ele>3.8</ele>
        <time>2019-06-01T09:17:27.000Z</time>
      </trkpt>
      <trkpt lat="43.39543" lon="3.69778">
        <ele>3.8</ele>
        <time>2019-06-01T09:17:32.000Z</time>
      </trkpt>
      <trkpt lat="43.39546" lon="3.69796">
        <ele>3.8</ele>
        <time>2019-06-01T09:17:37.000Z</time>
      </trkpt>
      <trkpt lat="43.39552" lon="3.69812">
        <ele>4.79</ele>
        <time>2019-06-01T09:17:42.000Z</time>
      </trkpt>
      <trkpt lat="43.39558" lon="3.69826">
        <ele>5.79</ele>
        <time>2019-06-01T09:17:47.000Z</time>
      </trkpt>
      <trkpt lat="43.3956" lon="3.69842">
        <ele>3.05</ele>
        <time>2019-06-01T09:17:52.000Z</time>
      </trkpt>
      <trkpt lat="43.39564" lon="3.69863">
        <ele>2.8</ele>
        <time>2019-06-01T09:17:57.000Z</time>
      </trkpt>
      <trkpt lat="43.39569" lon="3.69891">
        <ele>2.8</ele>
        <time>2019-06-01T09:18:02.000Z</time>
      </trkpt>
      <trkpt lat="43.39572" lon="3.69915">
        <ele>1.09</ele>
        <time>2019-06-01T09:18:07.000Z</time>
      </trkpt>
      <trkpt lat="43.39574" lon="3.69937">
        <ele>1.6</ele>
        <time>2019-06-01T09:18:12.000Z</time>
      </trkpt>
      <trkpt lat="43.39578" lon="3.69955">
        <ele>2.55</ele>
        <time>2019-06-01T09:18:17.000Z</time>
      </trkpt>
      <trkpt lat="43.39581" lon="3.69973">
        <ele>1.8</ele>
        <time>2019-06-01T09:18:22.000Z</time>
      </trkpt>
      <trkpt lat="43.39584" lon="3.69993">
        <ele>1.8</ele>
        <time>2019-06-01T09:18:27.000Z</time>
      </trkpt>
      <trkpt lat="43.39586" lon="3.70011">
        <ele>2.55</ele>
        <time>2019-06-01T09:18:32.000Z</time>
      </trkpt>
      <trkpt lat="43.39589" lon="3.70029">
        <ele>4.79</ele>
        <time>2019-06-01T09:18:37.000Z</time>
      </trkpt>
      <trkpt lat="43.3959" lon="3.70046">
        <ele>6.73</ele>
        <time>2019-06-01T09:18:42.000Z</time>
      </trkpt>
      <trkpt lat="43.39587" lon="3.70063">
        <ele>5.05</ele>
        <time>2019-06-01T09:18:47.000Z</time>
      </trkpt>
      <trkpt lat="43.39587" lon="3.70077">
        <ele>4.81</ele>
        <time>2019-06-01T09:18:52.000Z</time>
      </trkpt>
      <trkpt lat="43.39589" lon="3.70095">
        <ele>4.8</ele>
        <time>2019-06-01T09:18:57.000Z</time>
      </trkpt>
      <trkpt lat="43.39595" lon="3.70111">
        <ele>4.8</ele>
        <time>2019-06-01T09:19:02.000Z</time>
      </trkpt>
      <trkpt lat="43.39605" lon="3.70124">
        <ele>5.03</ele>
        <time>2019-06-01T09:19:07.000Z</time>
      </trkpt>
      <trkpt lat="43.39618" lon="3.70134">
        <ele>5.74</ele>
        <time>2019-06-01T09:19:12.000Z</time>
      </trkpt>
      <trkpt lat="43.39627" lon="3.70146">
        <ele>4.8</ele>
        <time>2019-06-01T09:19:17.000Z</time>
      </trkpt>
      <trkpt lat="43.39637" lon="3.70154">
        <ele>4.8</ele>
        <time>2019-06-01T09:19:22.000Z</time>
      </trkpt>
      <trkpt lat="43.39643" lon="3.70145">
        <ele>2.06</ele>
        <time>2019-06-01T09:22:24.000Z</time>
      </trkpt>
      <trkpt lat="43.39636" lon="3.70154">
        <ele>1.8</ele>
        <time>2019-06-01T09:22:52.000Z</time>
      </trkpt>
      <trkpt lat="43.39641" lon="3.70143">
        <ele>4.8</ele>
        <time>2019-06-01T09:23:42.000Z</time>
      </trkpt>
      <trkpt lat="43.39633" lon="3.70138">
        <ele>5.8</ele>
        <time>2019-06-01T09:23:57.000Z</time>
      </trkpt>
      <trkpt lat="43.39624" lon="3.70129">
        <ele>5.05</ele>
        <time>2019-06-01T09:24:02.000Z</time>
      </trkpt>
      <trkpt lat="43.39615" lon="3.70122">
        <ele>4.66</ele>
        <time>2019-06-01T09:24:07.000Z</time>
      </trkpt>
      <trkpt lat="43.39606" lon="3.70115">
        <ele>5.84</ele>
        <time>2019-06-01T09:24:12.000Z</time>
      </trkpt>
      <trkpt lat="43.39599" lon="3.70104">
        <ele>5.8</ele>
        <time>2019-06-01T09:24:17.000Z</time>
      </trkpt>
      <trkpt lat="43.39592" lon="3.70092">
        <ele>6.8</ele>
        <time>2019-06-01T09:24:23.000Z</time>
      </trkpt>
      <trkpt lat="43.39588" lon="3.70078">
        <ele>6.8</ele>
        <time>2019-06-01T09:24:28.000Z</time>
      </trkpt>
      <trkpt lat="43.39584" lon="3.70062">
        <ele>6.8</ele>
        <time>2019-06-01T09:24:33.000Z</time>
      </trkpt>
      <trkpt lat="43.3958" lon="3.70046">
        <ele>5.8</ele>
        <time>2019-06-01T09:24:38.000Z</time>
      </trkpt>
      <trkpt lat="43.39578" lon="3.70027">
        <ele>4.85</ele>
        <time>2019-06-01T09:24:43.000Z</time>
      </trkpt>
      <trkpt lat="43.39575" lon="3.7001">
        <ele>4.8</ele>
        <time>2019-06-01T09:24:48.000Z</time>
      </trkpt>
      <trkpt lat="43.39573" lon="3.69993">
        <ele>3.86</ele>
        <time>2019-06-01T09:24:53.000Z</time>
      </trkpt>
      <trkpt lat="43.3957" lon="3.69977">
        <ele>2.87</ele>
        <time>2019-06-01T09:24:58.000Z</time>
      </trkpt>
      <trkpt lat="43.39568" lon="3.6996">
        <ele>2.81</ele>
        <time>2019-06-01T09:25:03.000Z</time>
      </trkpt>
      <trkpt lat="43.39566" lon="3.69943">
        <ele>3.55</ele>
        <time>2019-06-01T09:25:08.000Z</time>
      </trkpt>
      <trkpt lat="43.39565" lon="3.69924">
        <ele>2.8</ele>
        <time>2019-06-01T09:25:13.000Z</time>
      </trkpt>
      <trkpt lat="43.39562" lon="3.69908">
        <ele>1.86</ele>
        <time>2019-06-01T09:25:18.000Z</time>
      </trkpt>
      <trkpt lat="43.3956" lon="3.69891">
        <ele>2.55</ele>
        <time>2019-06-01T09:25:23.000Z</time>
      </trkpt>
      <trkpt lat="43.39557" lon="3.69872">
        <ele>2.78</ele>
        <time>2019-06-01T09:25:28.000Z</time>
      </trkpt>
      <trkpt lat="43.39555" lon="3.69858">
        <ele>3.04</ele>
        <time>2019-06-01T09:25:33.000Z</time>
      </trkpt>
      <trkpt lat="43.39551" lon="3.6984">
        <ele>3.8</ele>
        <time>2019-06-01T09:25:38.000Z</time>
      </trkpt>
      <trkpt lat="43.39548" lon="3.69821">
        <ele>4.05</ele>
        <time>2019-06-01T09:25:43.000Z</time>
      </trkpt>
      <trkpt lat="43.39546" lon="3.69805">
        <ele>4.79</ele>
        <time>2019-06-01T09:25:48.000Z</time>
      </trkpt>
      <trkpt lat="43.39544" lon="3.69789">
        <ele>4.8</ele>
        <time>2019-06-01T09:25:53.000Z</time>
      </trkpt>
      <trkpt lat="43.39542" lon="3.69772">
        <ele>5.8</ele>
        <time>2019-06-01T09:25:58.000Z</time>
      </trkpt>
      <trkpt lat="43.3954" lon="3.69757">
        <ele>5.04</ele>
        <time>2019-06-01T09:26:03.000Z</time>
      </trkpt>
      <trkpt lat="43.39538" lon="3.69742">
        <ele>5.8</ele>
        <time>2019-06-01T09:26:08.000Z</time>
      </trkpt>
      <trkpt lat="43.39537" lon="3.69729">
        <ele>5.05</ele>
        <time>2019-06-01T09:26:13.000Z</time>
      </trkpt>
      <trkpt lat="43.39533" lon="3.69716">
        <ele>3.8</ele>
        <time>2019-06-01T09:26:22.000Z</time>
      </trkpt>
      <trkpt lat="43.39531" lon="3.69704">
        <ele>4.78</ele>
        <time>2019-06-01T09:26:27.000Z</time>
      </trkpt>
      <trkpt lat="43.3953" lon="3.6969">
        <ele>4.8</ele>
        <time>2019-06-01T09:26:32.000Z</time>
      </trkpt>
      <trkpt lat="43.39528" lon="3.69675">
        <ele>4.8</ele>
        <time>2019-06-01T09:26:37.000Z</time>
      </trkpt>
      <trkpt lat="43.39526" lon="3.69661">
        <ele>5.79</ele>
        <time>2019-06-01T09:26:42.000Z</time>
      </trkpt>
      <trkpt lat="43.39525" lon="3.69646">
        <ele>5.84</ele>
        <time>2019-06-01T09:26:47.000Z</time>
      </trkpt>
      <trkpt lat="43.39521" lon="3.69634">
        <ele>4.81</ele>
        <time>2019-06-01T09:26:52.000Z</time>
      </trkpt>
      <trkpt lat="43.39517" lon="3.69622">
        <ele>5.79</ele>
        <time>2019-06-01T09:27:18.000Z</time>
      </trkpt>
      <trkpt lat="43.39516" lon="3.69608">
        <ele>4.55</ele>
        <time>2019-06-01T09:27:23.000Z</time>
      </trkpt>
      <trkpt lat="43.39517" lon="3.69595">
        <ele>4.78</ele>
        <time>2019-06-01T09:27:28.000Z</time>
      </trkpt>
      <trkpt lat="43.39516" lon="3.69581">
        <ele>4.8</ele>
        <time>2019-06-01T09:27:34.000Z</time>
      </trkpt>
      <trkpt lat="43.39513" lon="3.69567">
        <ele>5.8</ele>
        <time>2019-06-01T09:27:48.000Z</time>
      </trkpt>
      <trkpt lat="43.39511" lon="3.69554">
        <ele>4.86</ele>
        <time>2019-06-01T09:27:54.000Z</time>
      </trkpt>
      <trkpt lat="43.39508" lon="3.69541">
        <ele>4.8</ele>
        <time>2019-06-01T09:28:00.000Z</time>
      </trkpt>
      <trkpt lat="43.39507" lon="3.69528">
        <ele>6.03</ele>
        <time>2019-06-01T09:28:05.000Z</time>
      </trkpt>
      <trkpt lat="43.39508" lon="3.69515">
        <ele>5.8</ele>
        <time>2019-06-01T09:28:10.000Z</time>
      </trkpt>
      <trkpt lat="43.39516" lon="3.69504">
        <ele>5.8</ele>
        <time>2019-06-01T09:28:15.000Z</time>
      </trkpt>
      <trkpt lat="43.39526" lon="3.69489">
        <ele>6.79</ele>
        <time>2019-06-01T09:28:20.000Z</time>
      </trkpt>
      <trkpt lat="43.3952" lon="3.6947">
        <ele>6.75</ele>
        <time>2019-06-01T09:28:25.000Z</time>
      </trkpt>
      <trkpt lat="43.39502" lon="3.69462">
        <ele>6.8</ele>
        <time>2019-06-01T09:28:30.000Z</time>
      </trkpt>
      <trkpt lat="43.39491" lon="3.69439">
        <ele>5.8</ele>
        <time>2019-06-01T09:28:35.000Z</time>
      </trkpt>
      <trkpt lat="43.39481" lon="3.69412">
        <ele>5.79</ele>
        <time>2019-06-01T09:28:40.000Z</time>
      </trkpt>
      <trkpt lat="43.39471" lon="3.69405">
        <ele>4.81</ele>
        <time>2019-06-01T09:28:45.000Z</time>
      </trkpt>
      <trkpt lat="43.3947" lon="3.6939">
        <ele>5.8</ele>
        <time>2019-06-01T09:28:56.000Z</time>
      </trkpt>
      <trkpt lat="43.39464" lon="3.69374">
        <ele>5.8</ele>
        <time>2019-06-01T09:29:01.000Z</time>
      </trkpt>
      <trkpt lat="43.39458" lon="3.69357">
        <ele>5.8</ele>
        <time>2019-06-01T09:29:06.000Z</time>
      </trkpt>
      <trkpt lat="43.39453" lon="3.6934">
        <ele>5.8</ele>
        <time>2019-06-01T09:29:11.000Z</time>
      </trkpt>
      <trkpt lat="43.39445" lon="3.69318">
        <ele>6.79</ele>
        <time>2019-06-01T09:29:16.000Z</time>
      </trkpt>
      <trkpt lat="43.39437" lon="3.69294">
        <ele>7.78</ele>
        <time>2019-06-01T09:29:21.000Z</time>
      </trkpt>
      <trkpt lat="43.39428" lon="3.69271">
        <ele>7.55</ele>
        <time>2019-06-01T09:29:26.000Z</time>
      </trkpt>
      <trkpt lat="43.3942" lon="3.69256">
        <ele>7.8</ele>
        <time>2019-06-01T09:29:31.000Z</time>
      </trkpt>
      <trkpt lat="43.39414" lon="3.69246">
        <ele>7.05</ele>
        <time>2019-06-01T09:29:37.000Z</time>
      </trkpt>
      <trkpt lat="43.39407" lon="3.69236">
        <ele>7.8</ele>
        <time>2019-06-01T09:29:45.000Z</time>
      </trkpt>
      <trkpt lat="43.39398" lon="3.69229">
        <ele>8.79</ele>
        <time>2019-06-01T09:29:51.000Z</time>
      </trkpt>
      <trkpt lat="43.3938" lon="3.6922">
        <ele>10.73</ele>
        <time>2019-06-01T09:29:56.000Z</time>
      </trkpt>
      <trkpt lat="43.3936" lon="3.69206">
        <ele>11.79</ele>
        <time>2019-06-01T09:30:01.000Z</time>
      </trkpt>
      <trkpt lat="43.39341" lon="3.6919">
        <ele>14.48</ele>
        <time>2019-06-01T09:30:06.000Z</time>
      </trkpt>
      <trkpt lat="43.39329" lon="3.69181">
        <ele>19.4</ele>
        <time>2019-06-01T09:30:11.000Z</time>
      </trkpt>
      <trkpt lat="43.39314" lon="3.69172">
        <ele>15.14</ele>
        <time>2019-06-01T09:30:16.000Z</time>
      </trkpt>
      <trkpt lat="43.393" lon="3.69159">
        <ele>15.8</ele>
        <time>2019-06-01T09:30:21.000Z</time>
      </trkpt>
      <trkpt lat="43.39289" lon="3.6914">
        <ele>12.86</ele>
        <time>2019-06-01T09:30:26.000Z</time>
      </trkpt>
      <trkpt lat="43.39274" lon="3.69128">
        <ele>11.55</ele>
        <time>2019-06-01T09:30:31.000Z</time>
      </trkpt>
      <trkpt lat="43.39263" lon="3.69146">
        <ele>13.78</ele>
        <time>2019-06-01T09:30:36.000Z</time>
      </trkpt>
      <trkpt lat="43.39269" lon="3.69166">
        <ele>12.86</ele>
        <time>2019-06-01T09:30:41.000Z</time>
      </trkpt>
      <trkpt lat="43.39267" lon="3.69154">
        <ele>8.78</ele>
        <time>2019-06-01T09:36:21.000Z</time>
      </trkpt>
      <trkpt lat="43.39266" lon="3.69141">
        <ele>8.8</ele>
        <time>2019-06-01T09:36:26.000Z</time>
      </trkpt>
      <trkpt lat="43.39264" lon="3.69129">
        <ele>8.8</ele>
        <time>2019-06-01T09:36:31.000Z</time>
      </trkpt>
      <trkpt lat="43.3926" lon="3.69114">
        <ele>8.85</ele>
        <time>2019-06-01T09:36:36.000Z</time>
      </trkpt>
      <trkpt lat="43.39258" lon="3.69099">
        <ele>9.8</ele>
        <time>2019-06-01T09:36:41.000Z</time>
      </trkpt>
      <trkpt lat="43.39255" lon="3.69114">
        <ele>8.61</ele>
        <time>2019-06-01T09:36:50.000Z</time>
      </trkpt>
      <trkpt lat="43.39264" lon="3.69133">
        <ele>8.8</ele>
        <time>2019-06-01T09:36:55.000Z</time>
      </trkpt>
      <trkpt lat="43.39264" lon="3.69148">
        <ele>9.78</ele>
        <time>2019-06-01T09:37:00.000Z</time>
      </trkpt>
      <trkpt lat="43.39251" lon="3.6914">
        <ele>10.8</ele>
        <time>2019-06-01T09:37:05.000Z</time>
      </trkpt>
      <trkpt lat="43.39242" lon="3.69117">
        <ele>10.86</ele>
        <time>2019-06-01T09:37:10.000Z</time>
      </trkpt>
      <trkpt lat="43.39243" lon="3.69103">
        <ele>10.8</ele>
        <time>2019-06-01T09:37:15.000Z</time>
      </trkpt>
      <trkpt lat="43.39246" lon="3.69088">
        <ele>10.8</ele>
        <time>2019-06-01T09:37:21.000Z</time>
      </trkpt>
      <trkpt lat="43.39246" lon="3.69072">
        <ele>10.81</ele>
        <time>2019-06-01T09:37:26.000Z</time>
      </trkpt>
      <trkpt lat="43.39255" lon="3.69077">
        <ele>9.56</ele>
        <time>2019-06-01T09:37:50.000Z</time>
      </trkpt>
      <trkpt lat="43.3926" lon="3.69096">
        <ele>9.78</ele>
        <time>2019-06-01T09:37:55.000Z</time>
      </trkpt>
      <trkpt lat="43.39267" lon="3.69113">
        <ele>8.81</ele>
        <time>2019-06-01T09:38:00.000Z</time>
      </trkpt>
      <trkpt lat="43.39274" lon="3.69129">
        <ele>8.8</ele>
        <time>2019-06-01T09:38:05.000Z</time>
      </trkpt>
      <trkpt lat="43.39286" lon="3.69146">
        <ele>8.98</ele>
        <time>2019-06-01T09:38:10.000Z</time>
      </trkpt>
      <trkpt lat="43.39294" lon="3.69164">
        <ele>8.8</ele>
        <time>2019-06-01T09:38:15.000Z</time>
      </trkpt>
      <trkpt lat="43.39306" lon="3.69177">
        <ele>7.81</ele>
        <time>2019-06-01T09:38:20.000Z</time>
      </trkpt>
      <trkpt lat="43.39323" lon="3.6919">
        <ele>7.8</ele>
        <time>2019-06-01T09:38:25.000Z</time>
      </trkpt>
      <trkpt lat="43.39344" lon="3.69202">
        <ele>9.73</ele>
        <time>2019-06-01T09:38:30.000Z</time>
      </trkpt>
      <trkpt lat="43.39365" lon="3.6922">
        <ele>12.54</ele>
        <time>2019-06-01T09:38:35.000Z</time>
      </trkpt>
      <trkpt lat="43.39388" lon="3.69232">
        <ele>17.34</ele>
        <time>2019-06-01T09:38:40.000Z</time>
      </trkpt>
      <trkpt lat="43.3941" lon="3.69244">
        <ele>17.09</ele>
        <time>2019-06-01T09:38:45.000Z</time>
      </trkpt>
      <trkpt lat="43.39423" lon="3.69258">
        <ele>14.3</ele>
        <time>2019-06-01T09:38:50.000Z</time>
      </trkpt>
      <trkpt lat="43.39433" lon="3.69282">
        <ele>12.58</ele>
        <time>2019-06-01T09:38:55.000Z</time>
      </trkpt>
      <trkpt lat="43.39443" lon="3.69309">
        <ele>12.05</ele>
        <time>2019-06-01T09:39:00.000Z</time>
      </trkpt>
      <trkpt lat="43.39451" lon="3.69337">
        <ele>9.86</ele>
        <time>2019-06-01T09:39:05.000Z</time>
      </trkpt>
      <trkpt lat="43.3946" lon="3.69364">
        <ele>9.8</ele>
        <time>2019-06-01T09:39:10.000Z</time>
      </trkpt>
      <trkpt lat="43.39469" lon="3.69391">
        <ele>10.79</ele>
        <time>2019-06-01T09:39:15.000Z</time>
      </trkpt>
      <trkpt lat="43.39478" lon="3.69416">
        <ele>8.82</ele>
        <time>2019-06-01T09:39:20.000Z</time>
      </trkpt>
      <trkpt lat="43.39482" lon="3.6943">
        <ele>7.8</ele>
        <time>2019-06-01T09:39:25.000Z</time>
      </trkpt>
      <trkpt lat="43.39485" lon="3.69442">
        <ele>8.61</ele>
        <time>2019-06-01T09:39:44.000Z</time>
      </trkpt>
      <trkpt lat="43.39488" lon="3.69454">
        <ele>7.81</ele>
        <time>2019-06-01T09:39:57.000Z</time>
      </trkpt>
      <trkpt lat="43.39493" lon="3.69467">
        <ele>8.8</ele>
        <time>2019-06-01T09:40:03.000Z</time>
      </trkpt>
      <trkpt lat="43.39498" lon="3.69477">
        <ele>7.8</ele>
        <time>2019-06-01T09:40:17.000Z</time>
      </trkpt>
      <trkpt lat="43.39501" lon="3.69489">
        <ele>7.05</ele>
        <time>2019-06-01T09:40:25.000Z</time>
      </trkpt>
      <trkpt lat="43.39513" lon="3.69507">
        <ele>7.79</ele>
        <time>2019-06-01T09:40:30.000Z</time>
      </trkpt>
      <trkpt lat="43.39537" lon="3.69501">
        <ele>6.8</ele>
        <time>2019-06-01T09:40:35.000Z</time>
      </trkpt>
      <trkpt lat="43.39561" lon="3.69504">
        <ele>6.8</ele>
        <time>2019-06-01T09:40:40.000Z</time>
      </trkpt>
      <trkpt lat="43.39572" lon="3.69508">
        <ele>7.54</ele>
        <time>2019-06-01T09:40:45.000Z</time>
      </trkpt>
      <trkpt lat="43.39568" lon="3.69494">
        <ele>1.72</ele>
        <time>2019-06-01T09:41:55.000Z</time>
      </trkpt>
      <trkpt lat="43.39548" lon="3.69487">
        <ele>3.73</ele>
        <time>2019-06-01T09:42:00.000Z</time>
      </trkpt>
      <trkpt lat="43.39528" lon="3.69474">
        <ele>5.54</ele>
        <time>2019-06-01T09:42:05.000Z</time>
      </trkpt>
      <trkpt lat="43.39514" lon="3.6945">
        <ele>6.79</ele>
        <time>2019-06-01T09:42:10.000Z</time>
      </trkpt>
      <trkpt lat="43.39501" lon="3.69428">
        <ele>7.81</ele>
        <time>2019-06-01T09:42:15.000Z</time>
      </trkpt>
      <trkpt lat="43.39495" lon="3.69404">
        <ele>8.73</ele>
        <time>2019-06-01T09:42:20.000Z</time>
      </trkpt>
      <trkpt lat="43.39491" lon="3.69387">
        <ele>9.55</ele>
        <time>2019-06-01T09:42:25.000Z</time>
      </trkpt>
      <trkpt lat="43.39487" lon="3.6937">
        <ele>10.79</ele>
        <time>2019-06-01T09:42:30.000Z</time>
      </trkpt>
      <trkpt lat="43.39483" lon="3.69354">
        <ele>12.54</ele>
        <time>2019-06-01T09:42:35.000Z</time>
      </trkpt>
      <trkpt lat="43.3948" lon="3.69337">
        <ele>13.79</ele>
        <time>2019-06-01T09:42:40.000Z</time>
      </trkpt>
      <trkpt lat="43.39476" lon="3.6932">
        <ele>14.75</ele>
        <time>2019-06-01T09:42:45.000Z</time>
      </trkpt>
      <trkpt lat="43.39473" lon="3.69306">
        <ele>15.75</ele>
        <time>2019-06-01T09:42:50.000Z</time>
      </trkpt>
      <trkpt lat="43.39468" lon="3.6929">
        <ele>17.54</ele>
        <time>2019-06-01T09:42:55.000Z</time>
      </trkpt>
      <trkpt lat="43.39462" lon="3.69276">
        <ele>18.79</ele>
        <time>2019-06-01T09:43:00.000Z</time>
      </trkpt>
      <trkpt lat="43.39455" lon="3.69265">
        <ele>20.78</ele>
        <time>2019-06-01T09:43:05.000Z</time>
      </trkpt>
      <trkpt lat="43.39443" lon="3.69255">
        <ele>22.79</ele>
        <time>2019-06-01T09:43:10.000Z</time>
      </trkpt>
      <trkpt lat="43.39435" lon="3.69249">
        <ele>25.54</ele>
        <time>2019-06-01T09:43:15.000Z</time>
      </trkpt>
      <trkpt lat="43.39444" lon="3.69246">
        <ele>26.78</ele>
        <time>2019-06-01T09:43:25.000Z</time>
      </trkpt>
      <trkpt lat="43.39454" lon="3.69255">
        <ele>27.98</ele>
        <time>2019-06-01T09:43:30.000Z</time>
      </trkpt>
      <trkpt lat="43.39465" lon="3.69262">
        <ele>29.73</ele>
        <time>2019-06-01T09:43:35.000Z</time>
      </trkpt>
      <trkpt lat="43.39475" lon="3.69268">
        <ele>30.73</ele>
        <time>2019-06-01T09:43:40.000Z</time>
      </trkpt>
      <trkpt lat="43.39486" lon="3.69276">
        <ele>31.79</ele>
        <time>2019-06-01T09:43:45.000Z</time>
      </trkpt>
      <trkpt lat="43.39497" lon="3.69285">
        <ele>32.54</ele>
        <time>2019-06-01T09:43:50.000Z</time>
      </trkpt>
      <trkpt lat="43.39508" lon="3.69294">
        <ele>33.78</ele>
        <time>2019-06-01T09:43:55.000Z</time>
      </trkpt>
      <trkpt lat="43.3952" lon="3.69304">
        <ele>33.79</ele>
        <time>2019-06-01T09:44:00.000Z</time>
      </trkpt>
      <trkpt lat="43.39529" lon="3.69312">
        <ele>33.04</ele>
        <time>2019-06-01T09:44:05.000Z</time>
      </trkpt>
      <trkpt lat="43.39538" lon="3.69311">
        <ele>33.79</ele>
        <time>2019-06-01T09:45:18.000Z</time>
      </trkpt>
      <trkpt lat="43.39549" lon="3.69298">
        <ele>34.03</ele>
        <time>2019-06-01T09:45:23.000Z</time>
      </trkpt>
      <trkpt lat="43.39558" lon="3.69286">
        <ele>36.48</ele>
        <time>2019-06-01T09:45:28.000Z</time>
      </trkpt>
      <trkpt lat="43.39567" lon="3.69274">
        <ele>39.71</ele>
        <time>2019-06-01T09:45:33.000Z</time>
      </trkpt>
      <trkpt lat="43.39573" lon="3.69259">
        <ele>41.78</ele>
        <time>2019-06-01T09:45:38.000Z</time>
      </trkpt>
      <trkpt lat="43.39576" lon="3.69245">
        <ele>44.78</ele>
        <time>2019-06-01T09:45:43.000Z</time>
      </trkpt>
      <trkpt lat="43.39578" lon="3.69231">
        <ele>46.78</ele>
        <time>2019-06-01T09:45:48.000Z</time>
      </trkpt>
      <trkpt lat="43.39588" lon="3.69227">
        <ele>47.55</ele>
        <time>2019-06-01T09:45:54.000Z</time>
      </trkpt>
      <trkpt lat="43.39598" lon="3.69227">
        <ele>49.78</ele>
        <time>2019-06-01T09:46:00.000Z</time>
      </trkpt>
      <trkpt lat="43.39606" lon="3.69235">
        <ele>50.53</ele>
        <time>2019-06-01T09:46:06.000Z</time>
      </trkpt>
      <trkpt lat="43.39614" lon="3.69242">
        <ele>51.79</ele>
        <time>2019-06-01T09:46:11.000Z</time>
      </trkpt>
      <trkpt lat="43.39622" lon="3.69251">
        <ele>53.78</ele>
        <time>2019-06-01T09:46:16.000Z</time>
      </trkpt>
      <trkpt lat="43.3963" lon="3.6926">
        <ele>54.79</ele>
        <time>2019-06-01T09:46:21.000Z</time>
      </trkpt>
      <trkpt lat="43.39638" lon="3.69269">
        <ele>56.54</ele>
        <time>2019-06-01T09:46:26.000Z</time>
      </trkpt>
      <trkpt lat="43.39646" lon="3.69278">
        <ele>57.78</ele>
        <time>2019-06-01T09:46:31.000Z</time>
      </trkpt>
      <trkpt lat="43.39652" lon="3.69289">
        <ele>57.73</ele>
        <time>2019-06-01T09:46:36.000Z</time>
      </trkpt>
      <trkpt lat="43.39661" lon="3.69298">
        <ele>57.79</ele>
        <time>2019-06-01T09:46:41.000Z</time>
      </trkpt>
      <trkpt lat="43.3967" lon="3.69306">
        <ele>57.79</ele>
        <time>2019-06-01T09:46:46.000Z</time>
      </trkpt>
      <trkpt lat="43.3968" lon="3.69312">
        <ele>59.73</ele>
        <time>2019-06-01T09:46:51.000Z</time>
      </trkpt>
      <trkpt lat="43.39691" lon="3.69317">
        <ele>59.79</ele>
        <time>2019-06-01T09:46:56.000Z</time>
      </trkpt>
      <trkpt lat="43.39701" lon="3.69321">
        <ele>60.79</ele>
        <time>2019-06-01T09:47:01.000Z</time>
      </trkpt>
      <trkpt lat="43.39711" lon="3.69325">
        <ele>61.54</ele>
        <time>2019-06-01T09:47:06.000Z</time>
      </trkpt>
      <trkpt lat="43.39723" lon="3.69329">
        <ele>61.79</ele>
        <time>2019-06-01T09:47:11.000Z</time>
      </trkpt>
      <trkpt lat="43.3974" lon="3.69333">
        <ele>61.79</ele>
        <time>2019-06-01T09:47:16.000Z</time>
      </trkpt>
      <trkpt lat="43.39764" lon="3.69336">
        <ele>61.8</ele>
        <time>2019-06-01T09:47:21.000Z</time>
      </trkpt>
      <trkpt lat="43.39783" lon="3.69324">
        <ele>61.79</ele>
        <time>2019-06-01T09:47:26.000Z</time>
      </trkpt>
      <trkpt lat="43.39793" lon="3.69305">
        <ele>63.53</ele>
        <time>2019-06-01T09:47:31.000Z</time>
      </trkpt>
      <trkpt lat="43.39799" lon="3.69287">
        <ele>64.79</ele>
        <time>2019-06-01T09:47:36.000Z</time>
      </trkpt>
      <trkpt lat="43.39802" lon="3.69269">
        <ele>64.79</ele>
        <time>2019-06-01T09:47:41.000Z</time>
      </trkpt>
      <trkpt lat="43.398" lon="3.69255">
        <ele>66.54</ele>
        <time>2019-06-01T09:47:46.000Z</time>
      </trkpt>
      <trkpt lat="43.39798" lon="3.69242">
        <ele>66.79</ele>
        <time>2019-06-01T09:47:51.000Z</time>
      </trkpt>
      <trkpt lat="43.39796" lon="3.69228">
        <ele>68.72</ele>
        <time>2019-06-01T09:47:56.000Z</time>
      </trkpt>
      <trkpt lat="43.39794" lon="3.69216">
        <ele>70.77</ele>
        <time>2019-06-01T09:48:01.000Z</time>
      </trkpt>
      <trkpt lat="43.39792" lon="3.69203">
        <ele>72.77</ele>
        <time>2019-06-01T09:48:06.000Z</time>
      </trkpt>
      <trkpt lat="43.3979" lon="3.69188">
        <ele>74.73</ele>
        <time>2019-06-01T09:48:12.000Z</time>
      </trkpt>
      <trkpt lat="43.39786" lon="3.69175">
        <ele>75.6</ele>
        <time>2019-06-01T09:48:18.000Z</time>
      </trkpt>
      <trkpt lat="43.39786" lon="3.69162">
        <ele>77.54</ele>
        <time>2019-06-01T09:48:25.000Z</time>
      </trkpt>
      <trkpt lat="43.39782" lon="3.6915">
        <ele>78.79</ele>
        <time>2019-06-01T09:50:26.000Z</time>
      </trkpt>
      <trkpt lat="43.39785" lon="3.69137">
        <ele>81.72</ele>
        <time>2019-06-01T09:50:31.000Z</time>
      </trkpt>
      <trkpt lat="43.39787" lon="3.69124">
        <ele>82.55</ele>
        <time>2019-06-01T09:50:36.000Z</time>
      </trkpt>
      <trkpt lat="43.39787" lon="3.69111">
        <ele>82.79</ele>
        <time>2019-06-01T09:50:41.000Z</time>
      </trkpt>
      <trkpt lat="43.39781" lon="3.691">
        <ele>84.73</ele>
        <time>2019-06-01T09:50:46.000Z</time>
      </trkpt>
      <trkpt lat="43.39774" lon="3.6909">
        <ele>87.72</ele>
        <time>2019-06-01T09:50:52.000Z</time>
      </trkpt>
      <trkpt lat="43.39765" lon="3.6908">
        <ele>89.54</ele>
        <time>2019-06-01T09:50:58.000Z</time>
      </trkpt>
      <trkpt lat="43.39758" lon="3.6907">
        <ele>91.72</ele>
        <time>2019-06-01T09:51:04.000Z</time>
      </trkpt>
      <trkpt lat="43.39761" lon="3.69057">
        <ele>92.77</ele>
        <time>2019-06-01T09:51:09.000Z</time>
      </trkpt>
      <trkpt lat="43.39765" lon="3.69043">
        <ele>95.52</ele>
        <time>2019-06-01T09:51:15.000Z</time>
      </trkpt>
      <trkpt lat="43.39768" lon="3.6903">
        <ele>96.73</ele>
        <time>2019-06-01T09:51:21.000Z</time>
      </trkpt>
      <trkpt lat="43.39772" lon="3.69018">
        <ele>99.52</ele>
        <time>2019-06-01T09:51:27.000Z</time>
      </trkpt>
      <trkpt lat="43.39779" lon="3.69007">
        <ele>100.77</ele>
        <time>2019-06-01T09:51:33.000Z</time>
      </trkpt>
      <trkpt lat="43.39789" lon="3.69002">
        <ele>103.72</ele>
        <time>2019-06-01T09:51:39.000Z</time>
      </trkpt>
      <trkpt lat="43.39799" lon="3.68999">
        <ele>106.48</ele>
        <time>2019-06-01T09:51:45.000Z</time>
      </trkpt>
      <trkpt lat="43.3981" lon="3.68996">
        <ele>106.79</ele>
        <time>2019-06-01T09:51:51.000Z</time>
      </trkpt>
      <trkpt lat="43.39818" lon="3.68989">
        <ele>103.54</ele>
        <time>2019-06-01T09:54:55.000Z</time>
      </trkpt>
      <trkpt lat="43.39822" lon="3.68977">
        <ele>104.78</ele>
        <time>2019-06-01T09:55:00.000Z</time>
      </trkpt>
      <trkpt lat="43.39827" lon="3.68967">
        <ele>106.53</ele>
        <time>2019-06-01T09:55:05.000Z</time>
      </trkpt>
      <trkpt lat="43.39833" lon="3.68955">
        <ele>108.72</ele>
        <time>2019-06-01T09:55:11.000Z</time>
      </trkpt>
      <trkpt lat="43.39835" lon="3.68941">
        <ele>110.53</ele>
        <time>2019-06-01T09:55:16.000Z</time>
      </trkpt>
      <trkpt lat="43.3984" lon="3.6893">
        <ele>113.53</ele>
        <time>2019-06-01T09:55:21.000Z</time>
      </trkpt>
      <trkpt lat="43.3985" lon="3.68922">
        <ele>116.52</ele>
        <time>2019-06-01T09:55:26.000Z</time>
      </trkpt>
      <trkpt lat="43.39857" lon="3.68912">
        <ele>117.54</ele>
        <time>2019-06-01T09:55:31.000Z</time>
      </trkpt>
      <trkpt lat="43.39864" lon="3.68901">
        <ele>119.72</ele>
        <time>2019-06-01T09:55:37.000Z</time>
      </trkpt>
      <trkpt lat="43.39871" lon="3.68894">
        <ele>120.79</ele>
        <time>2019-06-01T09:55:56.000Z</time>
      </trkpt>
      <trkpt lat="43.39877" lon="3.68884">
        <ele>121.54</ele>
        <time>2019-06-01T09:56:04.000Z</time>
      </trkpt>
      <trkpt lat="43.39882" lon="3.68871">
        <ele>122.04</ele>
        <time>2019-06-01T09:56:12.000Z</time>
      </trkpt>
      <trkpt lat="43.39888" lon="3.68861">
        <ele>124.78</ele>
        <time>2019-06-01T09:56:20.000Z</time>
      </trkpt>
      <trkpt lat="43.39895" lon="3.68852">
        <ele>127.72</ele>
        <time>2019-06-01T09:56:28.000Z</time>
      </trkpt>
      <trkpt lat="43.39902" lon="3.68844">
        <ele>128.79</ele>
        <time>2019-06-01T09:56:36.000Z</time>
      </trkpt>
      <trkpt lat="43.3991" lon="3.68835">
        <ele>130.77</ele>
        <time>2019-06-01T09:56:45.000Z</time>
      </trkpt>
      <trkpt lat="43.39916" lon="3.68826">
        <ele>131.79</ele>
        <time>2019-06-01T09:56:52.000Z</time>
      </trkpt>
      <trkpt lat="43.39923" lon="3.68816">
        <ele>133.77</ele>
        <time>2019-06-01T09:57:00.000Z</time>
      </trkpt>
      <trkpt lat="43.39925" lon="3.68803">
        <ele>133.54</ele>
        <time>2019-06-01T09:58:12.000Z</time>
      </trkpt>
      <trkpt lat="43.39932" lon="3.68795">
        <ele>133.78</ele>
        <time>2019-06-01T09:58:21.000Z</time>
      </trkpt>
      <trkpt lat="43.39939" lon="3.68787">
        <ele>134.79</ele>
        <time>2019-06-01T09:58:29.000Z</time>
      </trkpt>
      <trkpt lat="43.39947" lon="3.68779">
        <ele>136.78</ele>
        <time>2019-06-01T09:58:37.000Z</time>
      </trkpt>
      <trkpt lat="43.39955" lon="3.68771">
        <ele>139.53</ele>
        <time>2019-06-01T09:58:46.000Z</time>
      </trkpt>
      <trkpt lat="43.39962" lon="3.68763">
        <ele>139.79</ele>
        <time>2019-06-01T09:58:54.000Z</time>
      </trkpt>
      <trkpt lat="43.39969" lon="3.68755">
        <ele>140.79</ele>
        <time>2019-06-01T09:59:03.000Z</time>
      </trkpt>
      <trkpt lat="43.39976" lon="3.68746">
        <ele>141.77</ele>
        <time>2019-06-01T09:59:13.000Z</time>
      </trkpt>
      <trkpt lat="43.39983" lon="3.68737">
        <ele>142.77</ele>
        <time>2019-06-01T09:59:22.000Z</time>
      </trkpt>
      <trkpt lat="43.3999" lon="3.68729">
        <ele>143.77</ele>
        <time>2019-06-01T09:59:31.000Z</time>
      </trkpt>
      <trkpt lat="43.39998" lon="3.6872">
        <ele>144.78</ele>
        <time>2019-06-01T09:59:40.000Z</time>
      </trkpt>
      <trkpt lat="43.40004" lon="3.6871">
        <ele>145.78</ele>
        <time>2019-06-01T09:59:50.000Z</time>
      </trkpt>
      <trkpt lat="43.40012" lon="3.68702">
        <ele>147.72</ele>
        <time>2019-06-01T09:59:59.000Z</time>
      </trkpt>
      <trkpt lat="43.40019" lon="3.68692">
        <ele>147.77</ele>
        <time>2019-06-01T10:00:09.000Z</time>
      </trkpt>
      <trkpt lat="43.40024" lon="3.68681">
        <ele>150.52</ele>
        <time>2019-06-01T10:00:20.000Z</time>
      </trkpt>
      <trkpt lat="43.40032" lon="3.68673">
        <ele>148.6</ele>
        <time>2019-06-01T10:00:29.000Z</time>
      </trkpt>
      <trkpt lat="43.40041" lon="3.68667">
        <ele>149.78</ele>
        <time>2019-06-01T10:00:38.000Z</time>
      </trkpt>
      <trkpt lat="43.40048" lon="3.68659">
        <ele>150.8</ele>
        <time>2019-06-01T10:00:48.000Z</time>
      </trkpt>
      <trkpt lat="43.40056" lon="3.68651">
        <ele>154.77</ele>
        <time>2019-06-01T10:00:58.000Z</time>
      </trkpt>
      <trkpt lat="43.40063" lon="3.68643">
        <ele>156.77</ele>
        <time>2019-06-01T10:01:08.000Z</time>
      </trkpt>
      <trkpt lat="43.40071" lon="3.68635">
        <ele>158.77</ele>
        <time>2019-06-01T10:01:17.000Z</time>
      </trkpt>
      <trkpt lat="43.40077" lon="3.68625">
        <ele>158.78</ele>
        <time>2019-06-01T10:01:27.000Z</time>
      </trkpt>
      <trkpt lat="43.40085" lon="3.68618">
        <ele>160.53</ele>
        <time>2019-06-01T10:01:37.000Z</time>
      </trkpt>
      <trkpt lat="43.40092" lon="3.68609">
        <ele>162.77</ele>
        <time>2019-06-01T10:01:47.000Z</time>
      </trkpt>
      <trkpt lat="43.40101" lon="3.68602">
        <ele>165.77</ele>
        <time>2019-06-01T10:01:57.000Z</time>
      </trkpt>
      <trkpt lat="43.40109" lon="3.68595">
        <ele>166.79</ele>
        <time>2019-06-01T10:02:07.000Z</time>
      </trkpt>
      <trkpt lat="43.40116" lon="3.68588">
        <ele>168.53</ele>
        <time>2019-06-01T10:02:15.000Z</time>
      </trkpt>
      <trkpt lat="43.40125" lon="3.6858">
        <ele>167.78</ele>
        <time>2019-06-01T10:02:23.000Z</time>
      </trkpt>
      <trkpt lat="43.40133" lon="3.68572">
        <ele>168.78</ele>
        <time>2019-06-01T10:02:31.000Z</time>
      </trkpt>
      <trkpt lat="43.4014" lon="3.68564">
        <ele>168.78</ele>
        <time>2019-06-01T10:02:39.000Z</time>
      </trkpt>
      <trkpt lat="43.40147" lon="3.68555">
        <ele>171.72</ele>
        <time>2019-06-01T10:02:47.000Z</time>
      </trkpt>
      <trkpt lat="43.40154" lon="3.68546">
        <ele>172.71</ele>
        <time>2019-06-01T10:02:56.000Z</time>
      </trkpt>
      <trkpt lat="43.40163" lon="3.68539">
        <ele>174.72</ele>
        <time>2019-06-01T10:03:05.000Z</time>
      </trkpt>
      <trkpt lat="43.4017" lon="3.68531">
        <ele>175.53</ele>
        <time>2019-06-01T10:03:14.000Z</time>
      </trkpt>
      <trkpt lat="43.40178" lon="3.68525">
        <ele>178.53</ele>
        <time>2019-06-01T10:03:22.000Z</time>
      </trkpt>
      <trkpt lat="43.40185" lon="3.68516">
        <ele>177.78</ele>
        <time>2019-06-01T10:03:30.000Z</time>
      </trkpt>
      <trkpt lat="43.40193" lon="3.68509">
        <ele>178.77</ele>
        <time>2019-06-01T10:03:37.000Z</time>
      </trkpt>
      <trkpt lat="43.402" lon="3.685">
        <ele>178.78</ele>
        <time>2019-06-01T10:03:44.000Z</time>
      </trkpt>
      <trkpt lat="43.40208" lon="3.68493">
        <ele>179.78</ele>
        <time>2019-06-01T10:03:51.000Z</time>
      </trkpt>
      <trkpt lat="43.40218" lon="3.68488">
        <ele>179.78</ele>
        <time>2019-06-01T10:03:58.000Z</time>
      </trkpt>
      <trkpt lat="43.40223" lon="3.68499">
        <ele>179.03</ele>
        <time>2019-06-01T10:04:04.000Z</time>
      </trkpt>
      <trkpt lat="43.40221" lon="3.68512">
        <ele>179.02</ele>
        <time>2019-06-01T10:04:11.000Z</time>
      </trkpt>
      <trkpt lat="43.40224" lon="3.68525">
        <ele>178.78</ele>
        <time>2019-06-01T10:04:18.000Z</time>
      </trkpt>
      <trkpt lat="43.40228" lon="3.68537">
        <ele>177.73</ele>
        <time>2019-06-01T10:04:58.000Z</time>
      </trkpt>
      <trkpt lat="43.40221" lon="3.68545">
        <ele>178.7</ele>
        <time>2019-06-01T10:05:59.000Z</time>
      </trkpt>
      <trkpt lat="43.40221" lon="3.68559">
        <ele>178.78</ele>
        <time>2019-06-01T10:07:23.000Z</time>
      </trkpt>
      <trkpt lat="43.40213" lon="3.68568">
        <ele>176.84</ele>
        <time>2019-06-01T10:07:32.000Z</time>
      </trkpt>
      <trkpt lat="43.40205" lon="3.68574">
        <ele>175.86</ele>
        <time>2019-06-01T10:07:40.000Z</time>
      </trkpt>
      <trkpt lat="43.40212" lon="3.68565">
        <ele>175.77</ele>
        <time>2019-06-01T10:08:02.000Z</time>
      </trkpt>
      <trkpt lat="43.40221" lon="3.68558">
        <ele>176</ele>
        <time>2019-06-01T10:08:10.000Z</time>
      </trkpt>
      <trkpt lat="43.40228" lon="3.6855">
        <ele>177.52</ele>
        <time>2019-06-01T10:08:46.000Z</time>
      </trkpt>
      <trkpt lat="43.40227" lon="3.68536">
        <ele>178.77</ele>
        <time>2019-06-01T10:08:57.000Z</time>
      </trkpt>
      <trkpt lat="43.40226" lon="3.68523">
        <ele>179.78</ele>
        <time>2019-06-01T10:25:56.000Z</time>
      </trkpt>
      <trkpt lat="43.40222" lon="3.68511">
        <ele>179.78</ele>
        <time>2019-06-01T10:26:02.000Z</time>
      </trkpt>
      <trkpt lat="43.40222" lon="3.68496">
        <ele>179.78</ele>
        <time>2019-06-01T10:26:07.000Z</time>
      </trkpt>
      <trkpt lat="43.40227" lon="3.68484">
        <ele>179.78</ele>
        <time>2019-06-01T10:26:13.000Z</time>
      </trkpt>
      <trkpt lat="43.40235" lon="3.68476">
        <ele>180.78</ele>
        <time>2019-06-01T10:26:19.000Z</time>
      </trkpt>
      <trkpt lat="43.4023" lon="3.68464">
        <ele>180.78</ele>
        <time>2019-06-01T10:26:25.000Z</time>
      </trkpt>
      <trkpt lat="43.40231" lon="3.6845">
        <ele>176.64</ele>
        <time>2019-06-01T10:27:21.000Z</time>
      </trkpt>
      <trkpt lat="43.40224" lon="3.68459">
        <ele>183.59</ele>
        <time>2019-06-01T10:27:41.000Z</time>
      </trkpt>
      <trkpt lat="43.40234" lon="3.68462">
        <ele>181.48</ele>
        <time>2019-06-01T10:33:47.000Z</time>
      </trkpt>
      <trkpt lat="43.40228" lon="3.68473">
        <ele>183.51</ele>
        <time>2019-06-01T10:34:30.000Z</time>
      </trkpt>
      <trkpt lat="43.40215" lon="3.68484">
        <ele>183.72</ele>
        <time>2019-06-01T10:34:35.000Z</time>
      </trkpt>
      <trkpt lat="43.40201" lon="3.68494">
        <ele>184.96</ele>
        <time>2019-06-01T10:34:40.000Z</time>
      </trkpt>
      <trkpt lat="43.40188" lon="3.68506">
        <ele>185.02</ele>
        <time>2019-06-01T10:34:45.000Z</time>
      </trkpt>
      <trkpt lat="43.40174" lon="3.6852">
        <ele>184.78</ele>
        <time>2019-06-01T10:34:50.000Z</time>
      </trkpt>
      <trkpt lat="43.4016" lon="3.68536">
        <ele>182.05</ele>
        <time>2019-06-01T10:34:55.000Z</time>
      </trkpt>
      <trkpt lat="43.40144" lon="3.68554">
        <ele>180.78</ele>
        <time>2019-06-01T10:35:00.000Z</time>
      </trkpt>
      <trkpt lat="43.40129" lon="3.68568">
        <ele>178.11</ele>
        <time>2019-06-01T10:35:05.000Z</time>
      </trkpt>
      <trkpt lat="43.40112" lon="3.68583">
        <ele>175.05</ele>
        <time>2019-06-01T10:35:10.000Z</time>
      </trkpt>
      <trkpt lat="43.40093" lon="3.68602">
        <ele>172.3</ele>
        <time>2019-06-01T10:35:15.000Z</time>
      </trkpt>
      <trkpt lat="43.40074" lon="3.68624">
        <ele>168.05</ele>
        <time>2019-06-01T10:35:20.000Z</time>
      </trkpt>
      <trkpt lat="43.40053" lon="3.68644">
        <ele>163.93</ele>
        <time>2019-06-01T10:35:25.000Z</time>
      </trkpt>
      <trkpt lat="43.40033" lon="3.68668">
        <ele>164.29</ele>
        <time>2019-06-01T10:35:30.000Z</time>
      </trkpt>
      <trkpt lat="43.40012" lon="3.68693">
        <ele>157.08</ele>
        <time>2019-06-01T10:35:35.000Z</time>
      </trkpt>
      <trkpt lat="43.39996" lon="3.68716">
        <ele>150.18</ele>
        <time>2019-06-01T10:35:40.000Z</time>
      </trkpt>
      <trkpt lat="43.39977" lon="3.68741">
        <ele>146.06</ele>
        <time>2019-06-01T10:35:45.000Z</time>
      </trkpt>
      <trkpt lat="43.39955" lon="3.68767">
        <ele>142.06</ele>
        <time>2019-06-01T10:35:50.000Z</time>
      </trkpt>
      <trkpt lat="43.39934" lon="3.68793">
        <ele>138.85</ele>
        <time>2019-06-01T10:35:55.000Z</time>
      </trkpt>
      <trkpt lat="43.39915" lon="3.68819">
        <ele>135.35</ele>
        <time>2019-06-01T10:36:00.000Z</time>
      </trkpt>
      <trkpt lat="43.39898" lon="3.68845">
        <ele>132.8</ele>
        <time>2019-06-01T10:36:05.000Z</time>
      </trkpt>
      <trkpt lat="43.39879" lon="3.68873">
        <ele>128.12</ele>
        <time>2019-06-01T10:36:10.000Z</time>
      </trkpt>
      <trkpt lat="43.39858" lon="3.68902">
        <ele>122.14</ele>
        <time>2019-06-01T10:36:15.000Z</time>
      </trkpt>
      <trkpt lat="43.3984" lon="3.68926">
        <ele>118.81</ele>
        <time>2019-06-01T10:36:20.000Z</time>
      </trkpt>
      <trkpt lat="43.39828" lon="3.68952">
        <ele>116.79</ele>
        <time>2019-06-01T10:36:25.000Z</time>
      </trkpt>
      <trkpt lat="43.39819" lon="3.68983">
        <ele>113.12</ele>
        <time>2019-06-01T10:36:30.000Z</time>
      </trkpt>
      <trkpt lat="43.39798" lon="3.68995">
        <ele>110.11</ele>
        <time>2019-06-01T10:36:35.000Z</time>
      </trkpt>
      <trkpt lat="43.39777" lon="3.69009">
        <ele>107.86</ele>
        <time>2019-06-01T10:36:40.000Z</time>
      </trkpt>
      <trkpt lat="43.39766" lon="3.69034">
        <ele>102.12</ele>
        <time>2019-06-01T10:36:45.000Z</time>
      </trkpt>
      <trkpt lat="43.39758" lon="3.69059">
        <ele>96.87</ele>
        <time>2019-06-01T10:36:50.000Z</time>
      </trkpt>
      <trkpt lat="43.39752" lon="3.69075">
        <ele>93.87</ele>
        <time>2019-06-01T10:36:55.000Z</time>
      </trkpt>
      <trkpt lat="43.39759" lon="3.69085">
        <ele>91.04</ele>
        <time>2019-06-01T10:37:05.000Z</time>
      </trkpt>
      <trkpt lat="43.39776" lon="3.69106">
        <ele>88.11</ele>
        <time>2019-06-01T10:37:10.000Z</time>
      </trkpt>
      <trkpt lat="43.39782" lon="3.69134">
        <ele>83.11</ele>
        <time>2019-06-01T10:37:15.000Z</time>
      </trkpt>
      <trkpt lat="43.39779" lon="3.69171">
        <ele>77.94</ele>
        <time>2019-06-01T10:37:20.000Z</time>
      </trkpt>
      <trkpt lat="43.39788" lon="3.69208">
        <ele>73.11</ele>
        <time>2019-06-01T10:37:25.000Z</time>
      </trkpt>
      <trkpt lat="43.39796" lon="3.69248">
        <ele>69.12</ele>
        <time>2019-06-01T10:37:30.000Z</time>
      </trkpt>
      <trkpt lat="43.39795" lon="3.69287">
        <ele>65.08</ele>
        <time>2019-06-01T10:37:35.000Z</time>
      </trkpt>
      <trkpt lat="43.39777" lon="3.69321">
        <ele>61.87</ele>
        <time>2019-06-01T10:37:40.000Z</time>
      </trkpt>
      <trkpt lat="43.39746" lon="3.69327">
        <ele>60.79</ele>
        <time>2019-06-01T10:37:45.000Z</time>
      </trkpt>
      <trkpt lat="43.39724" lon="3.69321">
        <ele>61.79</ele>
        <time>2019-06-01T10:37:50.000Z</time>
      </trkpt>
      <trkpt lat="43.39707" lon="3.69316">
        <ele>62.79</ele>
        <time>2019-06-01T10:37:55.000Z</time>
      </trkpt>
      <trkpt lat="43.39685" lon="3.69306">
        <ele>61.81</ele>
        <time>2019-06-01T10:38:00.000Z</time>
      </trkpt>
      <trkpt lat="43.39664" lon="3.69293">
        <ele>59.86</ele>
        <time>2019-06-01T10:38:05.000Z</time>
      </trkpt>
      <trkpt lat="43.39646" lon="3.69286">
        <ele>57.86</ele>
        <time>2019-06-01T10:38:10.000Z</time>
      </trkpt>
      <trkpt lat="43.39637" lon="3.69283">
        <ele>58.04</ele>
        <time>2019-06-01T10:38:17.000Z</time>
      </trkpt>
      <trkpt lat="43.39646" lon="3.69287">
        <ele>54.81</ele>
        <time>2019-06-01T10:41:14.000Z</time>
      </trkpt>
      <trkpt lat="43.39645" lon="3.69271">
        <ele>55.79</ele>
        <time>2019-06-01T10:41:56.000Z</time>
      </trkpt>
      <trkpt lat="43.39625" lon="3.69249">
        <ele>54.05</ele>
        <time>2019-06-01T10:42:01.000Z</time>
      </trkpt>
      <trkpt lat="43.3961" lon="3.6923">
        <ele>51.07</ele>
        <time>2019-06-01T10:42:06.000Z</time>
      </trkpt>
      <trkpt lat="43.39589" lon="3.6922">
        <ele>48.06</ele>
        <time>2019-06-01T10:42:11.000Z</time>
      </trkpt>
      <trkpt lat="43.39571" lon="3.69239">
        <ele>44.12</ele>
        <time>2019-06-01T10:42:16.000Z</time>
      </trkpt>
      <trkpt lat="43.39564" lon="3.6927">
        <ele>40.12</ele>
        <time>2019-06-01T10:42:21.000Z</time>
      </trkpt>
      <trkpt lat="43.39548" lon="3.69294">
        <ele>37.81</ele>
        <time>2019-06-01T10:42:26.000Z</time>
      </trkpt>
      <trkpt lat="43.39536" lon="3.6931">
        <ele>36.81</ele>
        <time>2019-06-01T10:42:31.000Z</time>
      </trkpt>
      <trkpt lat="43.39543" lon="3.69323">
        <ele>35.81</ele>
        <time>2019-06-01T10:42:46.000Z</time>
      </trkpt>
      <trkpt lat="43.39557" lon="3.69336">
        <ele>35.79</ele>
        <time>2019-06-01T10:42:51.000Z</time>
      </trkpt>
      <trkpt lat="43.39569" lon="3.69345">
        <ele>34.34</ele>
        <time>2019-06-01T10:42:56.000Z</time>
      </trkpt>
      <trkpt lat="43.39578" lon="3.6935">
        <ele>33.54</ele>
        <time>2019-06-01T10:43:18.000Z</time>
      </trkpt>
      <trkpt lat="43.39588" lon="3.69362">
        <ele>33.79</ele>
        <time>2019-06-01T10:43:23.000Z</time>
      </trkpt>
      <trkpt lat="43.39602" lon="3.69375">
        <ele>33.79</ele>
        <time>2019-06-01T10:43:28.000Z</time>
      </trkpt>
      <trkpt lat="43.39618" lon="3.69388">
        <ele>33.79</ele>
        <time>2019-06-01T10:43:33.000Z</time>
      </trkpt>
      <trkpt lat="43.39636" lon="3.69403">
        <ele>33.79</ele>
        <time>2019-06-01T10:43:38.000Z</time>
      </trkpt>
      <trkpt lat="43.39654" lon="3.69419">
        <ele>33.54</ele>
        <time>2019-06-01T10:43:43.000Z</time>
      </trkpt>
      <trkpt lat="43.39664" lon="3.69422">
        <ele>31.8</ele>
        <time>2019-06-01T10:43:48.000Z</time>
      </trkpt>
      <trkpt lat="43.39672" lon="3.69432">
        <ele>32.48</ele>
        <time>2019-06-01T10:43:53.000Z</time>
      </trkpt>
      <trkpt lat="43.39688" lon="3.69446">
        <ele>32.79</ele>
        <time>2019-06-01T10:43:58.000Z</time>
      </trkpt>
      <trkpt lat="43.39709" lon="3.69459">
        <ele>34.53</ele>
        <time>2019-06-01T10:44:03.000Z</time>
      </trkpt>
      <trkpt lat="43.3973" lon="3.6947">
        <ele>34.6</ele>
        <time>2019-06-01T10:44:08.000Z</time>
      </trkpt>
      <trkpt lat="43.39748" lon="3.69474">
        <ele>34.56</ele>
        <time>2019-06-01T10:44:13.000Z</time>
      </trkpt>
      <trkpt lat="43.39763" lon="3.69473">
        <ele>36.54</ele>
        <time>2019-06-01T10:44:18.000Z</time>
      </trkpt>
      <trkpt lat="43.39764" lon="3.69494">
        <ele>34.17</ele>
        <time>2019-06-01T10:44:23.000Z</time>
      </trkpt>
      <trkpt lat="43.39771" lon="3.69507">
        <ele>30.86</ele>
        <time>2019-06-01T10:44:28.000Z</time>
      </trkpt>
      <trkpt lat="43.39796" lon="3.69505">
        <ele>29.79</ele>
        <time>2019-06-01T10:44:33.000Z</time>
      </trkpt>
      <trkpt lat="43.39816" lon="3.695">
        <ele>28.85</ele>
        <time>2019-06-01T10:44:38.000Z</time>
      </trkpt>
      <trkpt lat="43.39837" lon="3.69495">
        <ele>28.73</ele>
        <time>2019-06-01T10:44:43.000Z</time>
      </trkpt>
      <trkpt lat="43.39855" lon="3.69493">
        <ele>29.73</ele>
        <time>2019-06-01T10:44:48.000Z</time>
      </trkpt>
      <trkpt lat="43.39872" lon="3.69491">
        <ele>30.54</ele>
        <time>2019-06-01T10:44:53.000Z</time>
      </trkpt>
      <trkpt lat="43.3989" lon="3.69488">
        <ele>31.78</ele>
        <time>2019-06-01T10:44:58.000Z</time>
      </trkpt>
      <trkpt lat="43.39908" lon="3.69485">
        <ele>31.79</ele>
        <time>2019-06-01T10:45:03.000Z</time>
      </trkpt>
      <trkpt lat="43.39926" lon="3.69483">
        <ele>30.81</ele>
        <time>2019-06-01T10:45:08.000Z</time>
      </trkpt>
      <trkpt lat="43.39939" lon="3.69479">
        <ele>31.04</ele>
        <time>2019-06-01T10:45:13.000Z</time>
      </trkpt>
      <trkpt lat="43.39954" lon="3.69486">
        <ele>29.85</ele>
        <time>2019-06-01T10:45:18.000Z</time>
      </trkpt>
      <trkpt lat="43.39969" lon="3.69503">
        <ele>27.87</ele>
        <time>2019-06-01T10:45:23.000Z</time>
      </trkpt>
      <trkpt lat="43.39985" lon="3.6951">
        <ele>29.71</ele>
        <time>2019-06-01T10:45:28.000Z</time>
      </trkpt>
      <trkpt lat="43.4" lon="3.69516">
        <ele>29.79</ele>
        <time>2019-06-01T10:45:33.000Z</time>
      </trkpt>
      <trkpt lat="43.40012" lon="3.69515">
        <ele>27.57</ele>
        <time>2019-06-01T10:45:38.000Z</time>
      </trkpt>
      <trkpt lat="43.40017" lon="3.6953">
        <ele>25.87</ele>
        <time>2019-06-01T10:45:48.000Z</time>
      </trkpt>
      <trkpt lat="43.4002" lon="3.69555">
        <ele>23.81</ele>
        <time>2019-06-01T10:45:53.000Z</time>
      </trkpt>
      <trkpt lat="43.40026" lon="3.69575">
        <ele>22.79</ele>
        <time>2019-06-01T10:45:58.000Z</time>
      </trkpt>
      <trkpt lat="43.40024" lon="3.69587">
        <ele>22.97</ele>
        <time>2019-06-01T10:46:03.000Z</time>
      </trkpt>
      <trkpt lat="43.40033" lon="3.69583">
        <ele>23.74</ele>
        <time>2019-06-01T10:46:08.000Z</time>
      </trkpt>
      <trkpt lat="43.40049" lon="3.69577">
        <ele>25.77</ele>
        <time>2019-06-01T10:46:13.000Z</time>
      </trkpt>
      <trkpt lat="43.40069" lon="3.69574">
        <ele>26.03</ele>
        <time>2019-06-01T10:46:18.000Z</time>
      </trkpt>
      <trkpt lat="43.40083" lon="3.69573">
        <ele>24.55</ele>
        <time>2019-06-01T10:46:23.000Z</time>
      </trkpt>
      <trkpt lat="43.40096" lon="3.69574">
        <ele>18.18</ele>
        <time>2019-06-01T10:46:28.000Z</time>
      </trkpt>
      <trkpt lat="43.40117" lon="3.69573">
        <ele>15.9</ele>
        <time>2019-06-01T10:46:33.000Z</time>
      </trkpt>
      <trkpt lat="43.40137" lon="3.69571">
        <ele>15.04</ele>
        <time>2019-06-01T10:46:38.000Z</time>
      </trkpt>
      <trkpt lat="43.40155" lon="3.69569">
        <ele>14.79</ele>
        <time>2019-06-01T10:46:43.000Z</time>
      </trkpt>
      <trkpt lat="43.40164" lon="3.69566">
        <ele>14.8</ele>
        <time>2019-06-01T10:46:49.000Z</time>
      </trkpt>
      <trkpt lat="43.40174" lon="3.69569">
        <ele>14.56</ele>
        <time>2019-06-01T10:46:54.000Z</time>
      </trkpt>
      <trkpt lat="43.40182" lon="3.69563">
        <ele>18.52</ele>
        <time>2019-06-01T10:47:06.000Z</time>
      </trkpt>
      <trkpt lat="43.40191" lon="3.69559">
        <ele>18.31</ele>
        <time>2019-06-01T10:47:12.000Z</time>
      </trkpt>
      <trkpt lat="43.402" lon="3.69556">
        <ele>17.1</ele>
        <time>2019-06-01T10:47:18.000Z</time>
      </trkpt>
      <trkpt lat="43.4021" lon="3.69554">
        <ele>17.77</ele>
        <time>2019-06-01T10:47:23.000Z</time>
      </trkpt>
      <trkpt lat="43.4022" lon="3.69553">
        <ele>19.52</ele>
        <time>2019-06-01T10:47:28.000Z</time>
      </trkpt>
      <trkpt lat="43.40229" lon="3.69558">
        <ele>14.14</ele>
        <time>2019-06-01T10:47:35.000Z</time>
      </trkpt>
      <trkpt lat="43.40234" lon="3.69571">
        <ele>8.87</ele>
        <time>2019-06-01T10:47:40.000Z</time>
      </trkpt>
      <trkpt lat="43.40236" lon="3.69584">
        <ele>8.77</ele>
        <time>2019-06-01T10:47:45.000Z</time>
      </trkpt>
      <trkpt lat="43.40241" lon="3.69595">
        <ele>8.04</ele>
        <time>2019-06-01T10:47:50.000Z</time>
      </trkpt>
      <trkpt lat="43.40247" lon="3.69606">
        <ele>7.78</ele>
        <time>2019-06-01T10:47:58.000Z</time>
      </trkpt>
      <trkpt lat="43.40244" lon="3.69618">
        <ele>8.83</ele>
        <time>2019-06-01T10:48:04.000Z</time>
      </trkpt>
      <trkpt lat="43.40245" lon="3.69631">
        <ele>9.56</ele>
        <time>2019-06-01T10:48:12.000Z</time>
      </trkpt>
      <trkpt lat="43.40245" lon="3.69644">
        <ele>9.54</ele>
        <time>2019-06-01T10:48:22.000Z</time>
      </trkpt>
      <trkpt lat="43.40246" lon="3.69656">
        <ele>10.97</ele>
        <time>2019-06-01T10:48:33.000Z</time>
      </trkpt>
      <trkpt lat="43.40246" lon="3.69669">
        <ele>10.79</ele>
        <time>2019-06-01T10:48:40.000Z</time>
      </trkpt>
      <trkpt lat="43.40248" lon="3.69681">
        <ele>12.83</ele>
        <time>2019-06-01T10:48:50.000Z</time>
      </trkpt>
      <trkpt lat="43.4024" lon="3.69688">
        <ele>20.89</ele>
        <time>2019-06-01T10:49:08.000Z</time>
      </trkpt>
      <trkpt lat="43.4023" lon="3.69684">
        <ele>22.95</ele>
        <time>2019-06-01T10:49:14.000Z</time>
      </trkpt>
      <trkpt lat="43.40209" lon="3.69679">
        <ele>19.53</ele>
        <time>2019-06-01T10:49:19.000Z</time>
      </trkpt>
      <trkpt lat="43.402" lon="3.69677">
        <ele>22.47</ele>
        <time>2019-06-01T10:49:24.000Z</time>
      </trkpt>
      <trkpt lat="43.40191" lon="3.69673">
        <ele>25.01</ele>
        <time>2019-06-01T10:49:29.000Z</time>
      </trkpt>
      <trkpt lat="43.40181" lon="3.69669">
        <ele>23.29</ele>
        <time>2019-06-01T10:49:35.000Z</time>
      </trkpt>
      <trkpt lat="43.40168" lon="3.69666">
        <ele>18.81</ele>
        <time>2019-06-01T10:49:40.000Z</time>
      </trkpt>
      <trkpt lat="43.40158" lon="3.69662">
        <ele>24.02</ele>
        <time>2019-06-01T10:49:49.000Z</time>
      </trkpt>
      <trkpt lat="43.40147" lon="3.69659">
        <ele>20.61</ele>
        <time>2019-06-01T10:49:54.000Z</time>
      </trkpt>
      <trkpt lat="43.40136" lon="3.69653">
        <ele>15.89</ele>
        <time>2019-06-01T10:50:00.000Z</time>
      </trkpt>
      <trkpt lat="43.40126" lon="3.69652">
        <ele>15.79</ele>
        <time>2019-06-01T10:50:05.000Z</time>
      </trkpt>
      <trkpt lat="43.40112" lon="3.69648">
        <ele>17.78</ele>
        <time>2019-06-01T10:50:10.000Z</time>
      </trkpt>
      <trkpt lat="43.40094" lon="3.69645">
        <ele>18.77</ele>
        <time>2019-06-01T10:50:15.000Z</time>
      </trkpt>
      <trkpt lat="43.40071" lon="3.69637">
        <ele>11.8</ele>
        <time>2019-06-01T10:50:20.000Z</time>
      </trkpt>
      <trkpt lat="43.40054" lon="3.6963">
        <ele>12.98</ele>
        <time>2019-06-01T10:50:25.000Z</time>
      </trkpt>
      <trkpt lat="43.40044" lon="3.69633">
        <ele>14.77</ele>
        <time>2019-06-01T10:50:37.000Z</time>
      </trkpt>
      <trkpt lat="43.40035" lon="3.69631">
        <ele>15.73</ele>
        <time>2019-06-01T10:50:45.000Z</time>
      </trkpt>
      <trkpt lat="43.40019" lon="3.69629">
        <ele>14.29</ele>
        <time>2019-06-01T10:50:50.000Z</time>
      </trkpt>
      <trkpt lat="43.40002" lon="3.69622">
        <ele>14.97</ele>
        <time>2019-06-01T10:50:55.000Z</time>
      </trkpt>
      <trkpt lat="43.39984" lon="3.69616">
        <ele>15.79</ele>
        <time>2019-06-01T10:51:00.000Z</time>
      </trkpt>
      <trkpt lat="43.39964" lon="3.69611">
        <ele>14.85</ele>
        <time>2019-06-01T10:51:05.000Z</time>
      </trkpt>
      <trkpt lat="43.39938" lon="3.69602">
        <ele>14.54</ele>
        <time>2019-06-01T10:51:10.000Z</time>
      </trkpt>
      <trkpt lat="43.39923" lon="3.69611">
        <ele>11.59</ele>
        <time>2019-06-01T10:51:15.000Z</time>
      </trkpt>
      <trkpt lat="43.3994" lon="3.69634">
        <ele>8.81</ele>
        <time>2019-06-01T10:51:20.000Z</time>
      </trkpt>
      <trkpt lat="43.3995" lon="3.69642">
        <ele>7.55</ele>
        <time>2019-06-01T10:51:25.000Z</time>
      </trkpt>
      <trkpt lat="43.39957" lon="3.69652">
        <ele>7.79</ele>
        <time>2019-06-01T10:51:30.000Z</time>
      </trkpt>
      <trkpt lat="43.39949" lon="3.69662">
        <ele>7.73</ele>
        <time>2019-06-01T10:51:35.000Z</time>
      </trkpt>
      <trkpt lat="43.39934" lon="3.6966">
        <ele>8.54</ele>
        <time>2019-06-01T10:51:40.000Z</time>
      </trkpt>
      <trkpt lat="43.39923" lon="3.69663">
        <ele>9.73</ele>
        <time>2019-06-01T10:51:45.000Z</time>
      </trkpt>
      <trkpt lat="43.39914" lon="3.69664">
        <ele>9.54</ele>
        <time>2019-06-01T10:51:51.000Z</time>
      </trkpt>
      <trkpt lat="43.39903" lon="3.69667">
        <ele>10.55</ele>
        <time>2019-06-01T10:51:58.000Z</time>
      </trkpt>
      <trkpt lat="43.39892" lon="3.69673">
        <ele>12.58</ele>
        <time>2019-06-01T10:52:03.000Z</time>
      </trkpt>
      <trkpt lat="43.39882" lon="3.69677">
        <ele>12.59</ele>
        <time>2019-06-01T10:52:09.000Z</time>
      </trkpt>
      <trkpt lat="43.39873" lon="3.69677">
        <ele>9.73</ele>
        <time>2019-06-01T10:52:24.000Z</time>
      </trkpt>
      <trkpt lat="43.39863" lon="3.69675">
        <ele>4.86</ele>
        <time>2019-06-01T10:52:41.000Z</time>
      </trkpt>
      <trkpt lat="43.39854" lon="3.69675">
        <ele>4.79</ele>
        <time>2019-06-01T10:53:14.000Z</time>
      </trkpt>
      <trkpt lat="43.39844" lon="3.69677">
        <ele>5.73</ele>
        <time>2019-06-01T10:54:17.000Z</time>
      </trkpt>
      <trkpt lat="43.39835" lon="3.69677">
        <ele>7.73</ele>
        <time>2019-06-01T10:54:28.000Z</time>
      </trkpt>
      <trkpt lat="43.39826" lon="3.69682">
        <ele>6.8</ele>
        <time>2019-06-01T10:54:49.000Z</time>
      </trkpt>
      <trkpt lat="43.39818" lon="3.69675">
        <ele>4.73</ele>
        <time>2019-06-01T10:55:18.000Z</time>
      </trkpt>
      <trkpt lat="43.39808" lon="3.69675">
        <ele>7.78</ele>
        <time>2019-06-01T10:56:11.000Z</time>
      </trkpt>
      <trkpt lat="43.39797" lon="3.69671">
        <ele>7.79</ele>
        <time>2019-06-01T10:56:16.000Z</time>
      </trkpt>
      <trkpt lat="43.39786" lon="3.69667">
        <ele>5.99</ele>
        <time>2019-06-01T10:56:21.000Z</time>
      </trkpt>
      <trkpt lat="43.39779" lon="3.69657">
        <ele>5.79</ele>
        <time>2019-06-01T10:56:28.000Z</time>
      </trkpt>
      <trkpt lat="43.39775" lon="3.69662">
        <ele>6.79</ele>
        <time>2019-06-01T10:56:58.000Z</time>
      </trkpt>
      <trkpt lat="43.39757" lon="3.69636">
        <ele>6</ele>
        <time>2019-06-01T12:54:25.000Z</time>
      </trkpt>
      <trkpt lat="43.39779" lon="3.69616">
        <ele>7</ele>
        <time>2019-06-01T12:54:58.000Z</time>
      </trkpt>
      <trkpt lat="43.39635" lon="3.69556">
        <ele>10</ele>
        <time>2019-06-01T12:55:03.000Z</time>
      </trkpt>
      <trkpt lat="43.39543" lon="3.69497">
        <ele>7</ele>
        <time>2019-06-01T12:55:08.000Z</time>
      </trkpt>
      <trkpt lat="43.39494" lon="3.69461">
        <ele>4</ele>
        <time>2019-06-01T12:55:13.000Z</time>
      </trkpt>
      <trkpt lat="43.39424" lon="3.69275">
        <ele>17</ele>
        <time>2019-06-01T12:55:18.000Z</time>
      </trkpt>
      <trkpt lat="43.39309" lon="3.69181">
        <ele>10</ele>
        <time>2019-06-01T12:55:23.000Z</time>
      </trkpt>
      <trkpt lat="43.39247" lon="3.6904">
        <ele>10</ele>
        <time>2019-06-01T12:55:31.000Z</time>
      </trkpt>
      <trkpt lat="43.39244" lon="3.68976">
        <ele>12</ele>
        <time>2019-06-01T12:55:36.000Z</time>
      </trkpt>
      <trkpt lat="43.39262" lon="3.68717">
        <ele>13</ele>
        <time>2019-06-01T12:55:41.000Z</time>
      </trkpt>
      <trkpt lat="43.39259" lon="3.68622">
        <ele>13</ele>
        <time>2019-06-01T12:55:46.000Z</time>
      </trkpt>
      <trkpt lat="43.39286" lon="3.68525">
        <ele>16</ele>
        <time>2019-06-01T12:55:51.000Z</time>
      </trkpt>
      <trkpt lat="43.39344" lon="3.68378">
        <ele>15</ele>
        <time>2019-06-01T12:55:56.000Z</time>
      </trkpt>
      <trkpt lat="43.3938" lon="3.68284">
        <ele>13</ele>
        <time>2019-06-01T12:56:01.000Z</time>
      </trkpt>
      <trkpt lat="43.39372" lon="3.67992">
        <ele>19</ele>
        <time>2019-06-01T12:56:06.000Z</time>
      </trkpt>
      <trkpt lat="43.39409" lon="3.67863">
        <ele>20</ele>
        <time>2019-06-01T12:56:11.000Z</time>
      </trkpt>
      <trkpt lat="43.39432" lon="3.67768">
        <ele>23</ele>
        <time>2019-06-01T12:56:16.000Z</time>
      </trkpt>
      <trkpt lat="43.39452" lon="3.67715">
        <ele>23</ele>
        <time>2019-06-01T12:56:21.000Z</time>
      </trkpt>
      <trkpt lat="43.3939" lon="3.67654">
        <ele>21</ele>
        <time>2019-06-01T12:56:26.000Z</time>
      </trkpt>
      <trkpt lat="43.3932" lon="3.67572">
        <ele>17</ele>
        <time>2019-06-01T12:56:31.000Z</time>
      </trkpt>
      <trkpt lat="43.39273" lon="3.67479">
        <ele>14</ele>
        <time>2019-06-01T12:56:36.000Z</time>
      </trkpt>
      <trkpt lat="43.39262" lon="3.67423">
        <ele>13</ele>
        <time>2019-06-01T12:56:41.000Z</time>
      </trkpt>
      <trkpt lat="43.39285" lon="3.67334">
        <ele>10</ele>
        <time>2019-06-01T12:56:46.000Z</time>
      </trkpt>
      <trkpt lat="43.39319" lon="3.6726">
        <ele>8.53</ele>
        <time>2019-06-01T12:56:51.000Z</time>
      </trkpt>
      <trkpt lat="43.3933" lon="3.67255">
        <ele>9.79</ele>
        <time>2019-06-01T12:56:56.000Z</time>
      </trkpt>
      <trkpt lat="43.3934" lon="3.67234">
        <ele>10.79</ele>
        <time>2019-06-01T12:57:01.000Z</time>
      </trkpt>
      <trkpt lat="43.39351" lon="3.67211">
        <ele>10.79</ele>
        <time>2019-06-01T12:57:06.000Z</time>
      </trkpt>
      <trkpt lat="43.39362" lon="3.67191">
        <ele>10.97</ele>
        <time>2019-06-01T12:57:11.000Z</time>
      </trkpt>
      <trkpt lat="43.39371" lon="3.67171">
        <ele>11.73</ele>
        <time>2019-06-01T12:57:16.000Z</time>
      </trkpt>
      <trkpt lat="43.39379" lon="3.67151">
        <ele>11.79</ele>
        <time>2019-06-01T12:57:21.000Z</time>
      </trkpt>
      <trkpt lat="43.39382" lon="3.67139">
        <ele>12.54</ele>
        <time>2019-06-01T12:57:26.000Z</time>
      </trkpt>
      <trkpt lat="43.39394" lon="3.67133">
        <ele>8.85</ele>
        <time>2019-06-01T12:57:31.000Z</time>
      </trkpt>
      <trkpt lat="43.39413" lon="3.67133">
        <ele>9.78</ele>
        <time>2019-06-01T12:57:36.000Z</time>
      </trkpt>
      <trkpt lat="43.39432" lon="3.6714">
        <ele>12.71</ele>
        <time>2019-06-01T12:57:41.000Z</time>
      </trkpt>
      <trkpt lat="43.3945" lon="3.6715">
        <ele>12.78</ele>
        <time>2019-06-01T12:57:46.000Z</time>
      </trkpt>
      <trkpt lat="43.39467" lon="3.67158">
        <ele>13.72</ele>
        <time>2019-06-01T12:57:51.000Z</time>
      </trkpt>
      <trkpt lat="43.39484" lon="3.67165">
        <ele>14.78</ele>
        <time>2019-06-01T12:57:56.000Z</time>
      </trkpt>
      <trkpt lat="43.39501" lon="3.67172">
        <ele>16.77</ele>
        <time>2019-06-01T12:58:01.000Z</time>
      </trkpt>
      <trkpt lat="43.39516" lon="3.67179">
        <ele>18.75</ele>
        <time>2019-06-01T12:58:06.000Z</time>
      </trkpt>
      <trkpt lat="43.39532" lon="3.67185">
        <ele>19.52</ele>
        <time>2019-06-01T12:58:11.000Z</time>
      </trkpt>
      <trkpt lat="43.39546" lon="3.67189">
        <ele>20.77</ele>
        <time>2019-06-01T12:58:16.000Z</time>
      </trkpt>
      <trkpt lat="43.3956" lon="3.67188">
        <ele>21.72</ele>
        <time>2019-06-01T12:58:21.000Z</time>
      </trkpt>
      <trkpt lat="43.39565" lon="3.67162">
        <ele>20.79</ele>
        <time>2019-06-01T12:58:26.000Z</time>
      </trkpt>
      <trkpt lat="43.39566" lon="3.67137">
        <ele>20.78</ele>
        <time>2019-06-01T12:58:31.000Z</time>
      </trkpt>
      <trkpt lat="43.39568" lon="3.67111">
        <ele>19.78</ele>
        <time>2019-06-01T12:58:36.000Z</time>
      </trkpt>
      <trkpt lat="43.39576" lon="3.67083">
        <ele>18.84</ele>
        <time>2019-06-01T12:58:41.000Z</time>
      </trkpt>
      <trkpt lat="43.39585" lon="3.67053">
        <ele>17.79</ele>
        <time>2019-06-01T12:58:46.000Z</time>
      </trkpt>
      <trkpt lat="43.39593" lon="3.67023">
        <ele>18.53</ele>
        <time>2019-06-01T12:58:51.000Z</time>
      </trkpt>
      <trkpt lat="43.39599" lon="3.6699">
        <ele>17.84</ele>
        <time>2019-06-01T12:58:56.000Z</time>
      </trkpt>
      <trkpt lat="43.39605" lon="3.66954">
        <ele>15.8</ele>
        <time>2019-06-01T12:59:01.000Z</time>
      </trkpt>
      <trkpt lat="43.39612" lon="3.66914">
        <ele>15.78</ele>
        <time>2019-06-01T12:59:06.000Z</time>
      </trkpt>
      <trkpt lat="43.39617" lon="3.66881">
        <ele>15.78</ele>
        <time>2019-06-01T12:59:11.000Z</time>
      </trkpt>
      <trkpt lat="43.39623" lon="3.66852">
        <ele>15.78</ele>
        <time>2019-06-01T12:59:16.000Z</time>
      </trkpt>
      <trkpt lat="43.3963" lon="3.66818">
        <ele>15.03</ele>
        <time>2019-06-01T12:59:21.000Z</time>
      </trkpt>
      <trkpt lat="43.39637" lon="3.66784">
        <ele>15.78</ele>
        <time>2019-06-01T12:59:26.000Z</time>
      </trkpt>
      <trkpt lat="43.39645" lon="3.66749">
        <ele>15.03</ele>
        <time>2019-06-01T12:59:31.000Z</time>
      </trkpt>
      <trkpt lat="43.39657" lon="3.66717">
        <ele>14.78</ele>
        <time>2019-06-01T12:59:36.000Z</time>
      </trkpt>
      <trkpt lat="43.39671" lon="3.66687">
        <ele>14.78</ele>
        <time>2019-06-01T12:59:41.000Z</time>
      </trkpt>
      <trkpt lat="43.39688" lon="3.66657">
        <ele>15.77</ele>
        <time>2019-06-01T12:59:46.000Z</time>
      </trkpt>
      <trkpt lat="43.39701" lon="3.66627">
        <ele>14.79</ele>
        <time>2019-06-01T12:59:51.000Z</time>
      </trkpt>
      <trkpt lat="43.39714" lon="3.66603">
        <ele>13.84</ele>
        <time>2019-06-01T12:59:56.000Z</time>
      </trkpt>
      <trkpt lat="43.39721" lon="3.66585">
        <ele>12.78</ele>
        <time>2019-06-01T13:00:01.000Z</time>
      </trkpt>
      <trkpt lat="43.39733" lon="3.66565">
        <ele>11.98</ele>
        <time>2019-06-01T13:00:06.000Z</time>
      </trkpt>
      <trkpt lat="43.39747" lon="3.66534">
        <ele>11.78</ele>
        <time>2019-06-01T13:00:11.000Z</time>
      </trkpt>
      <trkpt lat="43.39763" lon="3.66503">
        <ele>11.78</ele>
        <time>2019-06-01T13:00:16.000Z</time>
      </trkpt>
      <trkpt lat="43.3978" lon="3.66473">
        <ele>11.78</ele>
        <time>2019-06-01T13:00:21.000Z</time>
      </trkpt>
      <trkpt lat="43.39797" lon="3.66441">
        <ele>12.71</ele>
        <time>2019-06-01T13:00:26.000Z</time>
      </trkpt>
      <trkpt lat="43.39813" lon="3.66407">
        <ele>11.79</ele>
        <time>2019-06-01T13:00:31.000Z</time>
      </trkpt>
      <trkpt lat="43.39832" lon="3.66377">
        <ele>11.77</ele>
        <time>2019-06-01T13:00:36.000Z</time>
      </trkpt>
      <trkpt lat="43.39853" lon="3.6635">
        <ele>11.96</ele>
        <time>2019-06-01T13:00:41.000Z</time>
      </trkpt>
      <trkpt lat="43.39872" lon="3.66331">
        <ele>11.02</ele>
        <time>2019-06-01T13:00:46.000Z</time>
      </trkpt>
      <trkpt lat="43.39869" lon="3.66303">
        <ele>9.03</ele>
        <time>2019-06-01T13:00:51.000Z</time>
      </trkpt>
      <trkpt lat="43.39855" lon="3.6628">
        <ele>8.02</ele>
        <time>2019-06-01T13:00:56.000Z</time>
      </trkpt>
      <trkpt lat="43.39859" lon="3.66263">
        <ele>7.78</ele>
        <time>2019-06-01T13:01:01.000Z</time>
      </trkpt>
      <trkpt lat="43.39864" lon="3.66279">
        <ele>8.71</ele>
        <time>2019-06-01T13:01:06.000Z</time>
      </trkpt>
      <trkpt lat="43.39868" lon="3.66297">
        <ele>10.71</ele>
        <time>2019-06-01T13:01:11.000Z</time>
      </trkpt>
      <trkpt lat="43.39878" lon="3.6631">
        <ele>10.77</ele>
        <time>2019-06-01T13:01:16.000Z</time>
      </trkpt>
      <trkpt lat="43.39894" lon="3.66317">
        <ele>12.51</ele>
        <time>2019-06-01T13:01:21.000Z</time>
      </trkpt>
      <trkpt lat="43.39914" lon="3.66309">
        <ele>12.59</ele>
        <time>2019-06-01T13:01:26.000Z</time>
      </trkpt>
      <trkpt lat="43.39935" lon="3.66288">
        <ele>11.77</ele>
        <time>2019-06-01T13:01:31.000Z</time>
      </trkpt>
      <trkpt lat="43.39957" lon="3.66271">
        <ele>10.77</ele>
        <time>2019-06-01T13:01:36.000Z</time>
      </trkpt>
      <trkpt lat="43.3998" lon="3.66251">
        <ele>10.78</ele>
        <time>2019-06-01T13:01:41.000Z</time>
      </trkpt>
      <trkpt lat="43.40002" lon="3.66229">
        <ele>9.85</ele>
        <time>2019-06-01T13:01:46.000Z</time>
      </trkpt>
      <trkpt lat="43.40017" lon="3.66207">
        <ele>10.76</ele>
        <time>2019-06-01T13:01:51.000Z</time>
      </trkpt>
      <trkpt lat="43.40037" lon="3.66192">
        <ele>10.83</ele>
        <time>2019-06-01T13:01:56.000Z</time>
      </trkpt>
      <trkpt lat="43.4006" lon="3.66179">
        <ele>11.72</ele>
        <time>2019-06-01T13:02:01.000Z</time>
      </trkpt>
      <trkpt lat="43.40084" lon="3.66173">
        <ele>13.46</ele>
        <time>2019-06-01T13:02:06.000Z</time>
      </trkpt>
      <trkpt lat="43.40106" lon="3.66173">
        <ele>12.09</ele>
        <time>2019-06-01T13:02:11.000Z</time>
      </trkpt>
      <trkpt lat="43.40119" lon="3.66192">
        <ele>12.52</ele>
        <time>2019-06-01T13:02:41.000Z</time>
      </trkpt>
      <trkpt lat="43.40135" lon="3.66214">
        <ele>11.83</ele>
        <time>2019-06-01T13:02:46.000Z</time>
      </trkpt>
      <trkpt lat="43.4016" lon="3.66213">
        <ele>11.82</ele>
        <time>2019-06-01T13:02:51.000Z</time>
      </trkpt>
      <trkpt lat="43.40187" lon="3.66217">
        <ele>10.77</ele>
        <time>2019-06-01T13:02:56.000Z</time>
      </trkpt>
      <trkpt lat="43.40214" lon="3.66217">
        <ele>12.76</ele>
        <time>2019-06-01T13:03:28.000Z</time>
      </trkpt>
      <trkpt lat="43.40239" lon="3.66214">
        <ele>14.75</ele>
        <time>2019-06-01T13:05:36.000Z</time>
      </trkpt>
      <trkpt lat="43.40263" lon="3.66212">
        <ele>15.77</ele>
        <time>2019-06-01T13:55:44.000Z</time>
      </trkpt>
      <trkpt lat="43.40285" lon="3.6622">
        <ele>15.96</ele>
        <time>2019-06-01T13:55:53.000Z</time>
      </trkpt>
      <trkpt lat="43.40306" lon="3.66229">
        <ele>16.77</ele>
        <time>2019-06-01T13:55:58.000Z</time>
      </trkpt>
      <trkpt lat="43.40322" lon="3.66236">
        <ele>16.77</ele>
        <time>2019-06-01T13:58:23.000Z</time>
      </trkpt>
      <trkpt lat="43.40337" lon="3.6624">
        <ele>17.78</ele>
        <time>2019-06-01T13:58:37.000Z</time>
      </trkpt>
      <trkpt lat="43.40357" lon="3.66247">
        <ele>18.81</ele>
        <time>2019-06-01T13:58:42.000Z</time>
      </trkpt>
      <trkpt lat="43.40379" lon="3.66253">
        <ele>21.75</ele>
        <time>2019-06-01T13:58:47.000Z</time>
      </trkpt>
      <trkpt lat="43.40401" lon="3.66263">
        <ele>22.76</ele>
        <time>2019-06-01T13:58:52.000Z</time>
      </trkpt>
      <trkpt lat="43.40422" lon="3.66272">
        <ele>21.77</ele>
        <time>2019-06-01T13:58:57.000Z</time>
      </trkpt>
      <trkpt lat="43.40442" lon="3.66284">
        <ele>22</ele>
        <time>2019-06-01T13:59:02.000Z</time>
      </trkpt>
      <trkpt lat="43.40463" lon="3.663">
        <ele>22.7</ele>
        <time>2019-06-01T13:59:07.000Z</time>
      </trkpt>
      <trkpt lat="43.40482" lon="3.66316">
        <ele>22.77</ele>
        <time>2019-06-01T13:59:12.000Z</time>
      </trkpt>
      <trkpt lat="43.405" lon="3.66333">
        <ele>22.77</ele>
        <time>2019-06-01T13:59:17.000Z</time>
      </trkpt>
      <trkpt lat="43.40516" lon="3.66352">
        <ele>23.75</ele>
        <time>2019-06-01T13:59:22.000Z</time>
      </trkpt>
      <trkpt lat="43.40532" lon="3.66368">
        <ele>24.7</ele>
        <time>2019-06-01T13:59:27.000Z</time>
      </trkpt>
      <trkpt lat="43.40545" lon="3.66383">
        <ele>23.83</ele>
        <time>2019-06-01T13:59:32.000Z</time>
      </trkpt>
      <trkpt lat="43.40553" lon="3.66392">
        <ele>23.77</ele>
        <time>2019-06-01T13:59:37.000Z</time>
      </trkpt>
      <trkpt lat="43.4056" lon="3.66401">
        <ele>24.76</ele>
        <time>2019-06-01T13:59:42.000Z</time>
      </trkpt>
      <trkpt lat="43.40571" lon="3.66416">
        <ele>23.77</ele>
        <time>2019-06-01T13:59:47.000Z</time>
      </trkpt>
      <trkpt lat="43.40588" lon="3.66436">
        <ele>24.51</ele>
        <time>2019-06-01T13:59:52.000Z</time>
      </trkpt>
      <trkpt lat="43.40597" lon="3.66457">
        <ele>24.75</ele>
        <time>2019-06-01T13:59:57.000Z</time>
      </trkpt>
      <trkpt lat="43.40601" lon="3.66468">
        <ele>25.51</ele>
        <time>2019-06-01T14:00:02.000Z</time>
      </trkpt>
      <trkpt lat="43.40592" lon="3.66471">
        <ele>23.5</ele>
        <time>2019-06-01T14:00:07.000Z</time>
      </trkpt>
      <trkpt lat="43.40584" lon="3.66465">
        <ele>35.98</ele>
        <time>2019-06-01T14:00:12.000Z</time>
      </trkpt>
      <trkpt lat="43.40592" lon="3.66458">
        <ele>27.82</ele>
        <time>2019-06-01T14:00:17.000Z</time>
      </trkpt>
      <trkpt lat="43.40602" lon="3.66465">
        <ele>22.16</ele>
        <time>2019-06-01T14:00:22.000Z</time>
      </trkpt>
      <trkpt lat="43.40611" lon="3.66459">
        <ele>21.45</ele>
        <time>2019-06-01T14:00:27.000Z</time>
      </trkpt>
      <trkpt lat="43.40616" lon="3.66447">
        <ele>25.01</ele>
        <time>2019-06-01T14:00:32.000Z</time>
      </trkpt>
      <trkpt lat="43.40604" lon="3.66426">
        <ele>25.01</ele>
        <time>2019-06-01T14:00:37.000Z</time>
      </trkpt>
      <trkpt lat="43.40584" lon="3.66405">
        <ele>24.76</ele>
        <time>2019-06-01T14:00:42.000Z</time>
      </trkpt>
      <trkpt lat="43.40563" lon="3.66382">
        <ele>23.78</ele>
        <time>2019-06-01T14:00:47.000Z</time>
      </trkpt>
      <trkpt lat="43.4054" lon="3.66359">
        <ele>22.77</ele>
        <time>2019-06-01T14:00:52.000Z</time>
      </trkpt>
      <trkpt lat="43.40517" lon="3.66336">
        <ele>22.76</ele>
        <time>2019-06-01T14:00:57.000Z</time>
      </trkpt>
      <trkpt lat="43.40494" lon="3.6631">
        <ele>20.78</ele>
        <time>2019-06-01T14:01:02.000Z</time>
      </trkpt>
      <trkpt lat="43.40468" lon="3.66286">
        <ele>18.77</ele>
        <time>2019-06-01T14:01:07.000Z</time>
      </trkpt>
      <trkpt lat="43.40441" lon="3.66266">
        <ele>17.97</ele>
        <time>2019-06-01T14:01:12.000Z</time>
      </trkpt>
      <trkpt lat="43.40411" lon="3.66251">
        <ele>18.71</ele>
        <time>2019-06-01T14:01:17.000Z</time>
      </trkpt>
      <trkpt lat="43.40381" lon="3.66238">
        <ele>17.78</ele>
        <time>2019-06-01T14:01:22.000Z</time>
      </trkpt>
      <trkpt lat="43.40349" lon="3.66226">
        <ele>18.58</ele>
        <time>2019-06-01T14:02:12.000Z</time>
      </trkpt>
      <trkpt lat="43.40316" lon="3.66216">
        <ele>17.78</ele>
        <time>2019-06-01T14:02:17.000Z</time>
      </trkpt>
      <trkpt lat="43.40284" lon="3.66203">
        <ele>16.08</ele>
        <time>2019-06-01T14:02:22.000Z</time>
      </trkpt>
      <trkpt lat="43.40251" lon="3.66194">
        <ele>13.97</ele>
        <time>2019-06-01T14:02:27.000Z</time>
      </trkpt>
      <trkpt lat="43.40218" lon="3.66201">
        <ele>13.77</ele>
        <time>2019-06-01T14:02:32.000Z</time>
      </trkpt>
      <trkpt lat="43.40187" lon="3.662">
        <ele>12.77</ele>
        <time>2019-06-01T14:02:37.000Z</time>
      </trkpt>
      <trkpt lat="43.40176" lon="3.66174">
        <ele>12.77</ele>
        <time>2019-06-01T14:02:42.000Z</time>
      </trkpt>
      <trkpt lat="43.40165" lon="3.66141">
        <ele>11.97</ele>
        <time>2019-06-01T14:02:47.000Z</time>
      </trkpt>
      <trkpt lat="43.40152" lon="3.66105">
        <ele>10.83</ele>
        <time>2019-06-01T14:02:52.000Z</time>
      </trkpt>
      <trkpt lat="43.40147" lon="3.66059">
        <ele>9.78</ele>
        <time>2019-06-01T14:02:57.000Z</time>
      </trkpt>
      <trkpt lat="43.40133" lon="3.66014">
        <ele>8.02</ele>
        <time>2019-06-01T14:03:03.000Z</time>
      </trkpt>
      <trkpt lat="43.40111" lon="3.65972">
        <ele>6.77</ele>
        <time>2019-06-01T14:03:08.000Z</time>
      </trkpt>
      <trkpt lat="43.40089" lon="3.6593">
        <ele>5.77</ele>
        <time>2019-06-01T14:03:13.000Z</time>
      </trkpt>
      <trkpt lat="43.40063" lon="3.65895">
        <ele>4.77</ele>
        <time>2019-06-01T14:03:18.000Z</time>
      </trkpt>
      <trkpt lat="43.4003" lon="3.65875">
        <ele>3.02</ele>
        <time>2019-06-01T14:03:25.000Z</time>
      </trkpt>
      <trkpt lat="43.39993" lon="3.65873">
        <ele>2.77</ele>
        <time>2019-06-01T14:03:30.000Z</time>
      </trkpt>
      <trkpt lat="43.39959" lon="3.65863">
        <ele>1.79</ele>
        <time>2019-06-01T14:03:38.000Z</time>
      </trkpt>
      <trkpt lat="43.39938" lon="3.65826">
        <ele>2.56</ele>
        <time>2019-06-01T14:03:43.000Z</time>
      </trkpt>
      <trkpt lat="43.39917" lon="3.65787">
        <ele>5.45</ele>
        <time>2019-06-01T14:03:48.000Z</time>
      </trkpt>
      <trkpt lat="43.39895" lon="3.65745">
        <ele>7.52</ele>
        <time>2019-06-01T14:03:53.000Z</time>
      </trkpt>
      <trkpt lat="43.39877" lon="3.65711">
        <ele>7.72</ele>
        <time>2019-06-01T14:03:58.000Z</time>
      </trkpt>
      <trkpt lat="43.39858" lon="3.65672">
        <ele>6.84</ele>
        <time>2019-06-01T14:04:03.000Z</time>
      </trkpt>
      <trkpt lat="43.39847" lon="3.65647">
        <ele>5.77</ele>
        <time>2019-06-01T14:04:08.000Z</time>
      </trkpt>
      <trkpt lat="43.39839" lon="3.65643">
        <ele>7.5</ele>
        <time>2019-06-01T14:04:13.000Z</time>
      </trkpt>
      <trkpt lat="43.39821" lon="3.65619">
        <ele>8.76</ele>
        <time>2019-06-01T14:04:18.000Z</time>
      </trkpt>
      <trkpt lat="43.39798" lon="3.65596">
        <ele>7.78</ele>
        <time>2019-06-01T14:04:23.000Z</time>
      </trkpt>
      <trkpt lat="43.39773" lon="3.65573">
        <ele>5.79</ele>
        <time>2019-06-01T14:04:28.000Z</time>
      </trkpt>
      <trkpt lat="43.39745" lon="3.65557">
        <ele>5.77</ele>
        <time>2019-06-01T14:04:33.000Z</time>
      </trkpt>
      <trkpt lat="43.39716" lon="3.65554">
        <ele>4.08</ele>
        <time>2019-06-01T14:04:38.000Z</time>
      </trkpt>
      <trkpt lat="43.39685" lon="3.65542">
        <ele>4.72</ele>
        <time>2019-06-01T14:04:43.000Z</time>
      </trkpt>
      <trkpt lat="43.39657" lon="3.65521">
        <ele>3.78</ele>
        <time>2019-06-01T14:04:48.000Z</time>
      </trkpt>
      <trkpt lat="43.39634" lon="3.65491">
        <ele>2.77</ele>
        <time>2019-06-01T14:04:53.000Z</time>
      </trkpt>
      <trkpt lat="43.39612" lon="3.6547">
        <ele>2.54</ele>
        <time>2019-06-01T14:04:58.000Z</time>
      </trkpt>
      <trkpt lat="43.39622" lon="3.65471">
        <ele>1.77</ele>
        <time>2019-06-01T14:05:03.000Z</time>
      </trkpt>
      <trkpt lat="43.39633" lon="3.65465">
        <ele>1.97</ele>
        <time>2019-06-01T14:05:08.000Z</time>
      </trkpt>
      <trkpt lat="43.39635" lon="3.65445">
        <ele>2.02</ele>
        <time>2019-06-01T14:05:13.000Z</time>
      </trkpt>
      <trkpt lat="43.39641" lon="3.65434">
        <ele>2.53</ele>
        <time>2019-06-01T14:05:18.000Z</time>
      </trkpt>
      <trkpt lat="43.39636" lon="3.65448">
        <ele>2.71</ele>
        <time>2019-06-01T14:05:23.000Z</time>
      </trkpt>
      <trkpt lat="43.39631" lon="3.65468">
        <ele>3.77</ele>
        <time>2019-06-01T14:05:28.000Z</time>
      </trkpt>
      <trkpt lat="43.39621" lon="3.65471">
        <ele>2.03</ele>
        <time>2019-06-01T14:05:33.000Z</time>
      </trkpt>
      <trkpt lat="43.39603" lon="3.65465">
        <ele>1.77</ele>
        <time>2019-06-01T14:05:38.000Z</time>
      </trkpt>
      <trkpt lat="43.39581" lon="3.65449">
        <ele>2.77</ele>
        <time>2019-06-01T14:05:43.000Z</time>
      </trkpt>
      <trkpt lat="43.39557" lon="3.65432">
        <ele>2.77</ele>
        <time>2019-06-01T14:05:48.000Z</time>
      </trkpt>
      <trkpt lat="43.3953" lon="3.65415">
        <ele>2.77</ele>
        <time>2019-06-01T14:05:57.000Z</time>
      </trkpt>
      <trkpt lat="43.39502" lon="3.65395">
        <ele>2.77</ele>
        <time>2019-06-01T14:06:02.000Z</time>
      </trkpt>
      <trkpt lat="43.39472" lon="3.65375">
        <ele>2.77</ele>
        <time>2019-06-01T14:06:07.000Z</time>
      </trkpt>
      <trkpt lat="43.39441" lon="3.65353">
        <ele>1.79</ele>
        <time>2019-06-01T14:06:12.000Z</time>
      </trkpt>
      <trkpt lat="43.39411" lon="3.65332">
        <ele>1.78</ele>
        <time>2019-06-01T14:06:17.000Z</time>
      </trkpt>
      <trkpt lat="43.39382" lon="3.65312">
        <ele>1.76</ele>
        <time>2019-06-01T14:06:23.000Z</time>
      </trkpt>
      <trkpt lat="43.39354" lon="3.65292">
        <ele>1.78</ele>
        <time>2019-06-01T14:06:28.000Z</time>
      </trkpt>
      <trkpt lat="43.39326" lon="3.65272">
        <ele>0.78</ele>
        <time>2019-06-01T14:06:33.000Z</time>
      </trkpt>
      <trkpt lat="43.39298" lon="3.65251">
        <ele>2.71</ele>
        <time>2019-06-01T14:06:38.000Z</time>
      </trkpt>
      <trkpt lat="43.39271" lon="3.65231">
        <ele>2.78</ele>
        <time>2019-06-01T14:06:43.000Z</time>
      </trkpt>
      <trkpt lat="43.39243" lon="3.65213">
        <ele>2.78</ele>
        <time>2019-06-01T14:06:48.000Z</time>
      </trkpt>
      <trkpt lat="43.39217" lon="3.65194">
        <ele>3.77</ele>
        <time>2019-06-01T14:06:53.000Z</time>
      </trkpt>
      <trkpt lat="43.39189" lon="3.65174">
        <ele>1.79</ele>
        <time>2019-06-01T14:06:58.000Z</time>
      </trkpt>
      <trkpt lat="43.39162" lon="3.65154">
        <ele>2.77</ele>
        <time>2019-06-01T14:07:03.000Z</time>
      </trkpt>
      <trkpt lat="43.39135" lon="3.65134">
        <ele>1.84</ele>
        <time>2019-06-01T14:07:08.000Z</time>
      </trkpt>
      <trkpt lat="43.39108" lon="3.65113">
        <ele>1.03</ele>
        <time>2019-06-01T14:07:13.000Z</time>
      </trkpt>
      <trkpt lat="43.39081" lon="3.65092">
        <ele>1.78</ele>
        <time>2019-06-01T14:07:18.000Z</time>
      </trkpt>
      <trkpt lat="43.39055" lon="3.65068">
        <ele>1.03</ele>
        <time>2019-06-01T14:07:23.000Z</time>
      </trkpt>
      <trkpt lat="43.39029" lon="3.65042">
        <ele>0.79</ele>
        <time>2019-06-01T14:07:28.000Z</time>
      </trkpt>
      <trkpt lat="43.39003" lon="3.65017">
        <ele>0.78</ele>
        <time>2019-06-01T14:07:33.000Z</time>
      </trkpt>
      <trkpt lat="43.38982" lon="3.64987">
        <ele>0.78</ele>
        <time>2019-06-01T14:07:38.000Z</time>
      </trkpt>
      <trkpt lat="43.38959" lon="3.65007">
        <ele>0.84</ele>
        <time>2019-06-01T14:07:43.000Z</time>
      </trkpt>
      <trkpt lat="43.38944" lon="3.6501">
        <ele>0.03</ele>
        <time>2019-06-01T14:07:48.000Z</time>
      </trkpt>
      <trkpt lat="43.38944" lon="3.65024">
        <ele>2.53</ele>
        <time>2019-06-01T14:07:53.000Z</time>
      </trkpt>
      <trkpt lat="43.38929" lon="3.6503">
        <ele>2.78</ele>
        <time>2019-06-01T14:07:58.000Z</time>
      </trkpt>
      <trkpt lat="43.38907" lon="3.65022">
        <ele>2.78</ele>
        <time>2019-06-01T14:08:03.000Z</time>
      </trkpt>
      <trkpt lat="43.38889" lon="3.65016">
        <ele>2.78</ele>
        <time>2019-06-01T14:08:08.000Z</time>
      </trkpt>
      <trkpt lat="43.38881" lon="3.64997">
        <ele>2.78</ele>
        <time>2019-06-01T14:08:13.000Z</time>
      </trkpt>
      <trkpt lat="43.38875" lon="3.64985">
        <ele>2.78</ele>
        <time>2019-06-01T14:08:18.000Z</time>
      </trkpt>
      <trkpt lat="43.38869" lon="3.6497">
        <ele>1.8</ele>
        <time>2019-06-01T14:08:23.000Z</time>
      </trkpt>
      <trkpt lat="43.38854" lon="3.64945">
        <ele>2.03</ele>
        <time>2019-06-01T14:08:28.000Z</time>
      </trkpt>
      <trkpt lat="43.38837" lon="3.64915">
        <ele>1.78</ele>
        <time>2019-06-01T14:08:33.000Z</time>
      </trkpt>
      <trkpt lat="43.38818" lon="3.64881">
        <ele>1.78</ele>
        <time>2019-06-01T14:08:38.000Z</time>
      </trkpt>
      <trkpt lat="43.388" lon="3.64846">
        <ele>0.79</ele>
        <time>2019-06-01T14:08:43.000Z</time>
      </trkpt>
      <trkpt lat="43.38778" lon="3.64813">
        <ele>0.78</ele>
        <time>2019-06-01T14:08:48.000Z</time>
      </trkpt>
      <trkpt lat="43.38755" lon="3.64783">
        <ele>0.78</ele>
        <time>2019-06-01T14:08:53.000Z</time>
      </trkpt>
      <trkpt lat="43.3873" lon="3.64755">
        <ele>0.78</ele>
        <time>2019-06-01T14:08:58.000Z</time>
      </trkpt>
      <trkpt lat="43.38709" lon="3.64721">
        <ele>1.53</ele>
        <time>2019-06-01T14:09:03.000Z</time>
      </trkpt>
      <trkpt lat="43.38687" lon="3.64687">
        <ele>0.79</ele>
        <time>2019-06-01T14:09:08.000Z</time>
      </trkpt>
      <trkpt lat="43.38664" lon="3.64652">
        <ele>1.72</ele>
        <time>2019-06-01T14:09:13.000Z</time>
      </trkpt>
      <trkpt lat="43.38642" lon="3.64615">
        <ele>1.78</ele>
        <time>2019-06-01T14:09:18.000Z</time>
      </trkpt>
      <trkpt lat="43.38619" lon="3.6458">
        <ele>1.74</ele>
        <time>2019-06-01T14:09:23.000Z</time>
      </trkpt>
      <trkpt lat="43.38596" lon="3.64544">
        <ele>1.78</ele>
        <time>2019-06-01T14:09:28.000Z</time>
      </trkpt>
      <trkpt lat="43.38574" lon="3.64508">
        <ele>1.78</ele>
        <time>2019-06-01T14:09:33.000Z</time>
      </trkpt>
      <trkpt lat="43.38553" lon="3.64473">
        <ele>1.78</ele>
        <time>2019-06-01T14:09:38.000Z</time>
      </trkpt>
      <trkpt lat="43.38531" lon="3.64439">
        <ele>0.85</ele>
        <time>2019-06-01T14:09:43.000Z</time>
      </trkpt>
      <trkpt lat="43.38509" lon="3.64403">
        <ele>0.78</ele>
        <time>2019-06-01T14:09:48.000Z</time>
      </trkpt>
      <trkpt lat="43.38487" lon="3.64368">
        <ele>1.77</ele>
        <time>2019-06-01T14:09:53.000Z</time>
      </trkpt>
      <trkpt lat="43.38465" lon="3.64332">
        <ele>1.54</ele>
        <time>2019-06-01T14:09:58.000Z</time>
      </trkpt>
      <trkpt lat="43.38444" lon="3.64297">
        <ele>1.78</ele>
        <time>2019-06-01T14:10:03.000Z</time>
      </trkpt>
      <trkpt lat="43.38421" lon="3.64262">
        <ele>0.85</ele>
        <time>2019-06-01T14:10:08.000Z</time>
      </trkpt>
      <trkpt lat="43.384" lon="3.64226">
        <ele>1.03</ele>
        <time>2019-06-01T14:10:13.000Z</time>
      </trkpt>
      <trkpt lat="43.38378" lon="3.64191">
        <ele>1.78</ele>
        <time>2019-06-01T14:10:18.000Z</time>
      </trkpt>
      <trkpt lat="43.38355" lon="3.64157">
        <ele>0.79</ele>
        <time>2019-06-01T14:10:23.000Z</time>
      </trkpt>
      <trkpt lat="43.38335" lon="3.64126">
        <ele>0.79</ele>
        <time>2019-06-01T14:10:28.000Z</time>
      </trkpt>
      <trkpt lat="43.38323" lon="3.64103">
        <ele>0.79</ele>
        <time>2019-06-01T14:10:33.000Z</time>
      </trkpt>
      <trkpt lat="43.3831" lon="3.64082">
        <ele>0.79</ele>
        <time>2019-06-01T14:10:38.000Z</time>
      </trkpt>
      <trkpt lat="43.38293" lon="3.64054">
        <ele>0.79</ele>
        <time>2019-06-01T14:10:43.000Z</time>
      </trkpt>
      <trkpt lat="43.38273" lon="3.64023">
        <ele>0.79</ele>
        <time>2019-06-01T14:10:48.000Z</time>
      </trkpt>
      <trkpt lat="43.38253" lon="3.63991">
        <ele>1.77</ele>
        <time>2019-06-01T14:10:53.000Z</time>
      </trkpt>
      <trkpt lat="43.38232" lon="3.63958">
        <ele>0.85</ele>
        <time>2019-06-01T14:10:58.000Z</time>
      </trkpt>
      <trkpt lat="43.38211" lon="3.63923">
        <ele>0.79</ele>
        <time>2019-06-01T14:11:03.000Z</time>
      </trkpt>
      <trkpt lat="43.38189" lon="3.63889">
        <ele>0.79</ele>
        <time>2019-06-01T14:11:08.000Z</time>
      </trkpt>
      <trkpt lat="43.38167" lon="3.63854">
        <ele>1.02</ele>
        <time>2019-06-01T14:11:13.000Z</time>
      </trkpt>
      <trkpt lat="43.38146" lon="3.63819">
        <ele>1.77</ele>
        <time>2019-06-01T14:11:18.000Z</time>
      </trkpt>
      <trkpt lat="43.38124" lon="3.63784">
        <ele>1.79</ele>
        <time>2019-06-01T14:11:23.000Z</time>
      </trkpt>
      <trkpt lat="43.38102" lon="3.63749">
        <ele>1.79</ele>
        <time>2019-06-01T14:11:28.000Z</time>
      </trkpt>
      <trkpt lat="43.38081" lon="3.63715">
        <ele>1.79</ele>
        <time>2019-06-01T14:11:33.000Z</time>
      </trkpt>
      <trkpt lat="43.38059" lon="3.6368">
        <ele>1.79</ele>
        <time>2019-06-01T14:11:38.000Z</time>
      </trkpt>
      <trkpt lat="43.38037" lon="3.63645">
        <ele>1.79</ele>
        <time>2019-06-01T14:11:43.000Z</time>
      </trkpt>
      <trkpt lat="43.38015" lon="3.6361">
        <ele>1.79</ele>
        <time>2019-06-01T14:11:48.000Z</time>
      </trkpt>
      <trkpt lat="43.37993" lon="3.63574">
        <ele>1.79</ele>
        <time>2019-06-01T14:11:53.000Z</time>
      </trkpt>
      <trkpt lat="43.37972" lon="3.6354">
        <ele>1.79</ele>
        <time>2019-06-01T14:11:58.000Z</time>
      </trkpt>
      <trkpt lat="43.3795" lon="3.63507">
        <ele>1.79</ele>
        <time>2019-06-01T14:12:03.000Z</time>
      </trkpt>
      <trkpt lat="43.37928" lon="3.63473">
        <ele>1.79</ele>
        <time>2019-06-01T14:12:08.000Z</time>
      </trkpt>
      <trkpt lat="43.37907" lon="3.63439">
        <ele>1.79</ele>
        <time>2019-06-01T14:12:13.000Z</time>
      </trkpt>
      <trkpt lat="43.37887" lon="3.63406">
        <ele>2.03</ele>
        <time>2019-06-01T14:12:18.000Z</time>
      </trkpt>
      <trkpt lat="43.37865" lon="3.6337">
        <ele>2.04</ele>
        <time>2019-06-01T14:12:23.000Z</time>
      </trkpt>
      <trkpt lat="43.37843" lon="3.63335">
        <ele>1.79</ele>
        <time>2019-06-01T14:12:28.000Z</time>
      </trkpt>
      <trkpt lat="43.37821" lon="3.63301">
        <ele>1.79</ele>
        <time>2019-06-01T14:12:33.000Z</time>
      </trkpt>
      <trkpt lat="43.378" lon="3.63267">
        <ele>0.85</ele>
        <time>2019-06-01T14:12:38.000Z</time>
      </trkpt>
      <trkpt lat="43.37779" lon="3.63235">
        <ele>0.79</ele>
        <time>2019-06-01T14:12:43.000Z</time>
      </trkpt>
      <trkpt lat="43.37757" lon="3.63202">
        <ele>0.79</ele>
        <time>2019-06-01T14:12:48.000Z</time>
      </trkpt>
      <trkpt lat="43.37734" lon="3.63169">
        <ele>1.77</ele>
        <time>2019-06-01T14:12:53.000Z</time>
      </trkpt>
      <trkpt lat="43.37713" lon="3.63134">
        <ele>2.54</ele>
        <time>2019-06-01T14:12:58.000Z</time>
      </trkpt>
      <trkpt lat="43.37691" lon="3.63102">
        <ele>2.79</ele>
        <time>2019-06-01T14:13:03.000Z</time>
      </trkpt>
      <trkpt lat="43.37671" lon="3.6307">
        <ele>2.79</ele>
        <time>2019-06-01T14:13:08.000Z</time>
      </trkpt>
      <trkpt lat="43.37649" lon="3.63038">
        <ele>2.79</ele>
        <time>2019-06-01T14:13:13.000Z</time>
      </trkpt>
      <trkpt lat="43.37628" lon="3.63005">
        <ele>1.79</ele>
        <time>2019-06-01T14:13:18.000Z</time>
      </trkpt>
      <trkpt lat="43.37608" lon="3.62974">
        <ele>1.79</ele>
        <time>2019-06-01T14:13:23.000Z</time>
      </trkpt>
      <trkpt lat="43.37592" lon="3.62947">
        <ele>1.04</ele>
        <time>2019-06-01T14:13:28.000Z</time>
      </trkpt>
      <trkpt lat="43.37575" lon="3.62919">
        <ele>1.6</ele>
        <time>2019-06-01T14:13:33.000Z</time>
      </trkpt>
      <trkpt lat="43.37558" lon="3.6289">
        <ele>0.79</ele>
        <time>2019-06-01T14:13:38.000Z</time>
      </trkpt>
      <trkpt lat="43.3754" lon="3.62864">
        <ele>0.79</ele>
        <time>2019-06-01T14:13:43.000Z</time>
      </trkpt>
      <trkpt lat="43.37519" lon="3.62839">
        <ele>0.79</ele>
        <time>2019-06-01T14:13:48.000Z</time>
      </trkpt>
      <trkpt lat="43.37499" lon="3.62812">
        <ele>0.79</ele>
        <time>2019-06-01T14:13:53.000Z</time>
      </trkpt>
      <trkpt lat="43.37475" lon="3.62779">
        <ele>1.54</ele>
        <time>2019-06-01T14:13:58.000Z</time>
      </trkpt>
      <trkpt lat="43.37452" lon="3.62746">
        <ele>1.79</ele>
        <time>2019-06-01T14:14:03.000Z</time>
      </trkpt>
      <trkpt lat="43.37429" lon="3.62712">
        <ele>1.79</ele>
        <time>2019-06-01T14:14:08.000Z</time>
      </trkpt>
      <trkpt lat="43.37406" lon="3.62677">
        <ele>1.79</ele>
        <time>2019-06-01T14:14:13.000Z</time>
      </trkpt>
      <trkpt lat="43.37383" lon="3.62643">
        <ele>1.79</ele>
        <time>2019-06-01T14:14:18.000Z</time>
      </trkpt>
      <trkpt lat="43.37361" lon="3.62609">
        <ele>1.79</ele>
        <time>2019-06-01T14:14:23.000Z</time>
      </trkpt>
      <trkpt lat="43.37337" lon="3.62575">
        <ele>1.79</ele>
        <time>2019-06-01T14:14:28.000Z</time>
      </trkpt>
      <trkpt lat="43.37314" lon="3.62543">
        <ele>1.04</ele>
        <time>2019-06-01T14:14:33.000Z</time>
      </trkpt>
      <trkpt lat="43.37291" lon="3.6251">
        <ele>1.59</ele>
        <time>2019-06-01T14:14:38.000Z</time>
      </trkpt>
      <trkpt lat="43.37269" lon="3.62479">
        <ele>1.79</ele>
        <time>2019-06-01T14:14:43.000Z</time>
      </trkpt>
      <trkpt lat="43.37246" lon="3.62446">
        <ele>1.79</ele>
        <time>2019-06-01T14:14:48.000Z</time>
      </trkpt>
      <trkpt lat="43.37223" lon="3.62414">
        <ele>1.79</ele>
        <time>2019-06-01T14:14:53.000Z</time>
      </trkpt>
      <trkpt lat="43.37201" lon="3.6238">
        <ele>0.86</ele>
        <time>2019-06-01T14:14:58.000Z</time>
      </trkpt>
      <trkpt lat="43.37178" lon="3.62347">
        <ele>0.79</ele>
        <time>2019-06-01T14:15:03.000Z</time>
      </trkpt>
      <trkpt lat="43.37155" lon="3.62316">
        <ele>0.79</ele>
        <time>2019-06-01T14:15:08.000Z</time>
      </trkpt>
      <trkpt lat="43.37133" lon="3.62284">
        <ele>0.79</ele>
        <time>2019-06-01T14:15:13.000Z</time>
      </trkpt>
      <trkpt lat="43.37111" lon="3.62252">
        <ele>0.79</ele>
        <time>2019-06-01T14:15:18.000Z</time>
      </trkpt>
      <trkpt lat="43.37088" lon="3.6222">
        <ele>1.79</ele>
        <time>2019-06-01T14:15:23.000Z</time>
      </trkpt>
      <trkpt lat="43.37066" lon="3.62187">
        <ele>1.03</ele>
        <time>2019-06-01T14:15:28.000Z</time>
      </trkpt>
      <trkpt lat="43.37043" lon="3.62155">
        <ele>1.79</ele>
        <time>2019-06-01T14:15:33.000Z</time>
      </trkpt>
      <trkpt lat="43.3702" lon="3.6212">
        <ele>1.8</ele>
        <time>2019-06-01T14:15:38.000Z</time>
      </trkpt>
      <trkpt lat="43.36996" lon="3.62088">
        <ele>1.8</ele>
        <time>2019-06-01T14:15:43.000Z</time>
      </trkpt>
      <trkpt lat="43.36972" lon="3.62057">
        <ele>2.73</ele>
        <time>2019-06-01T14:15:48.000Z</time>
      </trkpt>
      <trkpt lat="43.3695" lon="3.62026">
        <ele>1.8</ele>
        <time>2019-06-01T14:15:53.000Z</time>
      </trkpt>
      <trkpt lat="43.36928" lon="3.61994">
        <ele>1.8</ele>
        <time>2019-06-01T14:15:58.000Z</time>
      </trkpt>
      <trkpt lat="43.36907" lon="3.61961">
        <ele>1.8</ele>
        <time>2019-06-01T14:16:03.000Z</time>
      </trkpt>
      <trkpt lat="43.36885" lon="3.61928">
        <ele>1.8</ele>
        <time>2019-06-01T14:16:08.000Z</time>
      </trkpt>
      <trkpt lat="43.36862" lon="3.61896">
        <ele>1.8</ele>
        <time>2019-06-01T14:16:13.000Z</time>
      </trkpt>
      <trkpt lat="43.36837" lon="3.61868">
        <ele>1.8</ele>
        <time>2019-06-01T14:16:18.000Z</time>
      </trkpt>
      <trkpt lat="43.36811" lon="3.61838">
        <ele>1.8</ele>
        <time>2019-06-01T14:16:23.000Z</time>
      </trkpt>
      <trkpt lat="43.36789" lon="3.61807">
        <ele>1.81</ele>
        <time>2019-06-01T14:16:28.000Z</time>
      </trkpt>
      <trkpt lat="43.36769" lon="3.61775">
        <ele>2.78</ele>
        <time>2019-06-01T14:16:33.000Z</time>
      </trkpt>
      <trkpt lat="43.36746" lon="3.61743">
        <ele>2.8</ele>
        <time>2019-06-01T14:16:38.000Z</time>
      </trkpt>
      <trkpt lat="43.36722" lon="3.61715">
        <ele>2.8</ele>
        <time>2019-06-01T14:16:43.000Z</time>
      </trkpt>
      <trkpt lat="43.367" lon="3.61685">
        <ele>2.61</ele>
        <time>2019-06-01T14:16:48.000Z</time>
      </trkpt>
      <trkpt lat="43.36681" lon="3.61655">
        <ele>1.8</ele>
        <time>2019-06-01T14:16:53.000Z</time>
      </trkpt>
      <trkpt lat="43.3666" lon="3.61623">
        <ele>1.8</ele>
        <time>2019-06-01T14:16:58.000Z</time>
      </trkpt>
      <trkpt lat="43.36636" lon="3.61597">
        <ele>1.8</ele>
        <time>2019-06-01T14:17:03.000Z</time>
      </trkpt>
      <trkpt lat="43.36615" lon="3.61569">
        <ele>1.8</ele>
        <time>2019-06-01T14:17:08.000Z</time>
      </trkpt>
      <trkpt lat="43.366" lon="3.61538">
        <ele>2.55</ele>
        <time>2019-06-01T14:17:13.000Z</time>
      </trkpt>
      <trkpt lat="43.36581" lon="3.61507">
        <ele>1.8</ele>
        <time>2019-06-01T14:17:18.000Z</time>
      </trkpt>
      <trkpt lat="43.3656" lon="3.61476">
        <ele>2.74</ele>
        <time>2019-06-01T14:17:23.000Z</time>
      </trkpt>
      <trkpt lat="43.36539" lon="3.61445">
        <ele>2.57</ele>
        <time>2019-06-01T14:17:28.000Z</time>
      </trkpt>
      <trkpt lat="43.3652" lon="3.61412">
        <ele>1.8</ele>
        <time>2019-06-01T14:17:33.000Z</time>
      </trkpt>
      <trkpt lat="43.36502" lon="3.61378">
        <ele>0.82</ele>
        <time>2019-06-01T14:17:38.000Z</time>
      </trkpt>
      <trkpt lat="43.36484" lon="3.61343">
        <ele>0.99</ele>
        <time>2019-06-01T14:17:43.000Z</time>
      </trkpt>
      <trkpt lat="43.36464" lon="3.61312">
        <ele>1.57</ele>
        <time>2019-06-01T14:17:48.000Z</time>
      </trkpt>
      <trkpt lat="43.36443" lon="3.61279">
        <ele>0.8</ele>
        <time>2019-06-01T14:17:53.000Z</time>
      </trkpt>
      <trkpt lat="43.36423" lon="3.61247">
        <ele>1.55</ele>
        <time>2019-06-01T14:17:58.000Z</time>
      </trkpt>
      <trkpt lat="43.36403" lon="3.61213">
        <ele>1.8</ele>
        <time>2019-06-01T14:18:03.000Z</time>
      </trkpt>
      <trkpt lat="43.36383" lon="3.61181">
        <ele>1.8</ele>
        <time>2019-06-01T14:18:08.000Z</time>
      </trkpt>
      <trkpt lat="43.36363" lon="3.61148">
        <ele>2.74</ele>
        <time>2019-06-01T14:18:13.000Z</time>
      </trkpt>
      <trkpt lat="43.36342" lon="3.61117">
        <ele>2.05</ele>
        <time>2019-06-01T14:18:18.000Z</time>
      </trkpt>
      <trkpt lat="43.36321" lon="3.61085">
        <ele>1.8</ele>
        <time>2019-06-01T14:18:23.000Z</time>
      </trkpt>
      <trkpt lat="43.36302" lon="3.61053">
        <ele>1.75</ele>
        <time>2019-06-01T14:18:28.000Z</time>
      </trkpt>
      <trkpt lat="43.36282" lon="3.6102">
        <ele>1.8</ele>
        <time>2019-06-01T14:18:33.000Z</time>
      </trkpt>
      <trkpt lat="43.36262" lon="3.60988">
        <ele>1.05</ele>
        <time>2019-06-01T14:18:38.000Z</time>
      </trkpt>
      <trkpt lat="43.36242" lon="3.60955">
        <ele>0.86</ele>
        <time>2019-06-01T14:18:43.000Z</time>
      </trkpt>
      <trkpt lat="43.36222" lon="3.60922">
        <ele>0.8</ele>
        <time>2019-06-01T14:18:48.000Z</time>
      </trkpt>
      <trkpt lat="43.36202" lon="3.60889">
        <ele>0.8</ele>
        <time>2019-06-01T14:18:53.000Z</time>
      </trkpt>
      <trkpt lat="43.36182" lon="3.60856">
        <ele>1.74</ele>
        <time>2019-06-01T14:18:58.000Z</time>
      </trkpt>
      <trkpt lat="43.36161" lon="3.60824">
        <ele>1.8</ele>
        <time>2019-06-01T14:19:03.000Z</time>
      </trkpt>
      <trkpt lat="43.36141" lon="3.60793">
        <ele>0.8</ele>
        <time>2019-06-01T14:19:08.000Z</time>
      </trkpt>
      <trkpt lat="43.36121" lon="3.6076">
        <ele>1.04</ele>
        <time>2019-06-01T14:19:13.000Z</time>
      </trkpt>
      <trkpt lat="43.36101" lon="3.60728">
        <ele>1.8</ele>
        <time>2019-06-01T14:19:18.000Z</time>
      </trkpt>
      <trkpt lat="43.36079" lon="3.607">
        <ele>2.55</ele>
        <time>2019-06-01T14:19:23.000Z</time>
      </trkpt>
      <trkpt lat="43.36052" lon="3.60708">
        <ele>2.04</ele>
        <time>2019-06-01T14:19:28.000Z</time>
      </trkpt>
      <trkpt lat="43.3603" lon="3.60717">
        <ele>2.74</ele>
        <time>2019-06-01T14:19:33.000Z</time>
      </trkpt>
      <trkpt lat="43.36012" lon="3.60692">
        <ele>1.87</ele>
        <time>2019-06-01T14:19:38.000Z</time>
      </trkpt>
      <trkpt lat="43.35993" lon="3.60661">
        <ele>2.55</ele>
        <time>2019-06-01T14:19:43.000Z</time>
      </trkpt>
      <trkpt lat="43.35974" lon="3.6063">
        <ele>2.8</ele>
        <time>2019-06-01T14:19:48.000Z</time>
      </trkpt>
      <trkpt lat="43.35955" lon="3.60598">
        <ele>3.74</ele>
        <time>2019-06-01T14:19:53.000Z</time>
      </trkpt>
      <trkpt lat="43.35935" lon="3.60565">
        <ele>3.56</ele>
        <time>2019-06-01T14:19:58.000Z</time>
      </trkpt>
      <trkpt lat="43.35917" lon="3.60536">
        <ele>3.8</ele>
        <time>2019-06-01T14:20:03.000Z</time>
      </trkpt>
      <trkpt lat="43.35896" lon="3.60503">
        <ele>2.81</ele>
        <time>2019-06-01T14:20:08.000Z</time>
      </trkpt>
      <trkpt lat="43.35874" lon="3.60468">
        <ele>2.81</ele>
        <time>2019-06-01T14:20:13.000Z</time>
      </trkpt>
      <trkpt lat="43.35854" lon="3.60434">
        <ele>2.81</ele>
        <time>2019-06-01T14:20:18.000Z</time>
      </trkpt>
      <trkpt lat="43.35833" lon="3.60402">
        <ele>1.81</ele>
        <time>2019-06-01T14:20:23.000Z</time>
      </trkpt>
      <trkpt lat="43.35811" lon="3.60372">
        <ele>2.01</ele>
        <time>2019-06-01T14:20:28.000Z</time>
      </trkpt>
      <trkpt lat="43.35782" lon="3.60369">
        <ele>1.81</ele>
        <time>2019-06-01T14:20:33.000Z</time>
      </trkpt>
      <trkpt lat="43.35762" lon="3.60341">
        <ele>2.8</ele>
        <time>2019-06-01T14:20:38.000Z</time>
      </trkpt>
      <trkpt lat="43.35744" lon="3.60312">
        <ele>2.81</ele>
        <time>2019-06-01T14:20:43.000Z</time>
      </trkpt>
      <trkpt lat="43.35725" lon="3.60282">
        <ele>2.81</ele>
        <time>2019-06-01T14:20:48.000Z</time>
      </trkpt>
      <trkpt lat="43.35705" lon="3.60251">
        <ele>2.75</ele>
        <time>2019-06-01T14:20:53.000Z</time>
      </trkpt>
      <trkpt lat="43.35684" lon="3.60218">
        <ele>2.81</ele>
        <time>2019-06-01T14:20:58.000Z</time>
      </trkpt>
      <trkpt lat="43.35664" lon="3.60186">
        <ele>2</ele>
        <time>2019-06-01T14:21:03.000Z</time>
      </trkpt>
      <trkpt lat="43.35644" lon="3.60155">
        <ele>1.81</ele>
        <time>2019-06-01T14:21:08.000Z</time>
      </trkpt>
      <trkpt lat="43.35621" lon="3.60128">
        <ele>3.56</ele>
        <time>2019-06-01T14:21:13.000Z</time>
      </trkpt>
      <trkpt lat="43.35598" lon="3.60104">
        <ele>2.82</ele>
        <time>2019-06-01T14:21:18.000Z</time>
      </trkpt>
      <trkpt lat="43.35578" lon="3.60075">
        <ele>2.81</ele>
        <time>2019-06-01T14:21:23.000Z</time>
      </trkpt>
      <trkpt lat="43.35558" lon="3.60045">
        <ele>2.81</ele>
        <time>2019-06-01T14:21:28.000Z</time>
      </trkpt>
      <trkpt lat="43.35537" lon="3.60013">
        <ele>1.81</ele>
        <time>2019-06-01T14:21:33.000Z</time>
      </trkpt>
      <trkpt lat="43.35513" lon="3.59984">
        <ele>2.56</ele>
        <time>2019-06-01T14:21:38.000Z</time>
      </trkpt>
      <trkpt lat="43.35482" lon="3.59976">
        <ele>1.87</ele>
        <time>2019-06-01T14:21:43.000Z</time>
      </trkpt>
      <trkpt lat="43.35462" lon="3.59945">
        <ele>1.81</ele>
        <time>2019-06-01T14:21:48.000Z</time>
      </trkpt>
      <trkpt lat="43.35441" lon="3.59912">
        <ele>2</ele>
        <time>2019-06-01T14:21:53.000Z</time>
      </trkpt>
      <trkpt lat="43.35422" lon="3.59881">
        <ele>2.81</ele>
        <time>2019-06-01T14:21:58.000Z</time>
      </trkpt>
      <trkpt lat="43.35402" lon="3.5985">
        <ele>2.06</ele>
        <time>2019-06-01T14:22:03.000Z</time>
      </trkpt>
      <trkpt lat="43.35382" lon="3.59817">
        <ele>1.81</ele>
        <time>2019-06-01T14:22:08.000Z</time>
      </trkpt>
      <trkpt lat="43.3536" lon="3.59783">
        <ele>1.81</ele>
        <time>2019-06-01T14:22:13.000Z</time>
      </trkpt>
      <trkpt lat="43.35335" lon="3.59761">
        <ele>3.73</ele>
        <time>2019-06-01T14:22:18.000Z</time>
      </trkpt>
      <trkpt lat="43.35313" lon="3.59743">
        <ele>3.81</ele>
        <time>2019-06-01T14:22:23.000Z</time>
      </trkpt>
      <trkpt lat="43.35296" lon="3.59712">
        <ele>2.87</ele>
        <time>2019-06-01T14:22:28.000Z</time>
      </trkpt>
      <trkpt lat="43.35275" lon="3.59679">
        <ele>1.83</ele>
        <time>2019-06-01T14:22:33.000Z</time>
      </trkpt>
      <trkpt lat="43.35255" lon="3.59649">
        <ele>2.81</ele>
        <time>2019-06-01T14:22:38.000Z</time>
      </trkpt>
      <trkpt lat="43.35235" lon="3.59619">
        <ele>2.81</ele>
        <time>2019-06-01T14:22:43.000Z</time>
      </trkpt>
      <trkpt lat="43.35214" lon="3.59587">
        <ele>2.81</ele>
        <time>2019-06-01T14:22:48.000Z</time>
      </trkpt>
      <trkpt lat="43.35193" lon="3.59549">
        <ele>1.81</ele>
        <time>2019-06-01T14:22:53.000Z</time>
      </trkpt>
      <trkpt lat="43.35173" lon="3.59513">
        <ele>1.58</ele>
        <time>2019-06-01T14:22:58.000Z</time>
      </trkpt>
      <trkpt lat="43.35152" lon="3.59479">
        <ele>1.05</ele>
        <time>2019-06-01T14:23:03.000Z</time>
      </trkpt>
      <trkpt lat="43.35131" lon="3.59448">
        <ele>0.81</ele>
        <time>2019-06-01T14:23:08.000Z</time>
      </trkpt>
      <trkpt lat="43.35103" lon="3.59428">
        <ele>2</ele>
        <time>2019-06-01T14:23:13.000Z</time>
      </trkpt>
      <trkpt lat="43.35083" lon="3.59396">
        <ele>2</ele>
        <time>2019-06-01T14:23:18.000Z</time>
      </trkpt>
      <trkpt lat="43.35062" lon="3.59364">
        <ele>1</ele>
        <time>2019-06-01T14:23:23.000Z</time>
      </trkpt>
      <trkpt lat="43.35039" lon="3.59336">
        <ele>1</ele>
        <time>2019-06-01T14:23:28.000Z</time>
      </trkpt>
      <trkpt lat="43.35013" lon="3.59312">
        <ele>1</ele>
        <time>2019-06-01T14:23:33.000Z</time>
      </trkpt>
      <trkpt lat="43.34992" lon="3.59279">
        <ele>2</ele>
        <time>2019-06-01T14:23:38.000Z</time>
      </trkpt>
      <trkpt lat="43.34969" lon="3.5925">
        <ele>0.56</ele>
        <time>2019-06-01T14:23:43.000Z</time>
      </trkpt>
      <trkpt lat="43.34943" lon="3.59231">
        <ele>0.81</ele>
        <time>2019-06-01T14:23:48.000Z</time>
      </trkpt>
      <trkpt lat="43.34923" lon="3.592">
        <ele>2</ele>
        <time>2019-06-01T14:23:53.000Z</time>
      </trkpt>
      <trkpt lat="43.34903" lon="3.59168">
        <ele>2</ele>
        <time>2019-06-01T14:23:58.000Z</time>
      </trkpt>
      <trkpt lat="43.34881" lon="3.59134">
        <ele>2</ele>
        <time>2019-06-01T14:24:03.000Z</time>
      </trkpt>
      <trkpt lat="43.34862" lon="3.59103">
        <ele>2</ele>
        <time>2019-06-01T14:24:08.000Z</time>
      </trkpt>
      <trkpt lat="43.34844" lon="3.59073">
        <ele>1</ele>
        <time>2019-06-01T14:24:13.000Z</time>
      </trkpt>
      <trkpt lat="43.34818" lon="3.59058">
        <ele>1</ele>
        <time>2019-06-01T14:24:18.000Z</time>
      </trkpt>
      <trkpt lat="43.34794" lon="3.59034">
        <ele>2</ele>
        <time>2019-06-01T14:24:23.000Z</time>
      </trkpt>
      <trkpt lat="43.34767" lon="3.59032">
        <ele>2</ele>
        <time>2019-06-01T14:24:28.000Z</time>
      </trkpt>
      <trkpt lat="43.3475" lon="3.59055">
        <ele>2</ele>
        <time>2019-06-01T14:24:33.000Z</time>
      </trkpt>
      <trkpt lat="43.34732" lon="3.59063">
        <ele>2</ele>
        <time>2019-06-01T14:24:38.000Z</time>
      </trkpt>
      <trkpt lat="43.34712" lon="3.59048">
        <ele>2</ele>
        <time>2019-06-01T14:24:43.000Z</time>
      </trkpt>
      <trkpt lat="43.34693" lon="3.59024">
        <ele>1.07</ele>
        <time>2019-06-01T14:24:48.000Z</time>
      </trkpt>
      <trkpt lat="43.34673" lon="3.58998">
        <ele>1.8</ele>
        <time>2019-06-01T14:24:53.000Z</time>
      </trkpt>
      <trkpt lat="43.34653" lon="3.58972">
        <ele>1.82</ele>
        <time>2019-06-01T14:24:58.000Z</time>
      </trkpt>
      <trkpt lat="43.34633" lon="3.58946">
        <ele>2.05</ele>
        <time>2019-06-01T14:25:03.000Z</time>
      </trkpt>
      <trkpt lat="43.34612" lon="3.5892">
        <ele>2.01</ele>
        <time>2019-06-01T14:25:08.000Z</time>
      </trkpt>
      <trkpt lat="43.3459" lon="3.58893">
        <ele>2.77</ele>
        <time>2019-06-01T14:25:13.000Z</time>
      </trkpt>
      <trkpt lat="43.34567" lon="3.58866">
        <ele>3.76</ele>
        <time>2019-06-01T14:25:18.000Z</time>
      </trkpt>
      <trkpt lat="43.34545" lon="3.58839">
        <ele>3.81</ele>
        <time>2019-06-01T14:25:23.000Z</time>
      </trkpt>
      <trkpt lat="43.34524" lon="3.58811">
        <ele>3.82</ele>
        <time>2019-06-01T14:25:28.000Z</time>
      </trkpt>
      <trkpt lat="43.34502" lon="3.58782">
        <ele>2.88</ele>
        <time>2019-06-01T14:25:33.000Z</time>
      </trkpt>
      <trkpt lat="43.3448" lon="3.58755">
        <ele>3.07</ele>
        <time>2019-06-01T14:25:38.000Z</time>
      </trkpt>
      <trkpt lat="43.34459" lon="3.58727">
        <ele>3.05</ele>
        <time>2019-06-01T14:25:43.000Z</time>
      </trkpt>
      <trkpt lat="43.34436" lon="3.58699">
        <ele>3.82</ele>
        <time>2019-06-01T14:25:48.000Z</time>
      </trkpt>
      <trkpt lat="43.34415" lon="3.58671">
        <ele>4.76</ele>
        <time>2019-06-01T14:25:53.000Z</time>
      </trkpt>
      <trkpt lat="43.34392" lon="3.58644">
        <ele>3.82</ele>
        <time>2019-06-01T14:25:58.000Z</time>
      </trkpt>
      <trkpt lat="43.3437" lon="3.58616">
        <ele>3.82</ele>
        <time>2019-06-01T14:26:03.000Z</time>
      </trkpt>
      <trkpt lat="43.34347" lon="3.5859">
        <ele>1.88</ele>
        <time>2019-06-01T14:26:08.000Z</time>
      </trkpt>
      <trkpt lat="43.34325" lon="3.58562">
        <ele>1.82</ele>
        <time>2019-06-01T14:26:13.000Z</time>
      </trkpt>
      <trkpt lat="43.34302" lon="3.58534">
        <ele>1.82</ele>
        <time>2019-06-01T14:26:18.000Z</time>
      </trkpt>
      <trkpt lat="43.34279" lon="3.58508">
        <ele>1.63</ele>
        <time>2019-06-01T14:26:23.000Z</time>
      </trkpt>
      <trkpt lat="43.34258" lon="3.5848">
        <ele>1.62</ele>
        <time>2019-06-01T14:26:28.000Z</time>
      </trkpt>
      <trkpt lat="43.34236" lon="3.58454">
        <ele>1.82</ele>
        <time>2019-06-01T14:26:33.000Z</time>
      </trkpt>
      <trkpt lat="43.34215" lon="3.58426">
        <ele>2.81</ele>
        <time>2019-06-01T14:26:38.000Z</time>
      </trkpt>
      <trkpt lat="43.34193" lon="3.58399">
        <ele>2.82</ele>
        <time>2019-06-01T14:26:43.000Z</time>
      </trkpt>
      <trkpt lat="43.34172" lon="3.58372">
        <ele>3.62</ele>
        <time>2019-06-01T14:26:48.000Z</time>
      </trkpt>
      <trkpt lat="43.34147" lon="3.58343">
        <ele>3.06</ele>
        <time>2019-06-01T14:26:53.000Z</time>
      </trkpt>
      <trkpt lat="43.34124" lon="3.58316">
        <ele>2.84</ele>
        <time>2019-06-01T14:26:58.000Z</time>
      </trkpt>
      <trkpt lat="43.34102" lon="3.58288">
        <ele>2.82</ele>
        <time>2019-06-01T14:27:03.000Z</time>
      </trkpt>
      <trkpt lat="43.34079" lon="3.58262">
        <ele>2.83</ele>
        <time>2019-06-01T14:27:08.000Z</time>
      </trkpt>
      <trkpt lat="43.34058" lon="3.58235">
        <ele>2.82</ele>
        <time>2019-06-01T14:27:13.000Z</time>
      </trkpt>
      <trkpt lat="43.34036" lon="3.58209">
        <ele>2.82</ele>
        <time>2019-06-01T14:27:18.000Z</time>
      </trkpt>
      <trkpt lat="43.34015" lon="3.58186">
        <ele>1.83</ele>
        <time>2019-06-01T14:27:23.000Z</time>
      </trkpt>
      <trkpt lat="43.33995" lon="3.58161">
        <ele>0.83</ele>
        <time>2019-06-01T14:27:28.000Z</time>
      </trkpt>
      <trkpt lat="43.33973" lon="3.58133">
        <ele>1.06</ele>
        <time>2019-06-01T14:27:33.000Z</time>
      </trkpt>
      <trkpt lat="43.33952" lon="3.58106">
        <ele>0.87</ele>
        <time>2019-06-01T14:27:38.000Z</time>
      </trkpt>
      <trkpt lat="43.33931" lon="3.5808">
        <ele>1.76</ele>
        <time>2019-06-01T14:27:43.000Z</time>
      </trkpt>
      <trkpt lat="43.33911" lon="3.58055">
        <ele>1.83</ele>
        <time>2019-06-01T14:27:48.000Z</time>
      </trkpt>
      <trkpt lat="43.3389" lon="3.5803">
        <ele>1.83</ele>
        <time>2019-06-01T14:27:53.000Z</time>
      </trkpt>
      <trkpt lat="43.33868" lon="3.58006">
        <ele>1.08</ele>
        <time>2019-06-01T14:27:58.000Z</time>
      </trkpt>
      <trkpt lat="43.33847" lon="3.57981">
        <ele>0.83</ele>
        <time>2019-06-01T14:28:03.000Z</time>
      </trkpt>
      <trkpt lat="43.33825" lon="3.57954">
        <ele>2</ele>
        <time>2019-06-01T14:28:08.000Z</time>
      </trkpt>
      <trkpt lat="43.33805" lon="3.57929">
        <ele>0.81</ele>
        <time>2019-06-01T14:28:13.000Z</time>
      </trkpt>
      <trkpt lat="43.33784" lon="3.57903">
        <ele>1.82</ele>
        <time>2019-06-01T14:28:18.000Z</time>
      </trkpt>
      <trkpt lat="43.33764" lon="3.57879">
        <ele>1.83</ele>
        <time>2019-06-01T14:28:23.000Z</time>
      </trkpt>
      <trkpt lat="43.33744" lon="3.57854">
        <ele>2.58</ele>
        <time>2019-06-01T14:28:28.000Z</time>
      </trkpt>
      <trkpt lat="43.33726" lon="3.57831">
        <ele>3.83</ele>
        <time>2019-06-01T14:28:33.000Z</time>
      </trkpt>
      <trkpt lat="43.33707" lon="3.57809">
        <ele>3.08</ele>
        <time>2019-06-01T14:28:38.000Z</time>
      </trkpt>
      <trkpt lat="43.33716" lon="3.57786">
        <ele>1.84</ele>
        <time>2019-06-01T14:28:43.000Z</time>
      </trkpt>
      <trkpt lat="43.33728" lon="3.57758">
        <ele>0.83</ele>
        <time>2019-06-01T14:28:48.000Z</time>
      </trkpt>
      <trkpt lat="43.33741" lon="3.57737">
        <ele>0.84</ele>
        <time>2019-06-01T14:28:53.000Z</time>
      </trkpt>
      <trkpt lat="43.33728" lon="3.5771">
        <ele>2</ele>
        <time>2019-06-01T14:28:58.000Z</time>
      </trkpt>
      <trkpt lat="43.33707" lon="3.57681">
        <ele>2</ele>
        <time>2019-06-01T14:29:03.000Z</time>
      </trkpt>
      <trkpt lat="43.33685" lon="3.57652">
        <ele>0.83</ele>
        <time>2019-06-01T14:29:08.000Z</time>
      </trkpt>
      <trkpt lat="43.33663" lon="3.57623">
        <ele>0.64</ele>
        <time>2019-06-01T14:29:13.000Z</time>
      </trkpt>
      <trkpt lat="43.33641" lon="3.57593">
        <ele>1.81</ele>
        <time>2019-06-01T14:29:18.000Z</time>
      </trkpt>
      <trkpt lat="43.33618" lon="3.57565">
        <ele>0.83</ele>
        <time>2019-06-01T14:29:23.000Z</time>
      </trkpt>
      <trkpt lat="43.33596" lon="3.57536">
        <ele>0.83</ele>
        <time>2019-06-01T14:29:28.000Z</time>
      </trkpt>
      <trkpt lat="43.33574" lon="3.57508">
        <ele>1</ele>
        <time>2019-06-01T14:29:33.000Z</time>
      </trkpt>
      <trkpt lat="43.33553" lon="3.5748">
        <ele>1</ele>
        <time>2019-06-01T14:29:38.000Z</time>
      </trkpt>
      <trkpt lat="43.33532" lon="3.57452">
        <ele>2</ele>
        <time>2019-06-01T14:29:43.000Z</time>
      </trkpt>
      <trkpt lat="43.33514" lon="3.57462">
        <ele>2</ele>
        <time>2019-06-01T14:29:48.000Z</time>
      </trkpt>
      <trkpt lat="43.33498" lon="3.57486">
        <ele>3</ele>
        <time>2019-06-01T14:29:53.000Z</time>
      </trkpt>
      <trkpt lat="43.33481" lon="3.57504">
        <ele>3</ele>
        <time>2019-06-01T14:29:58.000Z</time>
      </trkpt>
      <trkpt lat="43.33457" lon="3.57492">
        <ele>3</ele>
        <time>2019-06-01T14:30:03.000Z</time>
      </trkpt>
      <trkpt lat="43.33433" lon="3.57474">
        <ele>3</ele>
        <time>2019-06-01T14:30:08.000Z</time>
      </trkpt>
      <trkpt lat="43.33413" lon="3.57449">
        <ele>3</ele>
        <time>2019-06-01T14:30:13.000Z</time>
      </trkpt>
      <trkpt lat="43.33392" lon="3.57421">
        <ele>0.63</ele>
        <time>2019-06-01T14:30:18.000Z</time>
      </trkpt>
      <trkpt lat="43.3337" lon="3.57397">
        <ele>0.04</ele>
        <time>2019-06-01T14:30:23.000Z</time>
      </trkpt>
      <trkpt lat="43.33349" lon="3.57372">
        <ele>1.58</ele>
        <time>2019-06-01T14:30:28.000Z</time>
      </trkpt>
      <trkpt lat="43.33327" lon="3.57346">
        <ele>1.07</ele>
        <time>2019-06-01T14:30:33.000Z</time>
      </trkpt>
      <trkpt lat="43.33305" lon="3.57318">
        <ele>1.83</ele>
        <time>2019-06-01T14:30:38.000Z</time>
      </trkpt>
      <trkpt lat="43.33283" lon="3.57292">
        <ele>1.83</ele>
        <time>2019-06-01T14:30:43.000Z</time>
      </trkpt>
      <trkpt lat="43.33261" lon="3.57267">
        <ele>2.77</ele>
        <time>2019-06-01T14:30:48.000Z</time>
      </trkpt>
      <trkpt lat="43.3324" lon="3.57242">
        <ele>2.83</ele>
        <time>2019-06-01T14:30:53.000Z</time>
      </trkpt>
      <trkpt lat="43.3322" lon="3.57218">
        <ele>3.83</ele>
        <time>2019-06-01T14:30:58.000Z</time>
      </trkpt>
      <trkpt lat="43.33199" lon="3.57192">
        <ele>3.83</ele>
        <time>2019-06-01T14:31:03.000Z</time>
      </trkpt>
      <trkpt lat="43.33175" lon="3.57165">
        <ele>3.04</ele>
        <time>2019-06-01T14:31:08.000Z</time>
      </trkpt>
      <trkpt lat="43.33152" lon="3.57136">
        <ele>2.89</ele>
        <time>2019-06-01T14:31:13.000Z</time>
      </trkpt>
      <trkpt lat="43.33129" lon="3.5711">
        <ele>2.65</ele>
        <time>2019-06-01T14:31:18.000Z</time>
      </trkpt>
      <trkpt lat="43.33108" lon="3.57089">
        <ele>3.77</ele>
        <time>2019-06-01T14:31:23.000Z</time>
      </trkpt>
      <trkpt lat="43.33088" lon="3.57064">
        <ele>3.88</ele>
        <time>2019-06-01T14:31:28.000Z</time>
      </trkpt>
      <trkpt lat="43.33067" lon="3.5704">
        <ele>4.82</ele>
        <time>2019-06-01T14:31:33.000Z</time>
      </trkpt>
      <trkpt lat="43.33045" lon="3.57015">
        <ele>4.59</ele>
        <time>2019-06-01T14:31:38.000Z</time>
      </trkpt>
      <trkpt lat="43.33024" lon="3.56988">
        <ele>3.84</ele>
        <time>2019-06-01T14:31:43.000Z</time>
      </trkpt>
      <trkpt lat="43.33002" lon="3.56964">
        <ele>2.85</ele>
        <time>2019-06-01T14:31:48.000Z</time>
      </trkpt>
      <trkpt lat="43.32979" lon="3.56937">
        <ele>1.85</ele>
        <time>2019-06-01T14:31:53.000Z</time>
      </trkpt>
      <trkpt lat="43.32957" lon="3.56912">
        <ele>2.09</ele>
        <time>2019-06-01T14:31:58.000Z</time>
      </trkpt>
      <trkpt lat="43.32936" lon="3.56886">
        <ele>1.84</ele>
        <time>2019-06-01T14:32:03.000Z</time>
      </trkpt>
      <trkpt lat="43.32914" lon="3.56859">
        <ele>1.84</ele>
        <time>2019-06-01T14:32:08.000Z</time>
      </trkpt>
      <trkpt lat="43.32892" lon="3.56834">
        <ele>1.84</ele>
        <time>2019-06-01T14:32:13.000Z</time>
      </trkpt>
      <trkpt lat="43.3287" lon="3.56807">
        <ele>1.84</ele>
        <time>2019-06-01T14:32:18.000Z</time>
      </trkpt>
      <trkpt lat="43.32849" lon="3.56778">
        <ele>1.83</ele>
        <time>2019-06-01T14:32:23.000Z</time>
      </trkpt>
      <trkpt lat="43.3283" lon="3.56748">
        <ele>1.84</ele>
        <time>2019-06-01T14:32:28.000Z</time>
      </trkpt>
      <trkpt lat="43.32811" lon="3.56717">
        <ele>1.84</ele>
        <time>2019-06-01T14:32:33.000Z</time>
      </trkpt>
      <trkpt lat="43.32793" lon="3.56686">
        <ele>0.84</ele>
        <time>2019-06-01T14:32:38.000Z</time>
      </trkpt>
      <trkpt lat="43.32777" lon="3.56655">
        <ele>1.59</ele>
        <time>2019-06-01T14:32:43.000Z</time>
      </trkpt>
      <trkpt lat="43.32762" lon="3.56624">
        <ele>1.82</ele>
        <time>2019-06-01T14:32:48.000Z</time>
      </trkpt>
      <trkpt lat="43.32747" lon="3.56591">
        <ele>0.9</ele>
        <time>2019-06-01T14:32:53.000Z</time>
      </trkpt>
      <trkpt lat="43.32731" lon="3.56557">
        <ele>1.84</ele>
        <time>2019-06-01T14:32:58.000Z</time>
      </trkpt>
      <trkpt lat="43.32717" lon="3.56523">
        <ele>2.82</ele>
        <time>2019-06-01T14:33:03.000Z</time>
      </trkpt>
      <trkpt lat="43.32702" lon="3.56488">
        <ele>1.9</ele>
        <time>2019-06-01T14:33:08.000Z</time>
      </trkpt>
      <trkpt lat="43.3269" lon="3.56451">
        <ele>3.59</ele>
        <time>2019-06-01T14:33:13.000Z</time>
      </trkpt>
      <trkpt lat="43.32674" lon="3.56414">
        <ele>2.84</ele>
        <time>2019-06-01T14:33:18.000Z</time>
      </trkpt>
      <trkpt lat="43.32661" lon="3.56377">
        <ele>2.83</ele>
        <time>2019-06-01T14:33:23.000Z</time>
      </trkpt>
      <trkpt lat="43.32646" lon="3.5634">
        <ele>2.84</ele>
        <time>2019-06-01T14:33:28.000Z</time>
      </trkpt>
      <trkpt lat="43.32632" lon="3.56305">
        <ele>1.09</ele>
        <time>2019-06-01T14:33:33.000Z</time>
      </trkpt>
      <trkpt lat="43.32618" lon="3.56271">
        <ele>0.84</ele>
        <time>2019-06-01T14:33:38.000Z</time>
      </trkpt>
      <trkpt lat="43.32606" lon="3.56254">
        <ele>0.09</ele>
        <time>2019-06-01T14:33:43.000Z</time>
      </trkpt>
      <trkpt lat="43.32601" lon="3.56231">
        <ele>0.59</ele>
        <time>2019-06-01T14:33:48.000Z</time>
      </trkpt>
      <trkpt lat="43.32591" lon="3.56203">
        <ele>1.59</ele>
        <time>2019-06-01T14:33:53.000Z</time>
      </trkpt>
      <trkpt lat="43.32577" lon="3.56174">
        <ele>2.84</ele>
        <time>2019-06-01T14:33:58.000Z</time>
      </trkpt>
      <trkpt lat="43.32562" lon="3.56145">
        <ele>3.59</ele>
        <time>2019-06-01T14:34:03.000Z</time>
      </trkpt>
      <trkpt lat="43.32546" lon="3.56118">
        <ele>4.03</ele>
        <time>2019-06-01T14:34:09.000Z</time>
      </trkpt>
      <trkpt lat="43.32531" lon="3.5609">
        <ele>3.84</ele>
        <time>2019-06-01T14:34:14.000Z</time>
      </trkpt>
      <trkpt lat="43.32514" lon="3.56062">
        <ele>3.84</ele>
        <time>2019-06-01T14:34:19.000Z</time>
      </trkpt>
      <trkpt lat="43.32498" lon="3.56035">
        <ele>3.84</ele>
        <time>2019-06-01T14:34:24.000Z</time>
      </trkpt>
      <trkpt lat="43.32484" lon="3.56026">
        <ele>3.09</ele>
        <time>2019-06-01T14:34:29.000Z</time>
      </trkpt>
      <trkpt lat="43.32475" lon="3.5601">
        <ele>4.84</ele>
        <time>2019-06-01T14:34:34.000Z</time>
      </trkpt>
      <trkpt lat="43.32467" lon="3.55984">
        <ele>3.9</ele>
        <time>2019-06-01T14:34:39.000Z</time>
      </trkpt>
      <trkpt lat="43.32454" lon="3.55957">
        <ele>4.83</ele>
        <time>2019-06-01T14:34:44.000Z</time>
      </trkpt>
      <trkpt lat="43.3244" lon="3.55929">
        <ele>3.85</ele>
        <time>2019-06-01T14:34:49.000Z</time>
      </trkpt>
      <trkpt lat="43.32423" lon="3.55904">
        <ele>4.03</ele>
        <time>2019-06-01T14:34:54.000Z</time>
      </trkpt>
      <trkpt lat="43.32416" lon="3.55885">
        <ele>3.86</ele>
        <time>2019-06-01T14:34:59.000Z</time>
      </trkpt>
      <trkpt lat="43.32407" lon="3.55869">
        <ele>3.84</ele>
        <time>2019-06-01T14:35:04.000Z</time>
      </trkpt>
      <trkpt lat="43.32395" lon="3.55849">
        <ele>2.86</ele>
        <time>2019-06-01T14:35:09.000Z</time>
      </trkpt>
      <trkpt lat="43.32382" lon="3.55822">
        <ele>4.82</ele>
        <time>2019-06-01T14:35:14.000Z</time>
      </trkpt>
      <trkpt lat="43.32368" lon="3.55795">
        <ele>3.84</ele>
        <time>2019-06-01T14:35:19.000Z</time>
      </trkpt>
      <trkpt lat="43.32353" lon="3.55766">
        <ele>4.59</ele>
        <time>2019-06-01T14:35:24.000Z</time>
      </trkpt>
      <trkpt lat="43.32336" lon="3.55736">
        <ele>4.84</ele>
        <time>2019-06-01T14:35:29.000Z</time>
      </trkpt>
      <trkpt lat="43.3232" lon="3.55707">
        <ele>3.86</ele>
        <time>2019-06-01T14:35:34.000Z</time>
      </trkpt>
      <trkpt lat="43.32303" lon="3.55679">
        <ele>2.89</ele>
        <time>2019-06-01T14:35:39.000Z</time>
      </trkpt>
      <trkpt lat="43.32287" lon="3.5565">
        <ele>2.83</ele>
        <time>2019-06-01T14:35:44.000Z</time>
      </trkpt>
      <trkpt lat="43.32272" lon="3.55621">
        <ele>4.77</ele>
        <time>2019-06-01T14:35:49.000Z</time>
      </trkpt>
      <trkpt lat="43.32256" lon="3.55597">
        <ele>2.91</ele>
        <time>2019-06-01T14:35:54.000Z</time>
      </trkpt>
      <trkpt lat="43.32249" lon="3.55583">
        <ele>2.84</ele>
        <time>2019-06-01T14:35:59.000Z</time>
      </trkpt>
      <trkpt lat="43.32242" lon="3.55573">
        <ele>3.78</ele>
        <time>2019-06-01T14:36:04.000Z</time>
      </trkpt>
      <trkpt lat="43.32233" lon="3.55555">
        <ele>3.84</ele>
        <time>2019-06-01T14:36:09.000Z</time>
      </trkpt>
      <trkpt lat="43.32221" lon="3.55531">
        <ele>2.84</ele>
        <time>2019-06-01T14:37:04.000Z</time>
      </trkpt>
      <trkpt lat="43.32208" lon="3.55507">
        <ele>2.84</ele>
        <time>2019-06-01T14:37:09.000Z</time>
      </trkpt>
      <trkpt lat="43.32195" lon="3.55482">
        <ele>2.84</ele>
        <time>2019-06-01T14:37:14.000Z</time>
      </trkpt>
      <trkpt lat="43.32182" lon="3.55457">
        <ele>2.84</ele>
        <time>2019-06-01T14:37:19.000Z</time>
      </trkpt>
      <trkpt lat="43.3217" lon="3.55433">
        <ele>2.84</ele>
        <time>2019-06-01T14:37:24.000Z</time>
      </trkpt>
      <trkpt lat="43.32159" lon="3.55408">
        <ele>2.6</ele>
        <time>2019-06-01T14:37:29.000Z</time>
      </trkpt>
      <trkpt lat="43.32148" lon="3.55382">
        <ele>2.83</ele>
        <time>2019-06-01T14:37:34.000Z</time>
      </trkpt>
      <trkpt lat="43.32138" lon="3.55355">
        <ele>2.91</ele>
        <time>2019-06-01T14:37:39.000Z</time>
      </trkpt>
      <trkpt lat="43.32129" lon="3.55327">
        <ele>2.61</ele>
        <time>2019-06-01T14:37:44.000Z</time>
      </trkpt>
      <trkpt lat="43.3212" lon="3.55298">
        <ele>2.09</ele>
        <time>2019-06-01T14:37:49.000Z</time>
      </trkpt>
      <trkpt lat="43.32111" lon="3.55274">
        <ele>2.09</ele>
        <time>2019-06-01T14:37:54.000Z</time>
      </trkpt>
      <trkpt lat="43.32106" lon="3.55255">
        <ele>1.84</ele>
        <time>2019-06-01T14:38:00.000Z</time>
      </trkpt>
      <trkpt lat="43.321" lon="3.55234">
        <ele>1.84</ele>
        <time>2019-06-01T14:38:05.000Z</time>
      </trkpt>
      <trkpt lat="43.32093" lon="3.55211">
        <ele>2.84</ele>
        <time>2019-06-01T14:38:10.000Z</time>
      </trkpt>
      <trkpt lat="43.32083" lon="3.55184">
        <ele>1.91</ele>
        <time>2019-06-01T14:38:15.000Z</time>
      </trkpt>
      <trkpt lat="43.32074" lon="3.55152">
        <ele>1.84</ele>
        <time>2019-06-01T14:38:20.000Z</time>
      </trkpt>
      <trkpt lat="43.32062" lon="3.55117">
        <ele>1.09</ele>
        <time>2019-06-01T14:38:25.000Z</time>
      </trkpt>
      <trkpt lat="43.32052" lon="3.55081">
        <ele>0.1</ele>
        <time>2019-06-01T14:38:30.000Z</time>
      </trkpt>
      <trkpt lat="43.32041" lon="3.55047">
        <ele>3</ele>
        <time>2019-06-01T14:38:35.000Z</time>
      </trkpt>
      <trkpt lat="43.3203" lon="3.55012">
        <ele>0.6</ele>
        <time>2019-06-01T14:38:40.000Z</time>
      </trkpt>
      <trkpt lat="43.32019" lon="3.54979">
        <ele>2.78</ele>
        <time>2019-06-01T14:38:45.000Z</time>
      </trkpt>
      <trkpt lat="43.32011" lon="3.54954">
        <ele>4.78</ele>
        <time>2019-06-01T14:38:50.000Z</time>
      </trkpt>
      <trkpt lat="43.32004" lon="3.54938">
        <ele>4.1</ele>
        <time>2019-06-01T14:38:55.000Z</time>
      </trkpt>
      <trkpt lat="43.32003" lon="3.54923">
        <ele>1.78</ele>
        <time>2019-06-01T14:39:00.000Z</time>
      </trkpt>
      <trkpt lat="43.31994" lon="3.54893">
        <ele>1.85</ele>
        <time>2019-06-01T14:39:05.000Z</time>
      </trkpt>
      <trkpt lat="43.31986" lon="3.54861">
        <ele>2.04</ele>
        <time>2019-06-01T14:39:10.000Z</time>
      </trkpt>
      <trkpt lat="43.31974" lon="3.54829">
        <ele>1.85</ele>
        <time>2019-06-01T14:39:15.000Z</time>
      </trkpt>
      <trkpt lat="43.31963" lon="3.54794">
        <ele>1.1</ele>
        <time>2019-06-01T14:39:20.000Z</time>
      </trkpt>
      <trkpt lat="43.31952" lon="3.54759">
        <ele>1.84</ele>
        <time>2019-06-01T14:39:25.000Z</time>
      </trkpt>
      <trkpt lat="43.31941" lon="3.54725">
        <ele>2.78</ele>
        <time>2019-06-01T14:39:30.000Z</time>
      </trkpt>
      <trkpt lat="43.31931" lon="3.54691">
        <ele>2.85</ele>
        <time>2019-06-01T14:39:35.000Z</time>
      </trkpt>
      <trkpt lat="43.3192" lon="3.5466">
        <ele>2.14</ele>
        <time>2019-06-01T14:39:40.000Z</time>
      </trkpt>
      <trkpt lat="43.31901" lon="3.5464">
        <ele>2.6</ele>
        <time>2019-06-01T14:39:45.000Z</time>
      </trkpt>
      <trkpt lat="43.31891" lon="3.54642">
        <ele>2.1</ele>
        <time>2019-06-01T14:39:50.000Z</time>
      </trkpt>
      <trkpt lat="43.31883" lon="3.54631">
        <ele>1.85</ele>
        <time>2019-06-01T14:39:55.000Z</time>
      </trkpt>
      <trkpt lat="43.31884" lon="3.54609">
        <ele>2.6</ele>
        <time>2019-06-01T14:40:00.000Z</time>
      </trkpt>
      <trkpt lat="43.31891" lon="3.5458">
        <ele>2.85</ele>
        <time>2019-06-01T14:40:05.000Z</time>
      </trkpt>
      <trkpt lat="43.31883" lon="3.54549">
        <ele>2.85</ele>
        <time>2019-06-01T14:40:10.000Z</time>
      </trkpt>
      <trkpt lat="43.31875" lon="3.54517">
        <ele>2.9</ele>
        <time>2019-06-01T14:40:15.000Z</time>
      </trkpt>
      <trkpt lat="43.31865" lon="3.54483">
        <ele>2.85</ele>
        <time>2019-06-01T14:40:20.000Z</time>
      </trkpt>
      <trkpt lat="43.31855" lon="3.54447">
        <ele>2.85</ele>
        <time>2019-06-01T14:40:25.000Z</time>
      </trkpt>
      <trkpt lat="43.31845" lon="3.54411">
        <ele>1.91</ele>
        <time>2019-06-01T14:40:30.000Z</time>
      </trkpt>
      <trkpt lat="43.31834" lon="3.54373">
        <ele>1.85</ele>
        <time>2019-06-01T14:40:35.000Z</time>
      </trkpt>
      <trkpt lat="43.31822" lon="3.54337">
        <ele>2</ele>
        <time>2019-06-01T14:40:40.000Z</time>
      </trkpt>
      <trkpt lat="43.31811" lon="3.54299">
        <ele>0.6</ele>
        <time>2019-06-01T14:40:47.000Z</time>
      </trkpt>
      <trkpt lat="43.318" lon="3.54262">
        <ele>0.8</ele>
        <time>2019-06-01T14:40:52.000Z</time>
      </trkpt>
      <trkpt lat="43.31789" lon="3.54225">
        <ele>0.85</ele>
        <time>2019-06-01T14:40:57.000Z</time>
      </trkpt>
      <trkpt lat="43.31778" lon="3.54186">
        <ele>0.85</ele>
        <time>2019-06-01T14:41:02.000Z</time>
      </trkpt>
      <trkpt lat="43.31765" lon="3.54149">
        <ele>0.85</ele>
        <time>2019-06-01T14:41:07.000Z</time>
      </trkpt>
      <trkpt lat="43.31754" lon="3.54111">
        <ele>0.85</ele>
        <time>2019-06-01T14:41:12.000Z</time>
      </trkpt>
      <trkpt lat="43.31743" lon="3.54073">
        <ele>1.78</ele>
        <time>2019-06-01T14:41:17.000Z</time>
      </trkpt>
      <trkpt lat="43.31731" lon="3.54038">
        <ele>2.6</ele>
        <time>2019-06-01T14:41:22.000Z</time>
      </trkpt>
      <trkpt lat="43.31721" lon="3.54003">
        <ele>2.66</ele>
        <time>2019-06-01T14:41:27.000Z</time>
      </trkpt>
      <trkpt lat="43.3171" lon="3.53967">
        <ele>2.85</ele>
        <time>2019-06-01T14:41:32.000Z</time>
      </trkpt>
      <trkpt lat="43.31698" lon="3.53931">
        <ele>2.85</ele>
        <time>2019-06-01T14:41:37.000Z</time>
      </trkpt>
      <trkpt lat="43.31686" lon="3.53894">
        <ele>1.86</ele>
        <time>2019-06-01T14:41:42.000Z</time>
      </trkpt>
      <trkpt lat="43.31674" lon="3.53856">
        <ele>1.85</ele>
        <time>2019-06-01T14:41:47.000Z</time>
      </trkpt>
      <trkpt lat="43.31662" lon="3.53818">
        <ele>1.85</ele>
        <time>2019-06-01T14:41:52.000Z</time>
      </trkpt>
      <trkpt lat="43.31652" lon="3.53781">
        <ele>1.85</ele>
        <time>2019-06-01T14:41:57.000Z</time>
      </trkpt>
      <trkpt lat="43.31641" lon="3.53744">
        <ele>2.78</ele>
        <time>2019-06-01T14:42:02.000Z</time>
      </trkpt>
      <trkpt lat="43.31629" lon="3.53709">
        <ele>2.85</ele>
        <time>2019-06-01T14:42:07.000Z</time>
      </trkpt>
      <trkpt lat="43.31618" lon="3.53674">
        <ele>1.86</ele>
        <time>2019-06-01T14:42:12.000Z</time>
      </trkpt>
      <trkpt lat="43.31607" lon="3.53638">
        <ele>0.86</ele>
        <time>2019-06-01T14:42:17.000Z</time>
      </trkpt>
      <trkpt lat="43.31594" lon="3.53602">
        <ele>0.85</ele>
        <time>2019-06-01T14:42:22.000Z</time>
      </trkpt>
      <trkpt lat="43.31583" lon="3.53566">
        <ele>1.08</ele>
        <time>2019-06-01T14:42:27.000Z</time>
      </trkpt>
      <trkpt lat="43.31569" lon="3.53536">
        <ele>1.83</ele>
        <time>2019-06-01T14:42:32.000Z</time>
      </trkpt>
      <trkpt lat="43.31555" lon="3.53532">
        <ele>1.11</ele>
        <time>2019-06-01T14:42:37.000Z</time>
      </trkpt>
      <trkpt lat="43.31546" lon="3.53522">
        <ele>1.85</ele>
        <time>2019-06-01T14:42:42.000Z</time>
      </trkpt>
      <trkpt lat="43.31548" lon="3.53498">
        <ele>1.85</ele>
        <time>2019-06-01T14:42:47.000Z</time>
      </trkpt>
      <trkpt lat="43.31553" lon="3.53473">
        <ele>1.85</ele>
        <time>2019-06-01T14:42:52.000Z</time>
      </trkpt>
      <trkpt lat="43.3155" lon="3.53446">
        <ele>2.85</ele>
        <time>2019-06-01T14:42:57.000Z</time>
      </trkpt>
      <trkpt lat="43.31539" lon="3.53417">
        <ele>1.91</ele>
        <time>2019-06-01T14:43:02.000Z</time>
      </trkpt>
      <trkpt lat="43.31529" lon="3.53385">
        <ele>2.85</ele>
        <time>2019-06-01T14:43:07.000Z</time>
      </trkpt>
      <trkpt lat="43.31518" lon="3.5335">
        <ele>1.85</ele>
        <time>2019-06-01T14:43:12.000Z</time>
      </trkpt>
      <trkpt lat="43.31507" lon="3.53314">
        <ele>2.79</ele>
        <time>2019-06-01T14:43:17.000Z</time>
      </trkpt>
      <trkpt lat="43.31496" lon="3.53278">
        <ele>2.83</ele>
        <time>2019-06-01T14:43:22.000Z</time>
      </trkpt>
      <trkpt lat="43.31485" lon="3.53241">
        <ele>2.85</ele>
        <time>2019-06-01T14:43:27.000Z</time>
      </trkpt>
      <trkpt lat="43.31473" lon="3.53204">
        <ele>2.85</ele>
        <time>2019-06-01T14:43:32.000Z</time>
      </trkpt>
      <trkpt lat="43.31462" lon="3.53168">
        <ele>2.85</ele>
        <time>2019-06-01T14:43:37.000Z</time>
      </trkpt>
      <trkpt lat="43.3145" lon="3.5313">
        <ele>2.1</ele>
        <time>2019-06-01T14:43:42.000Z</time>
      </trkpt>
      <trkpt lat="43.31438" lon="3.53093">
        <ele>1.85</ele>
        <time>2019-06-01T14:43:47.000Z</time>
      </trkpt>
      <trkpt lat="43.31427" lon="3.53057">
        <ele>2.85</ele>
        <time>2019-06-01T14:43:52.000Z</time>
      </trkpt>
      <trkpt lat="43.31417" lon="3.53019">
        <ele>2.85</ele>
        <time>2019-06-01T14:43:57.000Z</time>
      </trkpt>
      <trkpt lat="43.31405" lon="3.52984">
        <ele>1.85</ele>
        <time>2019-06-01T14:44:02.000Z</time>
      </trkpt>
      <trkpt lat="43.31394" lon="3.52948">
        <ele>1.85</ele>
        <time>2019-06-01T14:44:07.000Z</time>
      </trkpt>
      <trkpt lat="43.31383" lon="3.52912">
        <ele>2.84</ele>
        <time>2019-06-01T14:44:12.000Z</time>
      </trkpt>
      <trkpt lat="43.31371" lon="3.52873">
        <ele>1.85</ele>
        <time>2019-06-01T14:44:17.000Z</time>
      </trkpt>
      <trkpt lat="43.31359" lon="3.52835">
        <ele>1.6</ele>
        <time>2019-06-01T14:44:22.000Z</time>
      </trkpt>
      <trkpt lat="43.31347" lon="3.52797">
        <ele>0.85</ele>
        <time>2019-06-01T14:44:27.000Z</time>
      </trkpt>
      <trkpt lat="43.31336" lon="3.52759">
        <ele>0.85</ele>
        <time>2019-06-01T14:44:32.000Z</time>
      </trkpt>
      <trkpt lat="43.31323" lon="3.5272">
        <ele>0.79</ele>
        <time>2019-06-01T14:44:37.000Z</time>
      </trkpt>
      <trkpt lat="43.31311" lon="3.52682">
        <ele>0.85</ele>
        <time>2019-06-01T14:44:42.000Z</time>
      </trkpt>
      <trkpt lat="43.31299" lon="3.52644">
        <ele>0.85</ele>
        <time>2019-06-01T14:44:47.000Z</time>
      </trkpt>
      <trkpt lat="43.31288" lon="3.52604">
        <ele>2.6</ele>
        <time>2019-06-01T14:44:52.000Z</time>
      </trkpt>
      <trkpt lat="43.31275" lon="3.52565">
        <ele>2.85</ele>
        <time>2019-06-01T14:44:57.000Z</time>
      </trkpt>
      <trkpt lat="43.31263" lon="3.52526">
        <ele>1.86</ele>
        <time>2019-06-01T14:45:02.000Z</time>
      </trkpt>
      <trkpt lat="43.3125" lon="3.52488">
        <ele>0.1</ele>
        <time>2019-06-01T14:45:07.000Z</time>
      </trkpt>
      <trkpt lat="43.31238" lon="3.5245">
        <ele>0.85</ele>
        <time>2019-06-01T14:45:12.000Z</time>
      </trkpt>
      <trkpt lat="43.31227" lon="3.52412">
        <ele>0.85</ele>
        <time>2019-06-01T14:45:17.000Z</time>
      </trkpt>
      <trkpt lat="43.31214" lon="3.52374">
        <ele>1</ele>
        <time>2019-06-01T14:45:22.000Z</time>
      </trkpt>
      <trkpt lat="43.31203" lon="3.52337">
        <ele>1</ele>
        <time>2019-06-01T14:45:27.000Z</time>
      </trkpt>
      <trkpt lat="43.31191" lon="3.52299">
        <ele>0.66</ele>
        <time>2019-06-01T14:45:32.000Z</time>
      </trkpt>
      <trkpt lat="43.31178" lon="3.52264">
        <ele>0.85</ele>
        <time>2019-06-01T14:45:37.000Z</time>
      </trkpt>
      <trkpt lat="43.31169" lon="3.52225">
        <ele>0.86</ele>
        <time>2019-06-01T14:45:42.000Z</time>
      </trkpt>
      <trkpt lat="43.31157" lon="3.52187">
        <ele>0.62</ele>
        <time>2019-06-01T14:45:47.000Z</time>
      </trkpt>
      <trkpt lat="43.31145" lon="3.52149">
        <ele>0.85</ele>
        <time>2019-06-01T14:45:52.000Z</time>
      </trkpt>
      <trkpt lat="43.31134" lon="3.52111">
        <ele>0.85</ele>
        <time>2019-06-01T14:45:57.000Z</time>
      </trkpt>
      <trkpt lat="43.31122" lon="3.52072">
        <ele>1.79</ele>
        <time>2019-06-01T14:46:02.000Z</time>
      </trkpt>
      <trkpt lat="43.3111" lon="3.52034">
        <ele>0.87</ele>
        <time>2019-06-01T14:46:07.000Z</time>
      </trkpt>
      <trkpt lat="43.31096" lon="3.51994">
        <ele>0.85</ele>
        <time>2019-06-01T14:46:12.000Z</time>
      </trkpt>
      <trkpt lat="43.31084" lon="3.51955">
        <ele>0.85</ele>
        <time>2019-06-01T14:46:17.000Z</time>
      </trkpt>
      <trkpt lat="43.31071" lon="3.51914">
        <ele>0.85</ele>
        <time>2019-06-01T14:46:22.000Z</time>
      </trkpt>
      <trkpt lat="43.31058" lon="3.51875">
        <ele>1.85</ele>
        <time>2019-06-01T14:46:27.000Z</time>
      </trkpt>
      <trkpt lat="43.31044" lon="3.51837">
        <ele>1.85</ele>
        <time>2019-06-01T14:46:32.000Z</time>
      </trkpt>
      <trkpt lat="43.31031" lon="3.51798">
        <ele>2.1</ele>
        <time>2019-06-01T14:46:37.000Z</time>
      </trkpt>
      <trkpt lat="43.31019" lon="3.51758">
        <ele>1.85</ele>
        <time>2019-06-01T14:46:42.000Z</time>
      </trkpt>
      <trkpt lat="43.31007" lon="3.51721">
        <ele>1.85</ele>
        <time>2019-06-01T14:46:47.000Z</time>
      </trkpt>
      <trkpt lat="43.30995" lon="3.51683">
        <ele>0.85</ele>
        <time>2019-06-01T14:46:52.000Z</time>
      </trkpt>
      <trkpt lat="43.30984" lon="3.51646">
        <ele>0.85</ele>
        <time>2019-06-01T14:46:57.000Z</time>
      </trkpt>
      <trkpt lat="43.30972" lon="3.51609">
        <ele>1.79</ele>
        <time>2019-06-01T14:47:02.000Z</time>
      </trkpt>
      <trkpt lat="43.3096" lon="3.51572">
        <ele>1.85</ele>
        <time>2019-06-01T14:47:07.000Z</time>
      </trkpt>
      <trkpt lat="43.30949" lon="3.51535">
        <ele>1.85</ele>
        <time>2019-06-01T14:47:12.000Z</time>
      </trkpt>
      <trkpt lat="43.30939" lon="3.51499">
        <ele>2.79</ele>
        <time>2019-06-01T14:47:17.000Z</time>
      </trkpt>
      <trkpt lat="43.30926" lon="3.51463">
        <ele>1.86</ele>
        <time>2019-06-01T14:47:22.000Z</time>
      </trkpt>
      <trkpt lat="43.30915" lon="3.51428">
        <ele>1.62</ele>
        <time>2019-06-01T14:47:27.000Z</time>
      </trkpt>
      <trkpt lat="43.30904" lon="3.51392">
        <ele>0.85</ele>
        <time>2019-06-01T14:47:32.000Z</time>
      </trkpt>
      <trkpt lat="43.30893" lon="3.51356">
        <ele>1.09</ele>
        <time>2019-06-01T14:47:37.000Z</time>
      </trkpt>
      <trkpt lat="43.30879" lon="3.51328">
        <ele>0.1</ele>
        <time>2019-06-01T14:47:42.000Z</time>
      </trkpt>
      <trkpt lat="43.30865" lon="3.51301">
        <ele>0.85</ele>
        <time>2019-06-01T14:47:47.000Z</time>
      </trkpt>
      <trkpt lat="43.30855" lon="3.51267">
        <ele>0.1</ele>
        <time>2019-06-01T14:47:52.000Z</time>
      </trkpt>
      <trkpt lat="43.30846" lon="3.51234">
        <ele>0.6</ele>
        <time>2019-06-01T14:47:57.000Z</time>
      </trkpt>
      <trkpt lat="43.30835" lon="3.51201">
        <ele>0.85</ele>
        <time>2019-06-01T14:48:02.000Z</time>
      </trkpt>
      <trkpt lat="43.30825" lon="3.51168">
        <ele>0.85</ele>
        <time>2019-06-01T14:48:07.000Z</time>
      </trkpt>
      <trkpt lat="43.30816" lon="3.51137">
        <ele>1.85</ele>
        <time>2019-06-01T14:48:12.000Z</time>
      </trkpt>
      <trkpt lat="43.30808" lon="3.51107">
        <ele>1.85</ele>
        <time>2019-06-01T14:48:17.000Z</time>
      </trkpt>
      <trkpt lat="43.30798" lon="3.51075">
        <ele>3.6</ele>
        <time>2019-06-01T14:48:22.000Z</time>
      </trkpt>
      <trkpt lat="43.30789" lon="3.51044">
        <ele>2.86</ele>
        <time>2019-06-01T14:49:05.000Z</time>
      </trkpt>
      <trkpt lat="43.30779" lon="3.51011">
        <ele>3.6</ele>
        <time>2019-06-01T14:49:10.000Z</time>
      </trkpt>
      <trkpt lat="43.30769" lon="3.5098">
        <ele>3.85</ele>
        <time>2019-06-01T14:49:18.000Z</time>
      </trkpt>
      <trkpt lat="43.30756" lon="3.50949">
        <ele>2.91</ele>
        <time>2019-06-01T14:49:23.000Z</time>
      </trkpt>
      <trkpt lat="43.30741" lon="3.50922">
        <ele>3.1</ele>
        <time>2019-06-01T14:49:28.000Z</time>
      </trkpt>
      <trkpt lat="43.30726" lon="3.50895">
        <ele>4.6</ele>
        <time>2019-06-01T14:49:33.000Z</time>
      </trkpt>
      <trkpt lat="43.3071" lon="3.50875">
        <ele>5.6</ele>
        <time>2019-06-01T14:49:38.000Z</time>
      </trkpt>
      <trkpt lat="43.30694" lon="3.50857">
        <ele>6.79</ele>
        <time>2019-06-01T14:49:43.000Z</time>
      </trkpt>
      <trkpt lat="43.30677" lon="3.50844">
        <ele>6.85</ele>
        <time>2019-06-01T14:49:48.000Z</time>
      </trkpt>
      <trkpt lat="43.3066" lon="3.50833">
        <ele>6.85</ele>
        <time>2019-06-01T14:49:53.000Z</time>
      </trkpt>
      <trkpt lat="43.30644" lon="3.50827">
        <ele>6.85</ele>
        <time>2019-06-01T14:49:58.000Z</time>
      </trkpt>
      <trkpt lat="43.30626" lon="3.50822">
        <ele>5.9</ele>
        <time>2019-06-01T14:50:03.000Z</time>
      </trkpt>
      <trkpt lat="43.30609" lon="3.50819">
        <ele>5.85</ele>
        <time>2019-06-01T14:50:08.000Z</time>
      </trkpt>
      <trkpt lat="43.3059" lon="3.50818">
        <ele>6.84</ele>
        <time>2019-06-01T14:50:13.000Z</time>
      </trkpt>
      <trkpt lat="43.30569" lon="3.50817">
        <ele>7.66</ele>
        <time>2019-06-01T14:50:18.000Z</time>
      </trkpt>
      <trkpt lat="43.30548" lon="3.50816">
        <ele>7.85</ele>
        <time>2019-06-01T14:50:23.000Z</time>
      </trkpt>
      <trkpt lat="43.30525" lon="3.50815">
        <ele>8.84</ele>
        <time>2019-06-01T14:50:28.000Z</time>
      </trkpt>
      <trkpt lat="43.30504" lon="3.50814">
        <ele>9.84</ele>
        <time>2019-06-01T14:50:33.000Z</time>
      </trkpt>
      <trkpt lat="43.30482" lon="3.50813">
        <ele>9.61</ele>
        <time>2019-06-01T14:50:38.000Z</time>
      </trkpt>
      <trkpt lat="43.30462" lon="3.50812">
        <ele>8.81</ele>
        <time>2019-06-01T14:50:43.000Z</time>
      </trkpt>
      <trkpt lat="43.30455" lon="3.50793">
        <ele>8.86</ele>
        <time>2019-06-01T14:50:48.000Z</time>
      </trkpt>
      <trkpt lat="43.30457" lon="3.50766">
        <ele>7.87</ele>
        <time>2019-06-01T14:50:53.000Z</time>
      </trkpt>
      <trkpt lat="43.30459" lon="3.50753">
        <ele>8.06</ele>
        <time>2019-06-01T14:50:58.000Z</time>
      </trkpt>
      <trkpt lat="43.30468" lon="3.50748">
        <ele>7.84</ele>
        <time>2019-06-01T14:51:03.000Z</time>
      </trkpt>
      <trkpt lat="43.30482" lon="3.5075">
        <ele>9.61</ele>
        <time>2019-06-01T14:51:08.000Z</time>
      </trkpt>
      <trkpt lat="43.30473" lon="3.50744">
        <ele>10.78</ele>
        <time>2019-06-01T14:51:13.000Z</time>
      </trkpt>
      <trkpt lat="43.30459" lon="3.50738">
        <ele>10.86</ele>
        <time>2019-06-01T14:51:18.000Z</time>
      </trkpt>
      <trkpt lat="43.30455" lon="3.50712">
        <ele>9.86</ele>
        <time>2019-06-01T14:51:23.000Z</time>
      </trkpt>
      <trkpt lat="43.30458" lon="3.50687">
        <ele>10.61</ele>
        <time>2019-06-01T14:51:28.000Z</time>
      </trkpt>
      <trkpt lat="43.30459" lon="3.50669">
        <ele>11.79</ele>
        <time>2019-06-01T14:51:33.000Z</time>
      </trkpt>
      <trkpt lat="43.30461" lon="3.50652">
        <ele>11.86</ele>
        <time>2019-06-01T14:51:38.000Z</time>
      </trkpt>
      <trkpt lat="43.30463" lon="3.50633">
        <ele>10.87</ele>
        <time>2019-06-01T14:51:43.000Z</time>
      </trkpt>
      <trkpt lat="43.30462" lon="3.50611">
        <ele>10.87</ele>
        <time>2019-06-01T14:51:48.000Z</time>
      </trkpt>
      <trkpt lat="43.30459" lon="3.50589">
        <ele>10.86</ele>
        <time>2019-06-01T14:51:53.000Z</time>
      </trkpt>
      <trkpt lat="43.30453" lon="3.5057">
        <ele>11.61</ele>
        <time>2019-06-01T14:51:58.000Z</time>
      </trkpt>
      <trkpt lat="43.3045" lon="3.50549">
        <ele>11.86</ele>
        <time>2019-06-01T14:52:03.000Z</time>
      </trkpt>
      <trkpt lat="43.3045" lon="3.50527">
        <ele>12.79</ele>
        <time>2019-06-01T14:52:08.000Z</time>
      </trkpt>
      <trkpt lat="43.30452" lon="3.50505">
        <ele>12.84</ele>
        <time>2019-06-01T14:52:13.000Z</time>
      </trkpt>
      <trkpt lat="43.30455" lon="3.50485">
        <ele>13.84</ele>
        <time>2019-06-01T14:52:18.000Z</time>
      </trkpt>
      <trkpt lat="43.30456" lon="3.50462">
        <ele>14.84</ele>
        <time>2019-06-01T14:52:23.000Z</time>
      </trkpt>
      <trkpt lat="43.30455" lon="3.50441">
        <ele>15.04</ele>
        <time>2019-06-01T14:52:28.000Z</time>
      </trkpt>
      <trkpt lat="43.3046" lon="3.50423">
        <ele>16.79</ele>
        <time>2019-06-01T14:52:33.000Z</time>
      </trkpt>
      <trkpt lat="43.30465" lon="3.50406">
        <ele>17.85</ele>
        <time>2019-06-01T14:52:38.000Z</time>
      </trkpt>
      <trkpt lat="43.30471" lon="3.50386">
        <ele>17.81</ele>
        <time>2019-06-01T14:52:43.000Z</time>
      </trkpt>
      <trkpt lat="43.30477" lon="3.50368">
        <ele>18.85</ele>
        <time>2019-06-01T14:52:48.000Z</time>
      </trkpt>
      <trkpt lat="43.30484" lon="3.50348">
        <ele>19.87</ele>
        <time>2019-06-01T14:52:53.000Z</time>
      </trkpt>
      <trkpt lat="43.30493" lon="3.5032">
        <ele>17.87</ele>
        <time>2019-06-01T14:52:58.000Z</time>
      </trkpt>
      <trkpt lat="43.30505" lon="3.50288">
        <ele>17.1</ele>
        <time>2019-06-01T14:53:03.000Z</time>
      </trkpt>
      <trkpt lat="43.30517" lon="3.50251">
        <ele>15.87</ele>
        <time>2019-06-01T14:53:08.000Z</time>
      </trkpt>
      <trkpt lat="43.30531" lon="3.50216">
        <ele>14.17</ele>
        <time>2019-06-01T14:53:13.000Z</time>
      </trkpt>
      <trkpt lat="43.30545" lon="3.50183">
        <ele>13.85</ele>
        <time>2019-06-01T14:53:18.000Z</time>
      </trkpt>
      <trkpt lat="43.30557" lon="3.50158">
        <ele>13.85</ele>
        <time>2019-06-01T14:53:23.000Z</time>
      </trkpt>
      <trkpt lat="43.30566" lon="3.50131">
        <ele>13.79</ele>
        <time>2019-06-01T14:53:28.000Z</time>
      </trkpt>
      <trkpt lat="43.3057" lon="3.50102">
        <ele>13.86</ele>
        <time>2019-06-01T14:53:33.000Z</time>
      </trkpt>
      <trkpt lat="43.30558" lon="3.50076">
        <ele>13.85</ele>
        <time>2019-06-01T14:53:38.000Z</time>
      </trkpt>
      <trkpt lat="43.30542" lon="3.50056">
        <ele>14.83</ele>
        <time>2019-06-01T14:53:43.000Z</time>
      </trkpt>
      <trkpt lat="43.30538" lon="3.5003">
        <ele>14.91</ele>
        <time>2019-06-01T14:53:48.000Z</time>
      </trkpt>
      <trkpt lat="43.30549" lon="3.49995">
        <ele>14.91</ele>
        <time>2019-06-01T14:53:53.000Z</time>
      </trkpt>
      <trkpt lat="43.30561" lon="3.49957">
        <ele>14.86</ele>
        <time>2019-06-01T14:53:58.000Z</time>
      </trkpt>
      <trkpt lat="43.30572" lon="3.49918">
        <ele>14.1</ele>
        <time>2019-06-01T14:54:03.000Z</time>
      </trkpt>
      <trkpt lat="43.30583" lon="3.49887">
        <ele>13.85</ele>
        <time>2019-06-01T14:54:08.000Z</time>
      </trkpt>
      <trkpt lat="43.30576" lon="3.4986">
        <ele>14.85</ele>
        <time>2019-06-01T14:54:13.000Z</time>
      </trkpt>
      <trkpt lat="43.30565" lon="3.49831">
        <ele>15.85</ele>
        <time>2019-06-01T14:54:18.000Z</time>
      </trkpt>
      <trkpt lat="43.30552" lon="3.49803">
        <ele>15.85</ele>
        <time>2019-06-01T14:54:23.000Z</time>
      </trkpt>
      <trkpt lat="43.3054" lon="3.49776">
        <ele>17.83</ele>
        <time>2019-06-01T14:54:28.000Z</time>
      </trkpt>
      <trkpt lat="43.30533" lon="3.49759">
        <ele>17.62</ele>
        <time>2019-06-01T14:54:33.000Z</time>
      </trkpt>
      <trkpt lat="43.30523" lon="3.49738">
        <ele>17.85</ele>
        <time>2019-06-01T14:54:38.000Z</time>
      </trkpt>
      <trkpt lat="43.30512" lon="3.49711">
        <ele>17.06</ele>
        <time>2019-06-01T14:54:43.000Z</time>
      </trkpt>
      <trkpt lat="43.30499" lon="3.49681">
        <ele>18.84</ele>
        <time>2019-06-01T14:54:48.000Z</time>
      </trkpt>
      <trkpt lat="43.30486" lon="3.49652">
        <ele>18.1</ele>
        <time>2019-06-01T14:54:53.000Z</time>
      </trkpt>
      <trkpt lat="43.30492" lon="3.49616">
        <ele>17.1</ele>
        <time>2019-06-01T14:54:58.000Z</time>
      </trkpt>
      <trkpt lat="43.30499" lon="3.49582">
        <ele>16.6</ele>
        <time>2019-06-01T14:55:03.000Z</time>
      </trkpt>
      <trkpt lat="43.30497" lon="3.49558">
        <ele>15.9</ele>
        <time>2019-06-01T14:55:08.000Z</time>
      </trkpt>
      <trkpt lat="43.30493" lon="3.49525">
        <ele>15.85</ele>
        <time>2019-06-01T14:55:13.000Z</time>
      </trkpt>
      <trkpt lat="43.30486" lon="3.49493">
        <ele>16.85</ele>
        <time>2019-06-01T14:55:18.000Z</time>
      </trkpt>
      <trkpt lat="43.30468" lon="3.4948">
        <ele>17.09</ele>
        <time>2019-06-01T14:55:23.000Z</time>
      </trkpt>
      <trkpt lat="43.30459" lon="3.49449">
        <ele>16.86</ele>
        <time>2019-06-01T14:55:28.000Z</time>
      </trkpt>
      <trkpt lat="43.30462" lon="3.49429">
        <ele>15.9</ele>
        <time>2019-06-01T14:55:33.000Z</time>
      </trkpt>
      <trkpt lat="43.30475" lon="3.49421">
        <ele>17.1</ele>
        <time>2019-06-01T14:55:38.000Z</time>
      </trkpt>
      <trkpt lat="43.30483" lon="3.49402">
        <ele>15.85</ele>
        <time>2019-06-01T14:55:43.000Z</time>
      </trkpt>
      <trkpt lat="43.30487" lon="3.49366">
        <ele>12.12</ele>
        <time>2019-06-01T14:55:48.000Z</time>
      </trkpt>
      <trkpt lat="43.30493" lon="3.49327">
        <ele>11.1</ele>
        <time>2019-06-01T14:55:53.000Z</time>
      </trkpt>
      <trkpt lat="43.305" lon="3.49287">
        <ele>10.12</ele>
        <time>2019-06-01T14:55:58.000Z</time>
      </trkpt>
      <trkpt lat="43.30506" lon="3.49244">
        <ele>10.6</ele>
        <time>2019-06-01T14:56:03.000Z</time>
      </trkpt>
      <trkpt lat="43.30511" lon="3.49208">
        <ele>8.92</ele>
        <time>2019-06-01T14:56:08.000Z</time>
      </trkpt>
      <trkpt lat="43.30511" lon="3.49195">
        <ele>9.1</ele>
        <time>2019-06-01T14:56:13.000Z</time>
      </trkpt>
      <trkpt lat="43.30518" lon="3.49176">
        <ele>9.85</ele>
        <time>2019-06-01T14:56:18.000Z</time>
      </trkpt>
      <trkpt lat="43.30523" lon="3.49146">
        <ele>9.86</ele>
        <time>2019-06-01T14:56:23.000Z</time>
      </trkpt>
      <trkpt lat="43.30531" lon="3.49113">
        <ele>9.85</ele>
        <time>2019-06-01T14:56:28.000Z</time>
      </trkpt>
      <trkpt lat="43.3054" lon="3.49083">
        <ele>9.84</ele>
        <time>2019-06-01T14:56:33.000Z</time>
      </trkpt>
      <trkpt lat="43.30554" lon="3.49057">
        <ele>9.6</ele>
        <time>2019-06-01T14:56:38.000Z</time>
      </trkpt>
      <trkpt lat="43.30564" lon="3.49029">
        <ele>10.8</ele>
        <time>2019-06-01T14:56:43.000Z</time>
      </trkpt>
      <trkpt lat="43.30563" lon="3.49002">
        <ele>12.84</ele>
        <time>2019-06-01T14:56:48.000Z</time>
      </trkpt>
      <trkpt lat="43.30562" lon="3.48985">
        <ele>13.85</ele>
        <time>2019-06-01T14:56:53.000Z</time>
      </trkpt>
      <trkpt lat="43.30561" lon="3.48967">
        <ele>14.85</ele>
        <time>2019-06-01T14:56:58.000Z</time>
      </trkpt>
      <trkpt lat="43.30559" lon="3.48949">
        <ele>15.85</ele>
        <time>2019-06-01T14:57:03.000Z</time>
      </trkpt>
      <trkpt lat="43.30558" lon="3.48929">
        <ele>17.59</ele>
        <time>2019-06-01T14:57:08.000Z</time>
      </trkpt>
      <trkpt lat="43.30557" lon="3.48911">
        <ele>17.85</ele>
        <time>2019-06-01T14:57:13.000Z</time>
      </trkpt>
      <trkpt lat="43.30556" lon="3.48891">
        <ele>18.84</ele>
        <time>2019-06-01T14:57:18.000Z</time>
      </trkpt>
      <trkpt lat="43.30555" lon="3.48869">
        <ele>18.85</ele>
        <time>2019-06-01T14:57:25.000Z</time>
      </trkpt>
      <trkpt lat="43.30551" lon="3.4885">
        <ele>19.83</ele>
        <time>2019-06-01T14:57:30.000Z</time>
      </trkpt>
      <trkpt lat="43.30546" lon="3.48833">
        <ele>20.6</ele>
        <time>2019-06-01T14:57:35.000Z</time>
      </trkpt>
      <trkpt lat="43.30539" lon="3.48814">
        <ele>19.91</ele>
        <time>2019-06-01T14:57:40.000Z</time>
      </trkpt>
      <trkpt lat="43.3053" lon="3.48796">
        <ele>20.09</ele>
        <time>2019-06-01T14:57:45.000Z</time>
      </trkpt>
      <trkpt lat="43.30519" lon="3.48777">
        <ele>20.89</ele>
        <time>2019-06-01T14:57:50.000Z</time>
      </trkpt>
      <trkpt lat="43.30504" lon="3.4876">
        <ele>20.91</ele>
        <time>2019-06-01T14:57:55.000Z</time>
      </trkpt>
      <trkpt lat="43.30492" lon="3.48747">
        <ele>21.83</ele>
        <time>2019-06-01T14:58:00.000Z</time>
      </trkpt>
      <trkpt lat="43.30482" lon="3.4875">
        <ele>20.85</ele>
        <time>2019-06-01T14:58:05.000Z</time>
      </trkpt>
      <trkpt lat="43.30473" lon="3.48747">
        <ele>20.85</ele>
        <time>2019-06-01T14:58:10.000Z</time>
      </trkpt>
      <trkpt lat="43.3047" lon="3.48726">
        <ele>19.86</ele>
        <time>2019-06-01T14:58:15.000Z</time>
      </trkpt>
      <trkpt lat="43.3046" lon="3.48704">
        <ele>19.85</ele>
        <time>2019-06-01T14:58:20.000Z</time>
      </trkpt>
      <trkpt lat="43.30444" lon="3.48686">
        <ele>20.85</ele>
        <time>2019-06-01T14:58:25.000Z</time>
      </trkpt>
      <trkpt lat="43.30427" lon="3.48671">
        <ele>20.85</ele>
        <time>2019-06-01T14:58:30.000Z</time>
      </trkpt>
      <trkpt lat="43.30411" lon="3.48661">
        <ele>20.79</ele>
        <time>2019-06-01T14:58:35.000Z</time>
      </trkpt>
      <trkpt lat="43.30393" lon="3.48652">
        <ele>20.85</ele>
        <time>2019-06-01T14:58:40.000Z</time>
      </trkpt>
      <trkpt lat="43.30377" lon="3.4864">
        <ele>20.85</ele>
        <time>2019-06-01T14:58:45.000Z</time>
      </trkpt>
      <trkpt lat="43.30361" lon="3.48626">
        <ele>21.6</ele>
        <time>2019-06-01T14:58:50.000Z</time>
      </trkpt>
      <trkpt lat="43.30346" lon="3.48615">
        <ele>20.68</ele>
        <time>2019-06-01T14:58:55.000Z</time>
      </trkpt>
      <trkpt lat="43.30331" lon="3.4861">
        <ele>20.9</ele>
        <time>2019-06-01T14:59:00.000Z</time>
      </trkpt>
      <trkpt lat="43.30315" lon="3.48614">
        <ele>20.85</ele>
        <time>2019-06-01T14:59:05.000Z</time>
      </trkpt>
      <trkpt lat="43.30302" lon="3.48612">
        <ele>20.85</ele>
        <time>2019-06-01T14:59:10.000Z</time>
      </trkpt>
      <trkpt lat="43.30296" lon="3.48624">
        <ele>20.79</ele>
        <time>2019-06-01T14:59:15.000Z</time>
      </trkpt>
      <trkpt lat="43.30286" lon="3.48621">
        <ele>19.85</ele>
        <time>2019-06-01T14:59:20.000Z</time>
      </trkpt>
      <trkpt lat="43.30279" lon="3.48608">
        <ele>19.84</ele>
        <time>2019-06-01T14:59:25.000Z</time>
      </trkpt>
      <trkpt lat="43.30286" lon="3.48584">
        <ele>19.85</ele>
        <time>2019-06-01T14:59:30.000Z</time>
      </trkpt>
      <trkpt lat="43.30285" lon="3.48555">
        <ele>19.85</ele>
        <time>2019-06-01T14:59:35.000Z</time>
      </trkpt>
      <trkpt lat="43.3029" lon="3.48534">
        <ele>18.91</ele>
        <time>2019-06-01T14:59:40.000Z</time>
      </trkpt>
      <trkpt lat="43.30282" lon="3.48514">
        <ele>19.84</ele>
        <time>2019-06-01T14:59:45.000Z</time>
      </trkpt>
      <trkpt lat="43.30268" lon="3.48493">
        <ele>18.86</ele>
        <time>2019-06-01T14:59:50.000Z</time>
      </trkpt>
      <trkpt lat="43.3025" lon="3.48474">
        <ele>18.84</ele>
        <time>2019-06-01T14:59:55.000Z</time>
      </trkpt>
      <trkpt lat="43.30228" lon="3.48454">
        <ele>18.85</ele>
        <time>2019-06-01T15:00:00.000Z</time>
      </trkpt>
      <trkpt lat="43.30206" lon="3.48431">
        <ele>17.86</ele>
        <time>2019-06-01T15:00:05.000Z</time>
      </trkpt>
      <trkpt lat="43.30187" lon="3.48405">
        <ele>17.85</ele>
        <time>2019-06-01T15:00:10.000Z</time>
      </trkpt>
      <trkpt lat="43.3017" lon="3.48385">
        <ele>17.85</ele>
        <time>2019-06-01T15:00:15.000Z</time>
      </trkpt>
      <trkpt lat="43.30154" lon="3.4836">
        <ele>17.85</ele>
        <time>2019-06-01T15:00:20.000Z</time>
      </trkpt>
      <trkpt lat="43.30138" lon="3.48334">
        <ele>16.86</ele>
        <time>2019-06-01T15:00:25.000Z</time>
      </trkpt>
      <trkpt lat="43.30119" lon="3.48306">
        <ele>17.6</ele>
        <time>2019-06-01T15:00:30.000Z</time>
      </trkpt>
      <trkpt lat="43.30098" lon="3.48276">
        <ele>19.59</ele>
        <time>2019-06-01T15:00:35.000Z</time>
      </trkpt>
      <trkpt lat="43.3008" lon="3.48246">
        <ele>21.98</ele>
        <time>2019-06-01T15:00:40.000Z</time>
      </trkpt>
      <trkpt lat="43.30067" lon="3.48216">
        <ele>21.85</ele>
        <time>2019-06-01T15:00:45.000Z</time>
      </trkpt>
      <trkpt lat="43.30052" lon="3.48193">
        <ele>21.04</ele>
        <time>2019-06-01T15:00:50.000Z</time>
      </trkpt>
      <trkpt lat="43.30035" lon="3.48197">
        <ele>19.93</ele>
        <time>2019-06-01T15:00:55.000Z</time>
      </trkpt>
      <trkpt lat="43.3003" lon="3.4818">
        <ele>19.86</ele>
        <time>2019-06-01T15:01:00.000Z</time>
      </trkpt>
      <trkpt lat="43.30038" lon="3.4815">
        <ele>19.85</ele>
        <time>2019-06-01T15:01:05.000Z</time>
      </trkpt>
      <trkpt lat="43.30035" lon="3.48118">
        <ele>16.92</ele>
        <time>2019-06-01T15:01:10.000Z</time>
      </trkpt>
      <trkpt lat="43.30025" lon="3.48087">
        <ele>15.92</ele>
        <time>2019-06-01T15:01:15.000Z</time>
      </trkpt>
      <trkpt lat="43.30016" lon="3.48051">
        <ele>14.12</ele>
        <time>2019-06-01T15:01:20.000Z</time>
      </trkpt>
      <trkpt lat="43.30006" lon="3.48015">
        <ele>13.61</ele>
        <time>2019-06-01T15:01:25.000Z</time>
      </trkpt>
      <trkpt lat="43.29997" lon="3.47977">
        <ele>13.85</ele>
        <time>2019-06-01T15:01:30.000Z</time>
      </trkpt>
      <trkpt lat="43.29986" lon="3.47939">
        <ele>13.67</ele>
        <time>2019-06-01T15:01:35.000Z</time>
      </trkpt>
      <trkpt lat="43.2998" lon="3.47901">
        <ele>13.61</ele>
        <time>2019-06-01T15:01:42.000Z</time>
      </trkpt>
      <trkpt lat="43.29974" lon="3.47864">
        <ele>14.84</ele>
        <time>2019-06-01T15:01:47.000Z</time>
      </trkpt>
      <trkpt lat="43.29956" lon="3.47848">
        <ele>15.85</ele>
        <time>2019-06-01T15:01:52.000Z</time>
      </trkpt>
      <trkpt lat="43.29937" lon="3.47842">
        <ele>14.87</ele>
        <time>2019-06-01T15:01:57.000Z</time>
      </trkpt>
      <trkpt lat="43.29925" lon="3.47827">
        <ele>15.89</ele>
        <time>2019-06-01T15:02:02.000Z</time>
      </trkpt>
      <trkpt lat="43.29923" lon="3.47804">
        <ele>16.61</ele>
        <time>2019-06-01T15:02:07.000Z</time>
      </trkpt>
      <trkpt lat="43.29922" lon="3.47782">
        <ele>18.79</ele>
        <time>2019-06-01T15:02:12.000Z</time>
      </trkpt>
      <trkpt lat="43.29936" lon="3.47765">
        <ele>19.84</ele>
        <time>2019-06-01T15:02:17.000Z</time>
      </trkpt>
      <trkpt lat="43.29943" lon="3.47738">
        <ele>19.61</ele>
        <time>2019-06-01T15:02:22.000Z</time>
      </trkpt>
      <trkpt lat="43.29943" lon="3.47704">
        <ele>21.79</ele>
        <time>2019-06-01T15:02:27.000Z</time>
      </trkpt>
      <trkpt lat="43.2994" lon="3.47673">
        <ele>23.04</ele>
        <time>2019-06-01T15:02:32.000Z</time>
      </trkpt>
      <trkpt lat="43.29938" lon="3.47637">
        <ele>22.86</ele>
        <time>2019-06-01T15:02:37.000Z</time>
      </trkpt>
      <trkpt lat="43.29937" lon="3.47601">
        <ele>23.1</ele>
        <time>2019-06-01T15:02:42.000Z</time>
      </trkpt>
      <trkpt lat="43.29934" lon="3.47556">
        <ele>22.67</ele>
        <time>2019-06-01T15:02:47.000Z</time>
      </trkpt>
      <trkpt lat="43.2993" lon="3.47509">
        <ele>22.85</ele>
        <time>2019-06-01T15:02:52.000Z</time>
      </trkpt>
      <trkpt lat="43.29929" lon="3.47462">
        <ele>21.11</ele>
        <time>2019-06-01T15:02:57.000Z</time>
      </trkpt>
      <trkpt lat="43.29926" lon="3.47417">
        <ele>19.87</ele>
        <time>2019-06-01T15:03:02.000Z</time>
      </trkpt>
      <trkpt lat="43.29925" lon="3.47371">
        <ele>19.1</ele>
        <time>2019-06-01T15:03:07.000Z</time>
      </trkpt>
      <trkpt lat="43.29928" lon="3.47327">
        <ele>19.85</ele>
        <time>2019-06-01T15:03:12.000Z</time>
      </trkpt>
      <trkpt lat="43.29944" lon="3.47287">
        <ele>17.98</ele>
        <time>2019-06-01T15:03:17.000Z</time>
      </trkpt>
      <trkpt lat="43.29968" lon="3.47255">
        <ele>15.17</ele>
        <time>2019-06-01T15:03:22.000Z</time>
      </trkpt>
      <trkpt lat="43.29992" lon="3.47225">
        <ele>13.11</ele>
        <time>2019-06-01T15:03:27.000Z</time>
      </trkpt>
      <trkpt lat="43.30002" lon="3.47197">
        <ele>12.85</ele>
        <time>2019-06-01T15:03:32.000Z</time>
      </trkpt>
      <trkpt lat="43.3" lon="3.47183">
        <ele>11.66</ele>
        <time>2019-06-01T15:03:37.000Z</time>
      </trkpt>
      <trkpt lat="43.30007" lon="3.47165">
        <ele>12.6</ele>
        <time>2019-06-01T15:03:42.000Z</time>
      </trkpt>
      <trkpt lat="43.30015" lon="3.47154">
        <ele>11.85</ele>
        <time>2019-06-01T15:03:47.000Z</time>
      </trkpt>
      <trkpt lat="43.30025" lon="3.47149">
        <ele>12.6</ele>
        <time>2019-06-01T15:03:52.000Z</time>
      </trkpt>
      <trkpt lat="43.30021" lon="3.47123">
        <ele>11.86</ele>
        <time>2019-06-01T15:03:57.000Z</time>
      </trkpt>
      <trkpt lat="43.30008" lon="3.4709">
        <ele>11.9</ele>
        <time>2019-06-01T15:04:02.000Z</time>
      </trkpt>
      <trkpt lat="43.29986" lon="3.47065">
        <ele>13.85</ele>
        <time>2019-06-01T15:04:07.000Z</time>
      </trkpt>
      <trkpt lat="43.29964" lon="3.47048">
        <ele>15.04</ele>
        <time>2019-06-01T15:04:12.000Z</time>
      </trkpt>
      <trkpt lat="43.29942" lon="3.47038">
        <ele>14.79</ele>
        <time>2019-06-01T15:04:17.000Z</time>
      </trkpt>
      <trkpt lat="43.29921" lon="3.47037">
        <ele>13.92</ele>
        <time>2019-06-01T15:04:22.000Z</time>
      </trkpt>
      <trkpt lat="43.29901" lon="3.47039">
        <ele>13.86</ele>
        <time>2019-06-01T15:04:27.000Z</time>
      </trkpt>
      <trkpt lat="43.2988" lon="3.47042">
        <ele>14.6</ele>
        <time>2019-06-01T15:04:32.000Z</time>
      </trkpt>
      <trkpt lat="43.2986" lon="3.47037">
        <ele>15.79</ele>
        <time>2019-06-01T15:04:37.000Z</time>
      </trkpt>
      <trkpt lat="43.2984" lon="3.47028">
        <ele>14.91</ele>
        <time>2019-06-01T15:04:42.000Z</time>
      </trkpt>
      <trkpt lat="43.29825" lon="3.47023">
        <ele>14.85</ele>
        <time>2019-06-01T15:04:47.000Z</time>
      </trkpt>
      <trkpt lat="43.2981" lon="3.47029">
        <ele>15.6</ele>
        <time>2019-06-01T15:04:52.000Z</time>
      </trkpt>
      <trkpt lat="43.29797" lon="3.47044">
        <ele>14.92</ele>
        <time>2019-06-01T15:04:57.000Z</time>
      </trkpt>
      <trkpt lat="43.29785" lon="3.47063">
        <ele>15.79</ele>
        <time>2019-06-01T15:05:02.000Z</time>
      </trkpt>
      <trkpt lat="43.29765" lon="3.4707">
        <ele>15.86</ele>
        <time>2019-06-01T15:05:07.000Z</time>
      </trkpt>
      <trkpt lat="43.29743" lon="3.47075">
        <ele>15.15</ele>
        <time>2019-06-01T15:05:12.000Z</time>
      </trkpt>
      <trkpt lat="43.29718" lon="3.47081">
        <ele>15.67</ele>
        <time>2019-06-01T15:05:17.000Z</time>
      </trkpt>
      <trkpt lat="43.29693" lon="3.47086">
        <ele>14.86</ele>
        <time>2019-06-01T15:05:22.000Z</time>
      </trkpt>
      <trkpt lat="43.29672" lon="3.47075">
        <ele>14.86</ele>
        <time>2019-06-01T15:05:27.000Z</time>
      </trkpt>
      <trkpt lat="43.29661" lon="3.47054">
        <ele>14.86</ele>
        <time>2019-06-01T15:05:32.000Z</time>
      </trkpt>
      <trkpt lat="43.29653" lon="3.47049">
        <ele>14.61</ele>
        <time>2019-06-01T15:05:37.000Z</time>
      </trkpt>
      <trkpt lat="43.29637" lon="3.47052">
        <ele>13.86</ele>
        <time>2019-06-01T15:05:42.000Z</time>
      </trkpt>
      <trkpt lat="43.29626" lon="3.47062">
        <ele>13.8</ele>
        <time>2019-06-01T15:05:47.000Z</time>
      </trkpt>
      <trkpt lat="43.29622" lon="3.4709">
        <ele>12.86</ele>
        <time>2019-06-01T15:05:52.000Z</time>
      </trkpt>
      <trkpt lat="43.29597" lon="3.47097">
        <ele>13.8</ele>
        <time>2019-06-01T15:05:57.000Z</time>
      </trkpt>
      <trkpt lat="43.29568" lon="3.47096">
        <ele>11.36</ele>
        <time>2019-06-01T15:06:02.000Z</time>
      </trkpt>
      <trkpt lat="43.29535" lon="3.47092">
        <ele>10.12</ele>
        <time>2019-06-01T15:06:07.000Z</time>
      </trkpt>
      <trkpt lat="43.29503" lon="3.47087">
        <ele>8.88</ele>
        <time>2019-06-01T15:06:12.000Z</time>
      </trkpt>
      <trkpt lat="43.29479" lon="3.47082">
        <ele>8.63</ele>
        <time>2019-06-01T15:06:17.000Z</time>
      </trkpt>
      <trkpt lat="43.29454" lon="3.47074">
        <ele>7.87</ele>
        <time>2019-06-01T15:06:22.000Z</time>
      </trkpt>
      <trkpt lat="43.29426" lon="3.47064">
        <ele>8.86</ele>
        <time>2019-06-01T15:06:27.000Z</time>
      </trkpt>
      <trkpt lat="43.29396" lon="3.47055">
        <ele>9.61</ele>
        <time>2019-06-01T15:06:32.000Z</time>
      </trkpt>
      <trkpt lat="43.29368" lon="3.47044">
        <ele>9.86</ele>
        <time>2019-06-01T15:06:37.000Z</time>
      </trkpt>
      <trkpt lat="43.29337" lon="3.47036">
        <ele>9.86</ele>
        <time>2019-06-01T15:06:42.000Z</time>
      </trkpt>
      <trkpt lat="43.29305" lon="3.47036">
        <ele>8.93</ele>
        <time>2019-06-01T15:06:47.000Z</time>
      </trkpt>
      <trkpt lat="43.29274" lon="3.47043">
        <ele>8.86</ele>
        <time>2019-06-01T15:06:52.000Z</time>
      </trkpt>
      <trkpt lat="43.29245" lon="3.47055">
        <ele>7.88</ele>
        <time>2019-06-01T15:06:57.000Z</time>
      </trkpt>
      <trkpt lat="43.29212" lon="3.4706">
        <ele>8.86</ele>
        <time>2019-06-01T15:07:21.000Z</time>
      </trkpt>
      <trkpt lat="43.2918" lon="3.47063">
        <ele>7.88</ele>
        <time>2019-06-01T15:07:26.000Z</time>
      </trkpt>
      <trkpt lat="43.29151" lon="3.47063">
        <ele>6.87</ele>
        <time>2019-06-01T15:07:31.000Z</time>
      </trkpt>
      <trkpt lat="43.29121" lon="3.47064">
        <ele>6.12</ele>
        <time>2019-06-01T15:07:36.000Z</time>
      </trkpt>
      <trkpt lat="43.29092" lon="3.47066">
        <ele>5.87</ele>
        <time>2019-06-01T15:07:41.000Z</time>
      </trkpt>
      <trkpt lat="43.29064" lon="3.47067">
        <ele>5.87</ele>
        <time>2019-06-01T15:07:46.000Z</time>
      </trkpt>
      <trkpt lat="43.2904" lon="3.47067">
        <ele>5.62</ele>
        <time>2019-06-01T15:07:51.000Z</time>
      </trkpt>
      <trkpt lat="43.29018" lon="3.47071">
        <ele>5.87</ele>
        <time>2019-06-01T15:07:56.000Z</time>
      </trkpt>
      <trkpt lat="43.28989" lon="3.4707">
        <ele>4.87</ele>
        <time>2019-06-01T15:08:01.000Z</time>
      </trkpt>
      <trkpt lat="43.28958" lon="3.4707">
        <ele>4.68</ele>
        <time>2019-06-01T15:08:06.000Z</time>
      </trkpt>
      <trkpt lat="43.28929" lon="3.47071">
        <ele>4.87</ele>
        <time>2019-06-01T15:08:11.000Z</time>
      </trkpt>
      <trkpt lat="43.28902" lon="3.47072">
        <ele>4.68</ele>
        <time>2019-06-01T15:08:16.000Z</time>
      </trkpt>
      <trkpt lat="43.28887" lon="3.47061">
        <ele>4.82</ele>
        <time>2019-06-01T15:08:22.000Z</time>
      </trkpt>
      <trkpt lat="43.28866" lon="3.47073">
        <ele>3.89</ele>
        <time>2019-06-01T15:08:27.000Z</time>
      </trkpt>
      <trkpt lat="43.28842" lon="3.47067">
        <ele>3.87</ele>
        <time>2019-06-01T15:08:32.000Z</time>
      </trkpt>
      <trkpt lat="43.28819" lon="3.4705">
        <ele>4.87</ele>
        <time>2019-06-01T15:08:37.000Z</time>
      </trkpt>
      <trkpt lat="43.28794" lon="3.47032">
        <ele>5.86</ele>
        <time>2019-06-01T15:08:42.000Z</time>
      </trkpt>
      <trkpt lat="43.28768" lon="3.47013">
        <ele>5.87</ele>
        <time>2019-06-01T15:08:47.000Z</time>
      </trkpt>
      <trkpt lat="43.28743" lon="3.46994">
        <ele>6.81</ele>
        <time>2019-06-01T15:08:52.000Z</time>
      </trkpt>
      <trkpt lat="43.28717" lon="3.46974">
        <ele>8.8</ele>
        <time>2019-06-01T15:08:57.000Z</time>
      </trkpt>
      <trkpt lat="43.28692" lon="3.46953">
        <ele>8.63</ele>
        <time>2019-06-01T15:09:02.000Z</time>
      </trkpt>
      <trkpt lat="43.28666" lon="3.46933">
        <ele>6.94</ele>
        <time>2019-06-01T15:09:07.000Z</time>
      </trkpt>
      <trkpt lat="43.28641" lon="3.46923">
        <ele>6.88</ele>
        <time>2019-06-01T15:09:12.000Z</time>
      </trkpt>
      <trkpt lat="43.2865" lon="3.46927">
        <ele>9.38</ele>
        <time>2019-06-01T15:09:17.000Z</time>
      </trkpt>
      <trkpt lat="43.28658" lon="3.46911">
        <ele>9.89</ele>
        <time>2019-06-01T15:09:22.000Z</time>
      </trkpt>
      <trkpt lat="43.2864" lon="3.46881">
        <ele>9.06</ele>
        <time>2019-06-01T15:09:27.000Z</time>
      </trkpt>
      <trkpt lat="43.28623" lon="3.46854">
        <ele>9.63</ele>
        <time>2019-06-01T15:09:32.000Z</time>
      </trkpt>
      <trkpt lat="43.28601" lon="3.46832">
        <ele>9.88</ele>
        <time>2019-06-01T15:09:37.000Z</time>
      </trkpt>
      <trkpt lat="43.28582" lon="3.46806">
        <ele>7.9</ele>
        <time>2019-06-01T15:09:42.000Z</time>
      </trkpt>
      <trkpt lat="43.28564" lon="3.46778">
        <ele>8.58</ele>
        <time>2019-06-01T15:09:47.000Z</time>
      </trkpt>
      <trkpt lat="43.28543" lon="3.46752">
        <ele>6.9</ele>
        <time>2019-06-01T15:09:52.000Z</time>
      </trkpt>
      <trkpt lat="43.28552" lon="3.46719">
        <ele>4.89</ele>
        <time>2019-06-01T15:09:57.000Z</time>
      </trkpt>
      <trkpt lat="43.28565" lon="3.46685">
        <ele>3.88</ele>
        <time>2019-06-01T15:10:02.000Z</time>
      </trkpt>
      <trkpt lat="43.28578" lon="3.46651">
        <ele>2.88</ele>
        <time>2019-06-01T15:10:07.000Z</time>
      </trkpt>
      <trkpt lat="43.28593" lon="3.46623">
        <ele>4.81</ele>
        <time>2019-06-01T15:10:12.000Z</time>
      </trkpt>
      <trkpt lat="43.28584" lon="3.46629">
        <ele>4.88</ele>
        <time>2019-06-01T15:10:17.000Z</time>
      </trkpt>
      <trkpt lat="43.28574" lon="3.46651">
        <ele>3.13</ele>
        <time>2019-06-01T15:10:22.000Z</time>
      </trkpt>
      <trkpt lat="43.28557" lon="3.46653">
        <ele>2.88</ele>
        <time>2019-06-01T15:10:27.000Z</time>
      </trkpt>
      <trkpt lat="43.28539" lon="3.4662">
        <ele>3.87</ele>
        <time>2019-06-01T15:10:32.000Z</time>
      </trkpt>
      <trkpt lat="43.28529" lon="3.46587">
        <ele>3.88</ele>
        <time>2019-06-01T15:10:37.000Z</time>
      </trkpt>
      <trkpt lat="43.28509" lon="3.46559">
        <ele>4.63</ele>
        <time>2019-06-01T15:10:42.000Z</time>
      </trkpt>
      <trkpt lat="43.28484" lon="3.46544">
        <ele>3.88</ele>
        <time>2019-06-01T15:10:47.000Z</time>
      </trkpt>
      <trkpt lat="43.28457" lon="3.46533">
        <ele>4.69</ele>
        <time>2019-06-01T15:10:53.000Z</time>
      </trkpt>
      <trkpt lat="43.28428" lon="3.46528">
        <ele>5.87</ele>
        <time>2019-06-01T15:12:10.000Z</time>
      </trkpt>
      <trkpt lat="43.28402" lon="3.46515">
        <ele>5.83</ele>
        <time>2019-06-01T15:15:48.000Z</time>
      </trkpt>
      <trkpt lat="43.28379" lon="3.46497">
        <ele>3.88</ele>
        <time>2019-06-01T15:17:39.000Z</time>
      </trkpt>
      <trkpt lat="43.28352" lon="3.46492">
        <ele>3.87</ele>
      </trkpt>
      <trkpt lat="43.28324" lon="3.46483">
        <ele>3.88</ele>
      </trkpt>
      <trkpt lat="43.28297" lon="3.46487">
        <ele>4.19</ele>
      </trkpt>
      <trkpt lat="43.28268" lon="3.46489">
        <ele>4.94</ele>
      </trkpt>
      <trkpt lat="43.2824" lon="3.46487">
        <ele>3.14</ele>
      </trkpt>
      <trkpt lat="43.28214" lon="3.46478">
        <ele>2.87</ele>
      </trkpt>
      <trkpt lat="43.28185" lon="3.4648">
        <ele>2.13</ele>
      </trkpt>
      <trkpt lat="43.28158" lon="3.46491">
        <ele>1.89</ele>
      </trkpt>
      <trkpt lat="43.28132" lon="3.46482">
        <ele>1.84</ele>
      </trkpt>
      <trkpt lat="43.28108" lon="3.46469">
        <ele>2.14</ele>
      </trkpt>
      <trkpt lat="43.28087" lon="3.46457">
        <ele>1.94</ele>
      </trkpt>
      <trkpt lat="43.28062" lon="3.46445">
        <ele>3.87</ele>
      </trkpt>
      <trkpt lat="43.28035" lon="3.46431">
        <ele>4.63</ele>
      </trkpt>
      <trkpt lat="43.28009" lon="3.46417">
        <ele>2.9</ele>
      </trkpt>
      <trkpt lat="43.27983" lon="3.46403">
        <ele>2.89</ele>
      </trkpt>
      <trkpt lat="43.2796" lon="3.46389">
        <ele>3.89</ele>
      </trkpt>
      <trkpt lat="43.27942" lon="3.46375">
        <ele>3.87</ele>
      </trkpt>
      <trkpt lat="43.27931" lon="3.46373">
        <ele>4.87</ele>
      </trkpt>
      <trkpt lat="43.27917" lon="3.46365">
        <ele>3.09</ele>
      </trkpt>
      <trkpt lat="43.27907" lon="3.46368">
        <ele>2.89</ele>
      </trkpt>
      <trkpt lat="43.27905" lon="3.4638">
        <ele>1.89</ele>
      </trkpt>
      <trkpt lat="43.27896" lon="3.4638">
        <ele>2</ele>
      </trkpt>
      <trkpt lat="43.27897" lon="3.46379">
        <ele>7.89</ele>
      </trkpt>
    </trkseg>
  </trk>
</gpx>